<?xml version="1.0" encoding="UTF-8" standalone="no" ?>
<gpx xmlns="http://www.topografix.com/GPX/1/1" xmlns:xsi="http://www.w3.org/2001/XMLSchema-instance" xsi:schemaLocation="http://www.topografix.com/GPX/1/1 http://www.topografix.com/GPX/1/1/gpx.xsd" version="1.1" creator="VisuGPX - https://www.visugpx.com">
  <metadata>
    <name>rado braye en laonnois</name>
    <desc><![CDATA[rando du 08/11/2015 à faire]]></desc>
  </metadata>
  <trk>
    <name><![CDATA[1 Place Jean Dardenne]]></name>
    <desc><![CDATA[]]></desc>
    <trkseg>
      <trkpt lat="49.43979" lon="3.60945">
        <ele>135.9</ele>
        <time>2015-11-09T12:41:38.673Z</time>
      </trkpt>
      <trkpt lat="49.4398" lon="3.60945">
        <ele>147</ele>
        <time>2015-11-09T12:42:34.600Z</time>
      </trkpt>
      <trkpt lat="49.4398" lon="3.60945">
        <ele>147</ele>
        <time>2015-11-09T12:42:35.391Z</time>
      </trkpt>
      <trkpt lat="49.4398" lon="3.60945">
        <ele>147.2</ele>
        <time>2015-11-09T12:44:17.382Z</time>
      </trkpt>
      <trkpt lat="49.4398" lon="3.60946">
        <ele>146</ele>
        <time>2015-11-09T12:44:18.430Z</time>
      </trkpt>
      <trkpt lat="49.4398" lon="3.60947">
        <ele>145.5</ele>
        <time>2015-11-09T12:44:20.478Z</time>
      </trkpt>
      <trkpt lat="49.4398" lon="3.60946">
        <ele>145</ele>
        <time>2015-11-09T12:44:21.454Z</time>
      </trkpt>
      <trkpt lat="49.4398" lon="3.60946">
        <ele>145.1</ele>
        <time>2015-11-09T12:48:03.468Z</time>
      </trkpt>
      <trkpt lat="49.43983" lon="3.60947">
        <ele>145.1</ele>
        <time>2015-11-09T12:48:04.459Z</time>
      </trkpt>
      <trkpt lat="49.43983" lon="3.60947">
        <ele>145.1</ele>
        <time>2015-11-09T12:48:04.481Z</time>
      </trkpt>
      <trkpt lat="49.43982" lon="3.60947">
        <ele>145.2</ele>
        <time>2015-11-09T12:48:05.372Z</time>
      </trkpt>
      <trkpt lat="49.43982" lon="3.60947">
        <ele>145.2</ele>
        <time>2015-11-09T12:48:17.383Z</time>
      </trkpt>
      <trkpt lat="49.43983" lon="3.60949">
        <ele>145.5</ele>
        <time>2015-11-09T12:48:18.427Z</time>
      </trkpt>
      <trkpt lat="49.43981" lon="3.60949">
        <ele>145.5</ele>
        <time>2015-11-09T12:48:22.478Z</time>
      </trkpt>
      <trkpt lat="49.43982" lon="3.60949">
        <ele>145.2</ele>
        <time>2015-11-09T12:48:23.371Z</time>
      </trkpt>
      <trkpt lat="49.43982" lon="3.60949">
        <ele>145.2</ele>
        <time>2015-11-09T12:48:23.381Z</time>
      </trkpt>
      <trkpt lat="49.43982" lon="3.60949">
        <ele>145</ele>
        <time>2015-11-09T12:48:24.424Z</time>
      </trkpt>
      <trkpt lat="49.43981" lon="3.60948">
        <ele>144</ele>
        <time>2015-11-09T12:49:06.431Z</time>
      </trkpt>
      <trkpt lat="49.43981" lon="3.60948">
        <ele>144</ele>
        <time>2015-11-09T12:49:07.416Z</time>
      </trkpt>
      <trkpt lat="49.43981" lon="3.60947">
        <ele>144.2</ele>
        <time>2015-11-09T12:49:17.421Z</time>
      </trkpt>
      <trkpt lat="49.43981" lon="3.60947">
        <ele>144.3</ele>
        <time>2015-11-09T12:49:18.422Z</time>
      </trkpt>
      <trkpt lat="49.43981" lon="3.60947">
        <ele>144.3</ele>
        <time>2015-11-09T12:49:18.436Z</time>
      </trkpt>
      <trkpt lat="49.43981" lon="3.60947">
        <ele>144.4</ele>
        <time>2015-11-09T12:49:19.431Z</time>
      </trkpt>
      <trkpt lat="49.43981" lon="3.60947">
        <ele>144.3</ele>
        <time>2015-11-09T12:50:02.416Z</time>
      </trkpt>
      <trkpt lat="49.43983" lon="3.60945">
        <ele>144.3</ele>
        <time>2015-11-09T12:50:03.403Z</time>
      </trkpt>
      <trkpt lat="49.43981" lon="3.60958">
        <ele>142.5</ele>
        <time>2015-11-09T12:51:51.473Z</time>
      </trkpt>
      <trkpt lat="49.43981" lon="3.60959">
        <ele>142.3</ele>
        <time>2015-11-09T12:51:52.373Z</time>
      </trkpt>
      <trkpt lat="49.43977" lon="3.6097">
        <ele>141.7</ele>
        <time>2015-11-09T12:52:02.467Z</time>
      </trkpt>
      <trkpt lat="49.43977" lon="3.60972">
        <ele>141.7</ele>
        <time>2015-11-09T12:52:03.448Z</time>
      </trkpt>
      <trkpt lat="49.43982" lon="3.6096">
        <ele>141.3</ele>
        <time>2015-11-09T12:52:36.500Z</time>
      </trkpt>
      <trkpt lat="49.43982" lon="3.60959">
        <ele>141.2</ele>
        <time>2015-11-09T12:52:37.368Z</time>
      </trkpt>
      <trkpt lat="49.43982" lon="3.60959">
        <ele>141.2</ele>
        <time>2015-11-09T12:52:37.391Z</time>
      </trkpt>
      <trkpt lat="49.43982" lon="3.60959">
        <ele>141.2</ele>
        <time>2015-11-09T12:52:38.373Z</time>
      </trkpt>
      <trkpt lat="49.43982" lon="3.60959">
        <ele>141.1</ele>
        <time>2015-11-09T12:52:42.459Z</time>
      </trkpt>
      <trkpt lat="49.43982" lon="3.60958">
        <ele>141.2</ele>
        <time>2015-11-09T12:52:43.450Z</time>
      </trkpt>
      <trkpt lat="49.43984" lon="3.60955">
        <ele>141.7</ele>
        <time>2015-11-09T12:52:48.513Z</time>
      </trkpt>
      <trkpt lat="49.43984" lon="3.60954">
        <ele>141.7</ele>
        <time>2015-11-09T12:52:49.437Z</time>
      </trkpt>
      <trkpt lat="49.43984" lon="3.60954">
        <ele>141.7</ele>
        <time>2015-11-09T12:52:54.450Z</time>
      </trkpt>
      <trkpt lat="49.43984" lon="3.60954">
        <ele>141.7</ele>
        <time>2015-11-09T12:52:55.440Z</time>
      </trkpt>
      <trkpt lat="49.43984" lon="3.60954">
        <ele>141.7</ele>
        <time>2015-11-09T12:52:55.454Z</time>
      </trkpt>
      <trkpt lat="49.43985" lon="3.60954">
        <ele>141.6</ele>
        <time>2015-11-09T12:52:56.450Z</time>
      </trkpt>
      <trkpt lat="49.43985" lon="3.60954">
        <ele>141.5</ele>
        <time>2015-11-09T12:52:58.595Z</time>
      </trkpt>
      <trkpt lat="49.43985" lon="3.60953">
        <ele>141.6</ele>
        <time>2015-11-09T12:52:59.390Z</time>
      </trkpt>
      <trkpt lat="49.43986" lon="3.60951">
        <ele>142.9</ele>
        <time>2015-11-09T12:58:01.455Z</time>
      </trkpt>
      <trkpt lat="49.43986" lon="3.60951">
        <ele>143</ele>
        <time>2015-11-09T12:58:02.451Z</time>
      </trkpt>
      <trkpt lat="49.43986" lon="3.60951">
        <ele>143</ele>
        <time>2015-11-09T12:58:02.468Z</time>
      </trkpt>
      <trkpt lat="49.43986" lon="3.60951">
        <ele>143.1</ele>
        <time>2015-11-09T12:58:03.379Z</time>
      </trkpt>
      <trkpt lat="49.43984" lon="3.60951">
        <ele>144.3</ele>
        <time>2015-11-09T12:58:28.494Z</time>
      </trkpt>
      <trkpt lat="49.43984" lon="3.60951">
        <ele>144.2</ele>
        <time>2015-11-09T12:58:29.374Z</time>
      </trkpt>
      <trkpt lat="49.43984" lon="3.60951">
        <ele>144.3</ele>
        <time>2015-11-09T13:02:12.438Z</time>
      </trkpt>
      <trkpt lat="49.43984" lon="3.60951">
        <ele>144.1</ele>
        <time>2015-11-09T13:02:13.423Z</time>
      </trkpt>
      <trkpt lat="49.43984" lon="3.60951">
        <ele>144.1</ele>
        <time>2015-11-09T13:02:13.441Z</time>
      </trkpt>
      <trkpt lat="49.43984" lon="3.60951">
        <ele>144.2</ele>
        <time>2015-11-09T13:02:14.436Z</time>
      </trkpt>
      <trkpt lat="49.43984" lon="3.60952">
        <ele>143.8</ele>
        <time>2015-11-09T13:02:38.482Z</time>
      </trkpt>
      <trkpt lat="49.43984" lon="3.60955">
        <ele>142.9</ele>
        <time>2015-11-09T13:02:39.466Z</time>
      </trkpt>
      <trkpt lat="49.43984" lon="3.60955">
        <ele>142.9</ele>
        <time>2015-11-09T13:02:39.493Z</time>
      </trkpt>
      <trkpt lat="49.43984" lon="3.60955">
        <ele>142.9</ele>
        <time>2015-11-09T13:02:40.375Z</time>
      </trkpt>
      <trkpt lat="49.43984" lon="3.60955">
        <ele>142.9</ele>
        <time>2015-11-09T13:02:50.392Z</time>
      </trkpt>
      <trkpt lat="49.43984" lon="3.60955">
        <ele>143</ele>
        <time>2015-11-09T13:02:51.385Z</time>
      </trkpt>
      <trkpt lat="49.43984" lon="3.60954">
        <ele>143.1</ele>
        <time>2015-11-09T13:02:52.421Z</time>
      </trkpt>
      <trkpt lat="49.43984" lon="3.60954">
        <ele>143.2</ele>
        <time>2015-11-09T13:02:53.403Z</time>
      </trkpt>
      <trkpt lat="49.43984" lon="3.60954">
        <ele>143.1</ele>
        <time>2015-11-09T13:03:05.440Z</time>
      </trkpt>
      <trkpt lat="49.43984" lon="3.60957">
        <ele>142.7</ele>
        <time>2015-11-09T13:03:06.436Z</time>
      </trkpt>
      <trkpt lat="49.43986" lon="3.60959">
        <ele>142.5</ele>
        <time>2015-11-09T13:03:09.385Z</time>
      </trkpt>
      <trkpt lat="49.43986" lon="3.60959">
        <ele>142.5</ele>
        <time>2015-11-09T13:03:10.378Z</time>
      </trkpt>
      <trkpt lat="49.43986" lon="3.60959">
        <ele>142.1</ele>
        <time>2015-11-09T13:04:10.598Z</time>
      </trkpt>
      <trkpt lat="49.43988" lon="3.60958">
        <ele>141.6</ele>
        <time>2015-11-09T13:04:11.385Z</time>
      </trkpt>
      <trkpt lat="49.43988" lon="3.60955">
        <ele>141.3</ele>
        <time>2015-11-09T13:04:14.487Z</time>
      </trkpt>
      <trkpt lat="49.43988" lon="3.60955">
        <ele>141.2</ele>
        <time>2015-11-09T13:04:15.376Z</time>
      </trkpt>
      <trkpt lat="49.43988" lon="3.60955">
        <ele>140.9</ele>
        <time>2015-11-09T13:07:18.450Z</time>
      </trkpt>
      <trkpt lat="49.43987" lon="3.60957">
        <ele>141.9</ele>
        <time>2015-11-09T13:07:19.432Z</time>
      </trkpt>
      <trkpt lat="49.43983" lon="3.60969">
        <ele>141.5</ele>
        <time>2015-11-09T13:07:29.439Z</time>
      </trkpt>
      <trkpt lat="49.43983" lon="3.60971">
        <ele>141.5</ele>
        <time>2015-11-09T13:07:30.430Z</time>
      </trkpt>
      <trkpt lat="49.43979" lon="3.60983">
        <ele>141.3</ele>
        <time>2015-11-09T13:07:39.477Z</time>
      </trkpt>
      <trkpt lat="49.43979" lon="3.60984">
        <ele>141.3</ele>
        <time>2015-11-09T13:07:40.417Z</time>
      </trkpt>
      <trkpt lat="49.43976" lon="3.60996">
        <ele>141.1</ele>
        <time>2015-11-09T13:07:47.448Z</time>
      </trkpt>
      <trkpt lat="49.43975" lon="3.60998">
        <ele>141.2</ele>
        <time>2015-11-09T13:07:48.433Z</time>
      </trkpt>
      <trkpt lat="49.43972" lon="3.61009">
        <ele>141.5</ele>
        <time>2015-11-09T13:07:56.447Z</time>
      </trkpt>
      <trkpt lat="49.43971" lon="3.6101">
        <ele>141.4</ele>
        <time>2015-11-09T13:07:57.440Z</time>
      </trkpt>
      <trkpt lat="49.43966" lon="3.61021">
        <ele>141.9</ele>
        <time>2015-11-09T13:08:05.508Z</time>
      </trkpt>
      <trkpt lat="49.43965" lon="3.61023">
        <ele>141.8</ele>
        <time>2015-11-09T13:08:06.462Z</time>
      </trkpt>
      <trkpt lat="49.4396" lon="3.61034">
        <ele>141.6</ele>
        <time>2015-11-09T13:08:14.423Z</time>
      </trkpt>
      <trkpt lat="49.4396" lon="3.61035">
        <ele>141.5</ele>
        <time>2015-11-09T13:08:15.397Z</time>
      </trkpt>
      <trkpt lat="49.43956" lon="3.61046">
        <ele>142</ele>
        <time>2015-11-09T13:08:22.484Z</time>
      </trkpt>
      <trkpt lat="49.43955" lon="3.61047">
        <ele>142.1</ele>
        <time>2015-11-09T13:08:23.384Z</time>
      </trkpt>
      <trkpt lat="49.43951" lon="3.61059">
        <ele>142.6</ele>
        <time>2015-11-09T13:08:30.444Z</time>
      </trkpt>
      <trkpt lat="49.4395" lon="3.6106">
        <ele>142.7</ele>
        <time>2015-11-09T13:08:31.435Z</time>
      </trkpt>
      <trkpt lat="49.43945" lon="3.61071">
        <ele>143</ele>
        <time>2015-11-09T13:08:39.465Z</time>
      </trkpt>
      <trkpt lat="49.43945" lon="3.61072">
        <ele>142.8</ele>
        <time>2015-11-09T13:08:40.480Z</time>
      </trkpt>
      <trkpt lat="49.43941" lon="3.61083">
        <ele>143.3</ele>
        <time>2015-11-09T13:08:47.694Z</time>
      </trkpt>
      <trkpt lat="49.4394" lon="3.61085">
        <ele>143.9</ele>
        <time>2015-11-09T13:08:48.418Z</time>
      </trkpt>
      <trkpt lat="49.43933" lon="3.61092">
        <ele>144.6</ele>
        <time>2015-11-09T13:08:55.475Z</time>
      </trkpt>
      <trkpt lat="49.43932" lon="3.61093">
        <ele>144.7</ele>
        <time>2015-11-09T13:08:56.369Z</time>
      </trkpt>
      <trkpt lat="49.43924" lon="3.61095">
        <ele>144</ele>
        <time>2015-11-09T13:09:04.440Z</time>
      </trkpt>
      <trkpt lat="49.43923" lon="3.61095">
        <ele>143.9</ele>
        <time>2015-11-09T13:09:05.408Z</time>
      </trkpt>
      <trkpt lat="49.43914" lon="3.61094">
        <ele>143.6</ele>
        <time>2015-11-09T13:09:12.636Z</time>
      </trkpt>
      <trkpt lat="49.43913" lon="3.61094">
        <ele>143.4</ele>
        <time>2015-11-09T13:09:13.367Z</time>
      </trkpt>
      <trkpt lat="49.43905" lon="3.61094">
        <ele>143.3</ele>
        <time>2015-11-09T13:09:21.322Z</time>
      </trkpt>
      <trkpt lat="49.43904" lon="3.61094">
        <ele>143.3</ele>
        <time>2015-11-09T13:09:21.566Z</time>
      </trkpt>
      <trkpt lat="49.43895" lon="3.61093">
        <ele>143.7</ele>
        <time>2015-11-09T13:09:31.483Z</time>
      </trkpt>
      <trkpt lat="49.43894" lon="3.61093">
        <ele>143.7</ele>
        <time>2015-11-09T13:09:32.371Z</time>
      </trkpt>
      <trkpt lat="49.43887" lon="3.61095">
        <ele>144</ele>
        <time>2015-11-09T13:09:37.470Z</time>
      </trkpt>
      <trkpt lat="49.43885" lon="3.61095">
        <ele>143.9</ele>
        <time>2015-11-09T13:09:38.452Z</time>
      </trkpt>
      <trkpt lat="49.43877" lon="3.61096">
        <ele>143.6</ele>
        <time>2015-11-09T13:09:44.409Z</time>
      </trkpt>
      <trkpt lat="49.43875" lon="3.61096">
        <ele>143.7</ele>
        <time>2015-11-09T13:09:45.388Z</time>
      </trkpt>
      <trkpt lat="49.43867" lon="3.61096">
        <ele>143.4</ele>
        <time>2015-11-09T13:09:51.481Z</time>
      </trkpt>
      <trkpt lat="49.43865" lon="3.61096">
        <ele>143.3</ele>
        <time>2015-11-09T13:09:52.618Z</time>
      </trkpt>
      <trkpt lat="49.43856" lon="3.61098">
        <ele>143.5</ele>
        <time>2015-11-09T13:09:59.404Z</time>
      </trkpt>
      <trkpt lat="49.43855" lon="3.61099">
        <ele>143.5</ele>
        <time>2015-11-09T13:10:00.421Z</time>
      </trkpt>
      <trkpt lat="49.43847" lon="3.61101">
        <ele>143</ele>
        <time>2015-11-09T13:10:08.488Z</time>
      </trkpt>
      <trkpt lat="49.43846" lon="3.61102">
        <ele>143</ele>
        <time>2015-11-09T13:10:09.374Z</time>
      </trkpt>
      <trkpt lat="49.43837" lon="3.61105">
        <ele>143</ele>
        <time>2015-11-09T13:10:17.394Z</time>
      </trkpt>
      <trkpt lat="49.43836" lon="3.61105">
        <ele>143</ele>
        <time>2015-11-09T13:10:18.435Z</time>
      </trkpt>
      <trkpt lat="49.43828" lon="3.61109">
        <ele>143.1</ele>
        <time>2015-11-09T13:10:25.470Z</time>
      </trkpt>
      <trkpt lat="49.43827" lon="3.6111">
        <ele>143.2</ele>
        <time>2015-11-09T13:10:26.449Z</time>
      </trkpt>
      <trkpt lat="49.43819" lon="3.61113">
        <ele>143.2</ele>
        <time>2015-11-09T13:10:33.474Z</time>
      </trkpt>
      <trkpt lat="49.43818" lon="3.61114">
        <ele>143.3</ele>
        <time>2015-11-09T13:10:34.457Z</time>
      </trkpt>
      <trkpt lat="49.43809" lon="3.61118">
        <ele>143.3</ele>
        <time>2015-11-09T13:10:41.449Z</time>
      </trkpt>
      <trkpt lat="49.43808" lon="3.61119">
        <ele>143.2</ele>
        <time>2015-11-09T13:10:42.434Z</time>
      </trkpt>
      <trkpt lat="49.43801" lon="3.61124">
        <ele>143.5</ele>
        <time>2015-11-09T13:10:49.570Z</time>
      </trkpt>
      <trkpt lat="49.438" lon="3.61125">
        <ele>143.6</ele>
        <time>2015-11-09T13:10:50.379Z</time>
      </trkpt>
      <trkpt lat="49.43792" lon="3.61132">
        <ele>143.4</ele>
        <time>2015-11-09T13:10:57.487Z</time>
      </trkpt>
      <trkpt lat="49.43791" lon="3.61133">
        <ele>143.3</ele>
        <time>2015-11-09T13:10:58.378Z</time>
      </trkpt>
      <trkpt lat="49.43784" lon="3.6114">
        <ele>143.2</ele>
        <time>2015-11-09T13:11:04.399Z</time>
      </trkpt>
      <trkpt lat="49.43783" lon="3.6114">
        <ele>143.3</ele>
        <time>2015-11-09T13:11:05.608Z</time>
      </trkpt>
      <trkpt lat="49.43774" lon="3.61144">
        <ele>143.4</ele>
        <time>2015-11-09T13:11:12.435Z</time>
      </trkpt>
      <trkpt lat="49.43773" lon="3.61145">
        <ele>143.4</ele>
        <time>2015-11-09T13:11:13.425Z</time>
      </trkpt>
      <trkpt lat="49.43765" lon="3.61147">
        <ele>143.9</ele>
        <time>2015-11-09T13:11:19.484Z</time>
      </trkpt>
      <trkpt lat="49.43763" lon="3.61148">
        <ele>143.9</ele>
        <time>2015-11-09T13:11:20.442Z</time>
      </trkpt>
      <trkpt lat="49.43756" lon="3.61151">
        <ele>143.5</ele>
        <time>2015-11-09T13:11:26.454Z</time>
      </trkpt>
      <trkpt lat="49.43755" lon="3.61152">
        <ele>143.6</ele>
        <time>2015-11-09T13:11:27.448Z</time>
      </trkpt>
      <trkpt lat="49.43746" lon="3.61154">
        <ele>144.3</ele>
        <time>2015-11-09T13:11:34.490Z</time>
      </trkpt>
      <trkpt lat="49.43745" lon="3.61155">
        <ele>144.4</ele>
        <time>2015-11-09T13:11:35.366Z</time>
      </trkpt>
      <trkpt lat="49.43738" lon="3.61161">
        <ele>144.3</ele>
        <time>2015-11-09T13:11:42.492Z</time>
      </trkpt>
      <trkpt lat="49.43737" lon="3.61161">
        <ele>144.4</ele>
        <time>2015-11-09T13:11:43.392Z</time>
      </trkpt>
      <trkpt lat="49.43728" lon="3.61163">
        <ele>144.5</ele>
        <time>2015-11-09T13:11:51.459Z</time>
      </trkpt>
      <trkpt lat="49.43728" lon="3.61164">
        <ele>144.6</ele>
        <time>2015-11-09T13:11:52.446Z</time>
      </trkpt>
      <trkpt lat="49.4372" lon="3.61171">
        <ele>144.8</ele>
        <time>2015-11-09T13:11:59.450Z</time>
      </trkpt>
      <trkpt lat="49.43719" lon="3.61171">
        <ele>144.7</ele>
        <time>2015-11-09T13:12:00.443Z</time>
      </trkpt>
      <trkpt lat="49.43711" lon="3.61176">
        <ele>144.3</ele>
        <time>2015-11-09T13:12:08.466Z</time>
      </trkpt>
      <trkpt lat="49.4371" lon="3.61176">
        <ele>144.4</ele>
        <time>2015-11-09T13:12:09.458Z</time>
      </trkpt>
      <trkpt lat="49.43701" lon="3.61179">
        <ele>145.2</ele>
        <time>2015-11-09T13:12:16.417Z</time>
      </trkpt>
      <trkpt lat="49.437" lon="3.6118">
        <ele>145.4</ele>
        <time>2015-11-09T13:12:17.420Z</time>
      </trkpt>
      <trkpt lat="49.43692" lon="3.61185">
        <ele>145.9</ele>
        <time>2015-11-09T13:12:24.461Z</time>
      </trkpt>
      <trkpt lat="49.43691" lon="3.61186">
        <ele>145.9</ele>
        <time>2015-11-09T13:12:25.442Z</time>
      </trkpt>
      <trkpt lat="49.43684" lon="3.61191">
        <ele>146.7</ele>
        <time>2015-11-09T13:12:32.403Z</time>
      </trkpt>
      <trkpt lat="49.43683" lon="3.61191">
        <ele>146.9</ele>
        <time>2015-11-09T13:12:33.408Z</time>
      </trkpt>
      <trkpt lat="49.43676" lon="3.61197">
        <ele>146.7</ele>
        <time>2015-11-09T13:12:39.387Z</time>
      </trkpt>
      <trkpt lat="49.43675" lon="3.61198">
        <ele>146.7</ele>
        <time>2015-11-09T13:12:40.387Z</time>
      </trkpt>
      <trkpt lat="49.43668" lon="3.61206">
        <ele>146.3</ele>
        <time>2015-11-09T13:12:47.495Z</time>
      </trkpt>
      <trkpt lat="49.43667" lon="3.61207">
        <ele>146.4</ele>
        <time>2015-11-09T13:12:48.489Z</time>
      </trkpt>
      <trkpt lat="49.4366" lon="3.61214">
        <ele>147</ele>
        <time>2015-11-09T13:12:55.462Z</time>
      </trkpt>
      <trkpt lat="49.43658" lon="3.61215">
        <ele>146.9</ele>
        <time>2015-11-09T13:12:56.450Z</time>
      </trkpt>
      <trkpt lat="49.43651" lon="3.61222">
        <ele>147.5</ele>
        <time>2015-11-09T13:13:03.454Z</time>
      </trkpt>
      <trkpt lat="49.4365" lon="3.61223">
        <ele>147.4</ele>
        <time>2015-11-09T13:13:04.439Z</time>
      </trkpt>
      <trkpt lat="49.43644" lon="3.61231">
        <ele>147.2</ele>
        <time>2015-11-09T13:13:11.414Z</time>
      </trkpt>
      <trkpt lat="49.43643" lon="3.61232">
        <ele>147.2</ele>
        <time>2015-11-09T13:13:12.402Z</time>
      </trkpt>
      <trkpt lat="49.43637" lon="3.61242">
        <ele>147.5</ele>
        <time>2015-11-09T13:13:21.457Z</time>
      </trkpt>
      <trkpt lat="49.43636" lon="3.61242">
        <ele>147.4</ele>
        <time>2015-11-09T13:13:22.450Z</time>
      </trkpt>
      <trkpt lat="49.43636" lon="3.61243">
        <ele>147.4</ele>
        <time>2015-11-09T13:13:23.379Z</time>
      </trkpt>
      <trkpt lat="49.43636" lon="3.61243">
        <ele>147.2</ele>
        <time>2015-11-09T13:13:24.473Z</time>
      </trkpt>
      <trkpt lat="49.43636" lon="3.61243">
        <ele>147.2</ele>
        <time>2015-11-09T13:13:24.508Z</time>
      </trkpt>
      <trkpt lat="49.43636" lon="3.61244">
        <ele>147.3</ele>
        <time>2015-11-09T13:13:25.362Z</time>
      </trkpt>
      <trkpt lat="49.43627" lon="3.61244">
        <ele>147.5</ele>
        <time>2015-11-09T13:13:39.394Z</time>
      </trkpt>
      <trkpt lat="49.43626" lon="3.61243">
        <ele>147.5</ele>
        <time>2015-11-09T13:13:40.391Z</time>
      </trkpt>
      <trkpt lat="49.43617" lon="3.61242">
        <ele>147.7</ele>
        <time>2015-11-09T13:13:50.462Z</time>
      </trkpt>
      <trkpt lat="49.43616" lon="3.61243">
        <ele>147.7</ele>
        <time>2015-11-09T13:13:51.447Z</time>
      </trkpt>
      <trkpt lat="49.43608" lon="3.61243">
        <ele>148.1</ele>
        <time>2015-11-09T13:13:59.425Z</time>
      </trkpt>
      <trkpt lat="49.43607" lon="3.61243">
        <ele>148.1</ele>
        <time>2015-11-09T13:14:00.413Z</time>
      </trkpt>
      <trkpt lat="49.43599" lon="3.61243">
        <ele>148.1</ele>
        <time>2015-11-09T13:14:07.575Z</time>
      </trkpt>
      <trkpt lat="49.43598" lon="3.61243">
        <ele>147.8</ele>
        <time>2015-11-09T13:14:08.372Z</time>
      </trkpt>
      <trkpt lat="49.43589" lon="3.61242">
        <ele>148.1</ele>
        <time>2015-11-09T13:14:15.463Z</time>
      </trkpt>
      <trkpt lat="49.43587" lon="3.61242">
        <ele>148.2</ele>
        <time>2015-11-09T13:14:16.366Z</time>
      </trkpt>
      <trkpt lat="49.43579" lon="3.61239">
        <ele>149</ele>
        <time>2015-11-09T13:14:23.456Z</time>
      </trkpt>
      <trkpt lat="49.43578" lon="3.61239">
        <ele>149.1</ele>
        <time>2015-11-09T13:14:24.446Z</time>
      </trkpt>
      <trkpt lat="49.4357" lon="3.61236">
        <ele>148.2</ele>
        <time>2015-11-09T13:14:32.458Z</time>
      </trkpt>
      <trkpt lat="49.43569" lon="3.61235">
        <ele>148.2</ele>
        <time>2015-11-09T13:14:33.442Z</time>
      </trkpt>
      <trkpt lat="49.43561" lon="3.61236">
        <ele>148.6</ele>
        <time>2015-11-09T13:14:40.479Z</time>
      </trkpt>
      <trkpt lat="49.43559" lon="3.61236">
        <ele>148.8</ele>
        <time>2015-11-09T13:14:41.359Z</time>
      </trkpt>
      <trkpt lat="49.43551" lon="3.61235">
        <ele>148.9</ele>
        <time>2015-11-09T13:14:47.463Z</time>
      </trkpt>
      <trkpt lat="49.4355" lon="3.61234">
        <ele>149</ele>
        <time>2015-11-09T13:14:48.464Z</time>
      </trkpt>
      <trkpt lat="49.43541" lon="3.61234">
        <ele>148.6</ele>
        <time>2015-11-09T13:14:57.452Z</time>
      </trkpt>
      <trkpt lat="49.4354" lon="3.61233">
        <ele>148.4</ele>
        <time>2015-11-09T13:14:58.441Z</time>
      </trkpt>
      <trkpt lat="49.43532" lon="3.61233">
        <ele>148.1</ele>
        <time>2015-11-09T13:15:06.419Z</time>
      </trkpt>
      <trkpt lat="49.4353" lon="3.61233">
        <ele>147.8</ele>
        <time>2015-11-09T13:15:07.418Z</time>
      </trkpt>
      <trkpt lat="49.43523" lon="3.61228">
        <ele>147.7</ele>
        <time>2015-11-09T13:15:13.435Z</time>
      </trkpt>
      <trkpt lat="49.43522" lon="3.61227">
        <ele>147.6</ele>
        <time>2015-11-09T13:15:14.579Z</time>
      </trkpt>
      <trkpt lat="49.43515" lon="3.61222">
        <ele>147.6</ele>
        <time>2015-11-09T13:15:21.402Z</time>
      </trkpt>
      <trkpt lat="49.43513" lon="3.61221">
        <ele>147.4</ele>
        <time>2015-11-09T13:15:22.384Z</time>
      </trkpt>
      <trkpt lat="49.43505" lon="3.61218">
        <ele>146.9</ele>
        <time>2015-11-09T13:15:28.373Z</time>
      </trkpt>
      <trkpt lat="49.43504" lon="3.61217">
        <ele>146.8</ele>
        <time>2015-11-09T13:15:29.372Z</time>
      </trkpt>
      <trkpt lat="49.43495" lon="3.61214">
        <ele>145.8</ele>
        <time>2015-11-09T13:15:36.437Z</time>
      </trkpt>
      <trkpt lat="49.43494" lon="3.61214">
        <ele>145.8</ele>
        <time>2015-11-09T13:15:37.414Z</time>
      </trkpt>
      <trkpt lat="49.43486" lon="3.61212">
        <ele>144.8</ele>
        <time>2015-11-09T13:15:44.460Z</time>
      </trkpt>
      <trkpt lat="49.43485" lon="3.61212">
        <ele>144.7</ele>
        <time>2015-11-09T13:15:45.448Z</time>
      </trkpt>
      <trkpt lat="49.43476" lon="3.61211">
        <ele>143.3</ele>
        <time>2015-11-09T13:15:53.476Z</time>
      </trkpt>
      <trkpt lat="49.43475" lon="3.61211">
        <ele>143.3</ele>
        <time>2015-11-09T13:15:54.465Z</time>
      </trkpt>
      <trkpt lat="49.43467" lon="3.61213">
        <ele>142.9</ele>
        <time>2015-11-09T13:16:02.397Z</time>
      </trkpt>
      <trkpt lat="49.43466" lon="3.61213">
        <ele>143.1</ele>
        <time>2015-11-09T13:16:03.360Z</time>
      </trkpt>
      <trkpt lat="49.43457" lon="3.61214">
        <ele>141.5</ele>
        <time>2015-11-09T13:16:12.650Z</time>
      </trkpt>
      <trkpt lat="49.43457" lon="3.61213">
        <ele>141.5</ele>
        <time>2015-11-09T13:16:13.359Z</time>
      </trkpt>
      <trkpt lat="49.43448" lon="3.61213">
        <ele>140.9</ele>
        <time>2015-11-09T13:16:21.397Z</time>
      </trkpt>
      <trkpt lat="49.43447" lon="3.61212">
        <ele>140.8</ele>
        <time>2015-11-09T13:16:22.362Z</time>
      </trkpt>
      <trkpt lat="49.4344" lon="3.61211">
        <ele>140.7</ele>
        <time>2015-11-09T13:16:29.377Z</time>
      </trkpt>
      <trkpt lat="49.43438" lon="3.61211">
        <ele>140.7</ele>
        <time>2015-11-09T13:16:30.465Z</time>
      </trkpt>
      <trkpt lat="49.4343" lon="3.61211">
        <ele>140.8</ele>
        <time>2015-11-09T13:16:38.418Z</time>
      </trkpt>
      <trkpt lat="49.43429" lon="3.6121">
        <ele>140.7</ele>
        <time>2015-11-09T13:16:39.430Z</time>
      </trkpt>
      <trkpt lat="49.43421" lon="3.61207">
        <ele>140.1</ele>
        <time>2015-11-09T13:16:47.399Z</time>
      </trkpt>
      <trkpt lat="49.4342" lon="3.61205">
        <ele>140</ele>
        <time>2015-11-09T13:16:48.396Z</time>
      </trkpt>
      <trkpt lat="49.43412" lon="3.61199">
        <ele>138.8</ele>
        <time>2015-11-09T13:16:54.483Z</time>
      </trkpt>
      <trkpt lat="49.43411" lon="3.61198">
        <ele>138.8</ele>
        <time>2015-11-09T13:16:55.358Z</time>
      </trkpt>
      <trkpt lat="49.43404" lon="3.6119">
        <ele>138.4</ele>
        <time>2015-11-09T13:17:02.471Z</time>
      </trkpt>
      <trkpt lat="49.43404" lon="3.61189">
        <ele>138.4</ele>
        <time>2015-11-09T13:17:03.358Z</time>
      </trkpt>
      <trkpt lat="49.43398" lon="3.6118">
        <ele>137.5</ele>
        <time>2015-11-09T13:17:12.596Z</time>
      </trkpt>
      <trkpt lat="49.43397" lon="3.61178">
        <ele>136.9</ele>
        <time>2015-11-09T13:17:13.353Z</time>
      </trkpt>
      <trkpt lat="49.4339" lon="3.61172">
        <ele>135.3</ele>
        <time>2015-11-09T13:17:19.377Z</time>
      </trkpt>
      <trkpt lat="49.43389" lon="3.61171">
        <ele>134.8</ele>
        <time>2015-11-09T13:17:20.357Z</time>
      </trkpt>
      <trkpt lat="49.43383" lon="3.61162">
        <ele>133.7</ele>
        <time>2015-11-09T13:17:27.385Z</time>
      </trkpt>
      <trkpt lat="49.43382" lon="3.61161">
        <ele>133.5</ele>
        <time>2015-11-09T13:17:28.354Z</time>
      </trkpt>
      <trkpt lat="49.43376" lon="3.61151">
        <ele>132.2</ele>
        <time>2015-11-09T13:17:36.485Z</time>
      </trkpt>
      <trkpt lat="49.43375" lon="3.61149">
        <ele>132.1</ele>
        <time>2015-11-09T13:17:37.368Z</time>
      </trkpt>
      <trkpt lat="49.4337" lon="3.61139">
        <ele>131.3</ele>
        <time>2015-11-09T13:17:45.462Z</time>
      </trkpt>
      <trkpt lat="49.43369" lon="3.61138">
        <ele>131.1</ele>
        <time>2015-11-09T13:17:46.358Z</time>
      </trkpt>
      <trkpt lat="49.43364" lon="3.61128">
        <ele>130.6</ele>
        <time>2015-11-09T13:17:53.371Z</time>
      </trkpt>
      <trkpt lat="49.43363" lon="3.61127">
        <ele>130.6</ele>
        <time>2015-11-09T13:17:54.464Z</time>
      </trkpt>
      <trkpt lat="49.43356" lon="3.61118">
        <ele>130.6</ele>
        <time>2015-11-09T13:18:01.369Z</time>
      </trkpt>
      <trkpt lat="49.43356" lon="3.61117">
        <ele>130.5</ele>
        <time>2015-11-09T13:18:02.350Z</time>
      </trkpt>
      <trkpt lat="49.43351" lon="3.61108">
        <ele>131</ele>
        <time>2015-11-09T13:18:11.460Z</time>
      </trkpt>
      <trkpt lat="49.4335" lon="3.61107">
        <ele>131</ele>
        <time>2015-11-09T13:18:12.434Z</time>
      </trkpt>
      <trkpt lat="49.43349" lon="3.61106">
        <ele>131.2</ele>
        <time>2015-11-09T13:18:14.380Z</time>
      </trkpt>
      <trkpt lat="49.43349" lon="3.61106">
        <ele>131.3</ele>
        <time>2015-11-09T13:18:15.373Z</time>
      </trkpt>
      <trkpt lat="49.43349" lon="3.61107">
        <ele>130.7</ele>
        <time>2015-11-09T13:18:26.430Z</time>
      </trkpt>
      <trkpt lat="49.43352" lon="3.61114">
        <ele>127.1</ele>
        <time>2015-11-09T13:18:27.424Z</time>
      </trkpt>
      <trkpt lat="49.43352" lon="3.61127">
        <ele>124.9</ele>
        <time>2015-11-09T13:18:37.420Z</time>
      </trkpt>
      <trkpt lat="49.43351" lon="3.61128">
        <ele>125</ele>
        <time>2015-11-09T13:18:38.409Z</time>
      </trkpt>
      <trkpt lat="49.43345" lon="3.61136">
        <ele>124</ele>
        <time>2015-11-09T13:18:48.454Z</time>
      </trkpt>
      <trkpt lat="49.43344" lon="3.61137">
        <ele>123.8</ele>
        <time>2015-11-09T13:18:49.440Z</time>
      </trkpt>
      <trkpt lat="49.43338" lon="3.61144">
        <ele>123.7</ele>
        <time>2015-11-09T13:18:56.419Z</time>
      </trkpt>
      <trkpt lat="49.43337" lon="3.61145">
        <ele>123.6</ele>
        <time>2015-11-09T13:18:57.409Z</time>
      </trkpt>
      <trkpt lat="49.4333" lon="3.61155">
        <ele>123.1</ele>
        <time>2015-11-09T13:19:05.405Z</time>
      </trkpt>
      <trkpt lat="49.4333" lon="3.61156">
        <ele>123</ele>
        <time>2015-11-09T13:19:06.391Z</time>
      </trkpt>
      <trkpt lat="49.43323" lon="3.61166">
        <ele>122.8</ele>
        <time>2015-11-09T13:19:14.384Z</time>
      </trkpt>
      <trkpt lat="49.43322" lon="3.61167">
        <ele>122.8</ele>
        <time>2015-11-09T13:19:15.364Z</time>
      </trkpt>
      <trkpt lat="49.43316" lon="3.61176">
        <ele>122.6</ele>
        <time>2015-11-09T13:19:22.456Z</time>
      </trkpt>
      <trkpt lat="49.43315" lon="3.61177">
        <ele>122.6</ele>
        <time>2015-11-09T13:19:23.343Z</time>
      </trkpt>
      <trkpt lat="49.4331" lon="3.61188">
        <ele>121.5</ele>
        <time>2015-11-09T13:19:32.445Z</time>
      </trkpt>
      <trkpt lat="49.43309" lon="3.61189">
        <ele>121.4</ele>
        <time>2015-11-09T13:19:33.426Z</time>
      </trkpt>
      <trkpt lat="49.43303" lon="3.61199">
        <ele>121.2</ele>
        <time>2015-11-09T13:19:43.459Z</time>
      </trkpt>
      <trkpt lat="49.43303" lon="3.612">
        <ele>121.1</ele>
        <time>2015-11-09T13:19:44.348Z</time>
      </trkpt>
      <trkpt lat="49.43296" lon="3.61209">
        <ele>121.2</ele>
        <time>2015-11-09T13:19:51.464Z</time>
      </trkpt>
      <trkpt lat="49.43295" lon="3.6121">
        <ele>121.2</ele>
        <time>2015-11-09T13:19:52.432Z</time>
      </trkpt>
      <trkpt lat="49.4329" lon="3.61219">
        <ele>121.6</ele>
        <time>2015-11-09T13:19:58.448Z</time>
      </trkpt>
      <trkpt lat="49.43289" lon="3.6122">
        <ele>121.8</ele>
        <time>2015-11-09T13:19:59.432Z</time>
      </trkpt>
      <trkpt lat="49.43283" lon="3.61229">
        <ele>122</ele>
        <time>2015-11-09T13:20:07.424Z</time>
      </trkpt>
      <trkpt lat="49.43283" lon="3.6123">
        <ele>121.9</ele>
        <time>2015-11-09T13:20:08.419Z</time>
      </trkpt>
      <trkpt lat="49.43277" lon="3.61239">
        <ele>121.3</ele>
        <time>2015-11-09T13:20:16.448Z</time>
      </trkpt>
      <trkpt lat="49.43276" lon="3.6124">
        <ele>121.3</ele>
        <time>2015-11-09T13:20:17.348Z</time>
      </trkpt>
      <trkpt lat="49.4327" lon="3.61249">
        <ele>120.7</ele>
        <time>2015-11-09T13:20:25.440Z</time>
      </trkpt>
      <trkpt lat="49.43269" lon="3.61249">
        <ele>120.6</ele>
        <time>2015-11-09T13:20:26.419Z</time>
      </trkpt>
      <trkpt lat="49.43263" lon="3.61257">
        <ele>120.6</ele>
        <time>2015-11-09T13:20:35.455Z</time>
      </trkpt>
      <trkpt lat="49.43262" lon="3.61258">
        <ele>120.6</ele>
        <time>2015-11-09T13:20:36.443Z</time>
      </trkpt>
      <trkpt lat="49.43257" lon="3.6127">
        <ele>120.6</ele>
        <time>2015-11-09T13:20:44.442Z</time>
      </trkpt>
      <trkpt lat="49.43257" lon="3.61271">
        <ele>120.6</ele>
        <time>2015-11-09T13:20:45.434Z</time>
      </trkpt>
      <trkpt lat="49.43252" lon="3.61281">
        <ele>120.9</ele>
        <time>2015-11-09T13:20:53.479Z</time>
      </trkpt>
      <trkpt lat="49.43251" lon="3.61283">
        <ele>120.9</ele>
        <time>2015-11-09T13:20:54.441Z</time>
      </trkpt>
      <trkpt lat="49.43248" lon="3.61296">
        <ele>120.6</ele>
        <time>2015-11-09T13:21:01.417Z</time>
      </trkpt>
      <trkpt lat="49.43248" lon="3.61297">
        <ele>120.4</ele>
        <time>2015-11-09T13:21:02.404Z</time>
      </trkpt>
      <trkpt lat="49.43242" lon="3.61306">
        <ele>120</ele>
        <time>2015-11-09T13:21:10.394Z</time>
      </trkpt>
      <trkpt lat="49.43241" lon="3.61307">
        <ele>120.2</ele>
        <time>2015-11-09T13:21:11.378Z</time>
      </trkpt>
      <trkpt lat="49.43236" lon="3.61318">
        <ele>120.3</ele>
        <time>2015-11-09T13:21:18.474Z</time>
      </trkpt>
      <trkpt lat="49.43235" lon="3.6132">
        <ele>120.2</ele>
        <time>2015-11-09T13:21:19.348Z</time>
      </trkpt>
      <trkpt lat="49.4323" lon="3.6133">
        <ele>120.2</ele>
        <time>2015-11-09T13:21:26.429Z</time>
      </trkpt>
      <trkpt lat="49.43229" lon="3.61332">
        <ele>120.2</ele>
        <time>2015-11-09T13:21:27.411Z</time>
      </trkpt>
      <trkpt lat="49.43225" lon="3.61343">
        <ele>119.5</ele>
        <time>2015-11-09T13:21:36.412Z</time>
      </trkpt>
      <trkpt lat="49.43225" lon="3.61345">
        <ele>119.4</ele>
        <time>2015-11-09T13:21:37.405Z</time>
      </trkpt>
      <trkpt lat="49.43219" lon="3.61354">
        <ele>119.6</ele>
        <time>2015-11-09T13:21:43.426Z</time>
      </trkpt>
      <trkpt lat="49.43218" lon="3.61355">
        <ele>119.7</ele>
        <time>2015-11-09T13:21:44.403Z</time>
      </trkpt>
      <trkpt lat="49.43213" lon="3.61365">
        <ele>120.4</ele>
        <time>2015-11-09T13:21:52.409Z</time>
      </trkpt>
      <trkpt lat="49.43212" lon="3.61367">
        <ele>120.4</ele>
        <time>2015-11-09T13:21:53.411Z</time>
      </trkpt>
      <trkpt lat="49.43207" lon="3.61376">
        <ele>120.2</ele>
        <time>2015-11-09T13:21:59.405Z</time>
      </trkpt>
      <trkpt lat="49.43206" lon="3.61378">
        <ele>120.2</ele>
        <time>2015-11-09T13:22:00.404Z</time>
      </trkpt>
      <trkpt lat="49.43201" lon="3.61388">
        <ele>120.4</ele>
        <time>2015-11-09T13:22:07.359Z</time>
      </trkpt>
      <trkpt lat="49.432" lon="3.6139">
        <ele>120.6</ele>
        <time>2015-11-09T13:22:08.379Z</time>
      </trkpt>
      <trkpt lat="49.43195" lon="3.61399">
        <ele>120.9</ele>
        <time>2015-11-09T13:22:13.435Z</time>
      </trkpt>
      <trkpt lat="49.43194" lon="3.61401">
        <ele>121</ele>
        <time>2015-11-09T13:22:14.419Z</time>
      </trkpt>
      <trkpt lat="49.43189" lon="3.61411">
        <ele>121.2</ele>
        <time>2015-11-09T13:22:20.366Z</time>
      </trkpt>
      <trkpt lat="49.43188" lon="3.61413">
        <ele>121.1</ele>
        <time>2015-11-09T13:22:21.361Z</time>
      </trkpt>
      <trkpt lat="49.43184" lon="3.61424">
        <ele>121.3</ele>
        <time>2015-11-09T13:22:29.387Z</time>
      </trkpt>
      <trkpt lat="49.43183" lon="3.61425">
        <ele>121.1</ele>
        <time>2015-11-09T13:22:30.388Z</time>
      </trkpt>
      <trkpt lat="49.43179" lon="3.61436">
        <ele>121.3</ele>
        <time>2015-11-09T13:22:37.405Z</time>
      </trkpt>
      <trkpt lat="49.43179" lon="3.61437">
        <ele>121.3</ele>
        <time>2015-11-09T13:22:38.392Z</time>
      </trkpt>
      <trkpt lat="49.43174" lon="3.61449">
        <ele>120.5</ele>
        <time>2015-11-09T13:22:47.462Z</time>
      </trkpt>
      <trkpt lat="49.43173" lon="3.6145">
        <ele>120.4</ele>
        <time>2015-11-09T13:22:48.444Z</time>
      </trkpt>
      <trkpt lat="49.43168" lon="3.61461">
        <ele>120.7</ele>
        <time>2015-11-09T13:22:55.417Z</time>
      </trkpt>
      <trkpt lat="49.43167" lon="3.61463">
        <ele>120.7</ele>
        <time>2015-11-09T13:22:56.402Z</time>
      </trkpt>
      <trkpt lat="49.43165" lon="3.61475">
        <ele>121.2</ele>
        <time>2015-11-09T13:23:03.372Z</time>
      </trkpt>
      <trkpt lat="49.43164" lon="3.61477">
        <ele>121.4</ele>
        <time>2015-11-09T13:23:04.359Z</time>
      </trkpt>
      <trkpt lat="49.4316" lon="3.61488">
        <ele>121.9</ele>
        <time>2015-11-09T13:23:11.372Z</time>
      </trkpt>
      <trkpt lat="49.43158" lon="3.61489">
        <ele>121.8</ele>
        <time>2015-11-09T13:23:12.505Z</time>
      </trkpt>
      <trkpt lat="49.43155" lon="3.61502">
        <ele>122.2</ele>
        <time>2015-11-09T13:23:22.464Z</time>
      </trkpt>
      <trkpt lat="49.43155" lon="3.61503">
        <ele>122.1</ele>
        <time>2015-11-09T13:23:23.347Z</time>
      </trkpt>
      <trkpt lat="49.43152" lon="3.61515">
        <ele>121.6</ele>
        <time>2015-11-09T13:23:31.368Z</time>
      </trkpt>
      <trkpt lat="49.43151" lon="3.61517">
        <ele>121.6</ele>
        <time>2015-11-09T13:23:32.350Z</time>
      </trkpt>
      <trkpt lat="49.43147" lon="3.61527">
        <ele>121.3</ele>
        <time>2015-11-09T13:23:38.420Z</time>
      </trkpt>
      <trkpt lat="49.43146" lon="3.6153">
        <ele>121.5</ele>
        <time>2015-11-09T13:23:39.416Z</time>
      </trkpt>
      <trkpt lat="49.43143" lon="3.61542">
        <ele>121.1</ele>
        <time>2015-11-09T13:23:47.410Z</time>
      </trkpt>
      <trkpt lat="49.43142" lon="3.61544">
        <ele>121.1</ele>
        <time>2015-11-09T13:23:48.388Z</time>
      </trkpt>
      <trkpt lat="49.43139" lon="3.61555">
        <ele>121.8</ele>
        <time>2015-11-09T13:23:53.455Z</time>
      </trkpt>
      <trkpt lat="49.43138" lon="3.61557">
        <ele>121.8</ele>
        <time>2015-11-09T13:23:54.446Z</time>
      </trkpt>
      <trkpt lat="49.43135" lon="3.61568">
        <ele>122.8</ele>
        <time>2015-11-09T13:23:59.402Z</time>
      </trkpt>
      <trkpt lat="49.43135" lon="3.6157">
        <ele>122.9</ele>
        <time>2015-11-09T13:24:00.401Z</time>
      </trkpt>
      <trkpt lat="49.43133" lon="3.61583">
        <ele>122.3</ele>
        <time>2015-11-09T13:24:08.410Z</time>
      </trkpt>
      <trkpt lat="49.43132" lon="3.61585">
        <ele>122.3</ele>
        <time>2015-11-09T13:24:09.408Z</time>
      </trkpt>
      <trkpt lat="49.43131" lon="3.61588">
        <ele>122.4</ele>
        <time>2015-11-09T13:24:12.465Z</time>
      </trkpt>
      <trkpt lat="49.43131" lon="3.61589">
        <ele>122.3</ele>
        <time>2015-11-09T13:24:13.347Z</time>
      </trkpt>
      <trkpt lat="49.43131" lon="3.61589">
        <ele>122.3</ele>
        <time>2015-11-09T13:24:14.383Z</time>
      </trkpt>
      <trkpt lat="49.4313" lon="3.6159">
        <ele>122.4</ele>
        <time>2015-11-09T13:24:15.355Z</time>
      </trkpt>
      <trkpt lat="49.43128" lon="3.61602">
        <ele>122.4</ele>
        <time>2015-11-09T13:24:24.465Z</time>
      </trkpt>
      <trkpt lat="49.43127" lon="3.61604">
        <ele>122.4</ele>
        <time>2015-11-09T13:24:25.359Z</time>
      </trkpt>
      <trkpt lat="49.43124" lon="3.61615">
        <ele>122.2</ele>
        <time>2015-11-09T13:24:30.415Z</time>
      </trkpt>
      <trkpt lat="49.43124" lon="3.61617">
        <ele>122.3</ele>
        <time>2015-11-09T13:24:31.426Z</time>
      </trkpt>
      <trkpt lat="49.43121" lon="3.6163">
        <ele>120.5</ele>
        <time>2015-11-09T13:24:38.443Z</time>
      </trkpt>
      <trkpt lat="49.43121" lon="3.61632">
        <ele>120.3</ele>
        <time>2015-11-09T13:24:39.428Z</time>
      </trkpt>
      <trkpt lat="49.43117" lon="3.61645">
        <ele>119.4</ele>
        <time>2015-11-09T13:24:47.439Z</time>
      </trkpt>
      <trkpt lat="49.43117" lon="3.61646">
        <ele>119.4</ele>
        <time>2015-11-09T13:24:48.427Z</time>
      </trkpt>
      <trkpt lat="49.43113" lon="3.61658">
        <ele>119.8</ele>
        <time>2015-11-09T13:24:55.485Z</time>
      </trkpt>
      <trkpt lat="49.43112" lon="3.61659">
        <ele>119.8</ele>
        <time>2015-11-09T13:24:56.429Z</time>
      </trkpt>
      <trkpt lat="49.43104" lon="3.61664">
        <ele>120</ele>
        <time>2015-11-09T13:25:05.432Z</time>
      </trkpt>
      <trkpt lat="49.43103" lon="3.61665">
        <ele>119.5</ele>
        <time>2015-11-09T13:25:06.427Z</time>
      </trkpt>
      <trkpt lat="49.43096" lon="3.61672">
        <ele>119.5</ele>
        <time>2015-11-09T13:25:15.471Z</time>
      </trkpt>
      <trkpt lat="49.43096" lon="3.61674">
        <ele>119.5</ele>
        <time>2015-11-09T13:25:16.358Z</time>
      </trkpt>
      <trkpt lat="49.43092" lon="3.61685">
        <ele>119.8</ele>
        <time>2015-11-09T13:25:24.498Z</time>
      </trkpt>
      <trkpt lat="49.43091" lon="3.61686">
        <ele>119.7</ele>
        <time>2015-11-09T13:25:25.374Z</time>
      </trkpt>
      <trkpt lat="49.43086" lon="3.61697">
        <ele>119.2</ele>
        <time>2015-11-09T13:25:32.447Z</time>
      </trkpt>
      <trkpt lat="49.43085" lon="3.61698">
        <ele>119.2</ele>
        <time>2015-11-09T13:25:33.457Z</time>
      </trkpt>
      <trkpt lat="49.43079" lon="3.61708">
        <ele>118.3</ele>
        <time>2015-11-09T13:25:41.465Z</time>
      </trkpt>
      <trkpt lat="49.43078" lon="3.61709">
        <ele>118.3</ele>
        <time>2015-11-09T13:25:42.456Z</time>
      </trkpt>
      <trkpt lat="49.43072" lon="3.61719">
        <ele>117.8</ele>
        <time>2015-11-09T13:25:49.531Z</time>
      </trkpt>
      <trkpt lat="49.43071" lon="3.6172">
        <ele>117.7</ele>
        <time>2015-11-09T13:25:50.410Z</time>
      </trkpt>
      <trkpt lat="49.43069" lon="3.61732">
        <ele>115.8</ele>
        <time>2015-11-09T13:26:00.432Z</time>
      </trkpt>
      <trkpt lat="49.43068" lon="3.61733">
        <ele>115.6</ele>
        <time>2015-11-09T13:26:01.416Z</time>
      </trkpt>
      <trkpt lat="49.43065" lon="3.61745">
        <ele>115.7</ele>
        <time>2015-11-09T13:26:08.385Z</time>
      </trkpt>
      <trkpt lat="49.43065" lon="3.61746">
        <ele>115.7</ele>
        <time>2015-11-09T13:26:09.394Z</time>
      </trkpt>
      <trkpt lat="49.43061" lon="3.61757">
        <ele>114.8</ele>
        <time>2015-11-09T13:26:15.628Z</time>
      </trkpt>
      <trkpt lat="49.4306" lon="3.61758">
        <ele>114.7</ele>
        <time>2015-11-09T13:26:16.376Z</time>
      </trkpt>
      <trkpt lat="49.43056" lon="3.6177">
        <ele>114.5</ele>
        <time>2015-11-09T13:26:23.372Z</time>
      </trkpt>
      <trkpt lat="49.43055" lon="3.61772">
        <ele>114.6</ele>
        <time>2015-11-09T13:26:24.405Z</time>
      </trkpt>
      <trkpt lat="49.43052" lon="3.61784">
        <ele>114.7</ele>
        <time>2015-11-09T13:26:31.444Z</time>
      </trkpt>
      <trkpt lat="49.43051" lon="3.61786">
        <ele>114.6</ele>
        <time>2015-11-09T13:26:32.422Z</time>
      </trkpt>
      <trkpt lat="49.43047" lon="3.61798">
        <ele>114.4</ele>
        <time>2015-11-09T13:26:39.395Z</time>
      </trkpt>
      <trkpt lat="49.43046" lon="3.618">
        <ele>114.5</ele>
        <time>2015-11-09T13:26:40.382Z</time>
      </trkpt>
      <trkpt lat="49.43043" lon="3.61811">
        <ele>114.2</ele>
        <time>2015-11-09T13:26:47.466Z</time>
      </trkpt>
      <trkpt lat="49.43042" lon="3.61812">
        <ele>114.1</ele>
        <time>2015-11-09T13:26:48.452Z</time>
      </trkpt>
      <trkpt lat="49.43037" lon="3.61824">
        <ele>113.8</ele>
        <time>2015-11-09T13:26:55.433Z</time>
      </trkpt>
      <trkpt lat="49.43037" lon="3.61825">
        <ele>113.8</ele>
        <time>2015-11-09T13:26:56.426Z</time>
      </trkpt>
      <trkpt lat="49.43032" lon="3.61836">
        <ele>113.8</ele>
        <time>2015-11-09T13:27:03.555Z</time>
      </trkpt>
      <trkpt lat="49.43031" lon="3.61837">
        <ele>113.7</ele>
        <time>2015-11-09T13:27:04.438Z</time>
      </trkpt>
      <trkpt lat="49.43026" lon="3.61848">
        <ele>113.5</ele>
        <time>2015-11-09T13:27:12.431Z</time>
      </trkpt>
      <trkpt lat="49.43025" lon="3.61849">
        <ele>113.4</ele>
        <time>2015-11-09T13:27:13.425Z</time>
      </trkpt>
      <trkpt lat="49.4302" lon="3.61859">
        <ele>113.4</ele>
        <time>2015-11-09T13:27:21.403Z</time>
      </trkpt>
      <trkpt lat="49.43019" lon="3.6186">
        <ele>113.4</ele>
        <time>2015-11-09T13:27:22.386Z</time>
      </trkpt>
      <trkpt lat="49.43013" lon="3.61871">
        <ele>113.3</ele>
        <time>2015-11-09T13:27:29.382Z</time>
      </trkpt>
      <trkpt lat="49.43013" lon="3.61872">
        <ele>113.3</ele>
        <time>2015-11-09T13:27:30.405Z</time>
      </trkpt>
      <trkpt lat="49.43007" lon="3.61882">
        <ele>113.3</ele>
        <time>2015-11-09T13:27:37.414Z</time>
      </trkpt>
      <trkpt lat="49.43006" lon="3.61884">
        <ele>113.4</ele>
        <time>2015-11-09T13:27:38.359Z</time>
      </trkpt>
      <trkpt lat="49.43" lon="3.61892">
        <ele>112.9</ele>
        <time>2015-11-09T13:27:44.441Z</time>
      </trkpt>
      <trkpt lat="49.43" lon="3.61894">
        <ele>113</ele>
        <time>2015-11-09T13:27:45.437Z</time>
      </trkpt>
      <trkpt lat="49.42993" lon="3.61903">
        <ele>113.4</ele>
        <time>2015-11-09T13:27:52.416Z</time>
      </trkpt>
      <trkpt lat="49.42993" lon="3.61904">
        <ele>113.4</ele>
        <time>2015-11-09T13:27:53.395Z</time>
      </trkpt>
      <trkpt lat="49.42986" lon="3.61913">
        <ele>113.1</ele>
        <time>2015-11-09T13:28:01.445Z</time>
      </trkpt>
      <trkpt lat="49.42986" lon="3.61914">
        <ele>113</ele>
        <time>2015-11-09T13:28:02.427Z</time>
      </trkpt>
      <trkpt lat="49.42979" lon="3.61923">
        <ele>112.8</ele>
        <time>2015-11-09T13:28:10.461Z</time>
      </trkpt>
      <trkpt lat="49.42978" lon="3.61924">
        <ele>112.8</ele>
        <time>2015-11-09T13:28:11.445Z</time>
      </trkpt>
      <trkpt lat="49.42972" lon="3.61932">
        <ele>112.9</ele>
        <time>2015-11-09T13:28:18.447Z</time>
      </trkpt>
      <trkpt lat="49.42971" lon="3.61933">
        <ele>113</ele>
        <time>2015-11-09T13:28:19.426Z</time>
      </trkpt>
      <trkpt lat="49.42964" lon="3.61941">
        <ele>113</ele>
        <time>2015-11-09T13:28:27.385Z</time>
      </trkpt>
      <trkpt lat="49.42963" lon="3.61942">
        <ele>113.1</ele>
        <time>2015-11-09T13:28:28.382Z</time>
      </trkpt>
      <trkpt lat="49.42956" lon="3.61949">
        <ele>112.6</ele>
        <time>2015-11-09T13:28:35.501Z</time>
      </trkpt>
      <trkpt lat="49.42955" lon="3.6195">
        <ele>112.5</ele>
        <time>2015-11-09T13:28:36.476Z</time>
      </trkpt>
      <trkpt lat="49.42947" lon="3.61956">
        <ele>112.2</ele>
        <time>2015-11-09T13:28:42.447Z</time>
      </trkpt>
      <trkpt lat="49.42946" lon="3.61957">
        <ele>112.3</ele>
        <time>2015-11-09T13:28:43.443Z</time>
      </trkpt>
      <trkpt lat="49.42939" lon="3.61964">
        <ele>112.4</ele>
        <time>2015-11-09T13:28:51.415Z</time>
      </trkpt>
      <trkpt lat="49.42938" lon="3.61965">
        <ele>112.4</ele>
        <time>2015-11-09T13:28:52.410Z</time>
      </trkpt>
      <trkpt lat="49.42931" lon="3.61972">
        <ele>112.3</ele>
        <time>2015-11-09T13:28:59.488Z</time>
      </trkpt>
      <trkpt lat="49.4293" lon="3.61973">
        <ele>112.3</ele>
        <time>2015-11-09T13:29:00.494Z</time>
      </trkpt>
      <trkpt lat="49.42922" lon="3.61979">
        <ele>111.9</ele>
        <time>2015-11-09T13:29:08.402Z</time>
      </trkpt>
      <trkpt lat="49.42921" lon="3.6198">
        <ele>111.9</ele>
        <time>2015-11-09T13:29:09.379Z</time>
      </trkpt>
      <trkpt lat="49.42913" lon="3.61985">
        <ele>111.5</ele>
        <time>2015-11-09T13:29:16.388Z</time>
      </trkpt>
      <trkpt lat="49.42912" lon="3.61986">
        <ele>111.4</ele>
        <time>2015-11-09T13:29:17.371Z</time>
      </trkpt>
      <trkpt lat="49.42904" lon="3.61991">
        <ele>111.2</ele>
        <time>2015-11-09T13:29:23.406Z</time>
      </trkpt>
      <trkpt lat="49.42903" lon="3.61992">
        <ele>111.3</ele>
        <time>2015-11-09T13:29:24.439Z</time>
      </trkpt>
      <trkpt lat="49.42895" lon="3.61997">
        <ele>111.8</ele>
        <time>2015-11-09T13:29:31.452Z</time>
      </trkpt>
      <trkpt lat="49.42894" lon="3.61997">
        <ele>111.8</ele>
        <time>2015-11-09T13:29:32.443Z</time>
      </trkpt>
      <trkpt lat="49.42886" lon="3.62">
        <ele>112.3</ele>
        <time>2015-11-09T13:29:38.480Z</time>
      </trkpt>
      <trkpt lat="49.42885" lon="3.62">
        <ele>112.4</ele>
        <time>2015-11-09T13:29:39.458Z</time>
      </trkpt>
      <trkpt lat="49.42877" lon="3.62004">
        <ele>113</ele>
        <time>2015-11-09T13:29:46.511Z</time>
      </trkpt>
      <trkpt lat="49.42876" lon="3.62004">
        <ele>113.1</ele>
        <time>2015-11-09T13:29:47.374Z</time>
      </trkpt>
      <trkpt lat="49.42868" lon="3.62007">
        <ele>113</ele>
        <time>2015-11-09T13:29:54.454Z</time>
      </trkpt>
      <trkpt lat="49.42867" lon="3.62008">
        <ele>113</ele>
        <time>2015-11-09T13:29:55.458Z</time>
      </trkpt>
      <trkpt lat="49.42859" lon="3.62011">
        <ele>113.1</ele>
        <time>2015-11-09T13:30:02.485Z</time>
      </trkpt>
      <trkpt lat="49.42858" lon="3.62012">
        <ele>113.1</ele>
        <time>2015-11-09T13:30:03.382Z</time>
      </trkpt>
      <trkpt lat="49.42849" lon="3.62015">
        <ele>113.3</ele>
        <time>2015-11-09T13:30:10.489Z</time>
      </trkpt>
      <trkpt lat="49.42848" lon="3.62015">
        <ele>113.4</ele>
        <time>2015-11-09T13:30:11.379Z</time>
      </trkpt>
      <trkpt lat="49.4284" lon="3.62018">
        <ele>113.4</ele>
        <time>2015-11-09T13:30:17.450Z</time>
      </trkpt>
      <trkpt lat="49.42839" lon="3.62018">
        <ele>113.3</ele>
        <time>2015-11-09T13:30:18.437Z</time>
      </trkpt>
      <trkpt lat="49.4283" lon="3.62021">
        <ele>112.8</ele>
        <time>2015-11-09T13:30:26.482Z</time>
      </trkpt>
      <trkpt lat="49.42829" lon="3.62022">
        <ele>112.9</ele>
        <time>2015-11-09T13:30:27.465Z</time>
      </trkpt>
      <trkpt lat="49.4282" lon="3.62023">
        <ele>113.4</ele>
        <time>2015-11-09T13:30:34.387Z</time>
      </trkpt>
      <trkpt lat="49.42819" lon="3.62024">
        <ele>113.4</ele>
        <time>2015-11-09T13:30:35.378Z</time>
      </trkpt>
      <trkpt lat="49.42811" lon="3.62026">
        <ele>113.6</ele>
        <time>2015-11-09T13:30:42.505Z</time>
      </trkpt>
      <trkpt lat="49.42809" lon="3.62027">
        <ele>113.7</ele>
        <time>2015-11-09T13:30:43.376Z</time>
      </trkpt>
      <trkpt lat="49.42801" lon="3.62029">
        <ele>114.1</ele>
        <time>2015-11-09T13:30:50.470Z</time>
      </trkpt>
      <trkpt lat="49.428" lon="3.62029">
        <ele>113.9</ele>
        <time>2015-11-09T13:30:51.451Z</time>
      </trkpt>
      <trkpt lat="49.42792" lon="3.62032">
        <ele>114.1</ele>
        <time>2015-11-09T13:30:58.430Z</time>
      </trkpt>
      <trkpt lat="49.42791" lon="3.62032">
        <ele>114.1</ele>
        <time>2015-11-09T13:30:59.427Z</time>
      </trkpt>
      <trkpt lat="49.42782" lon="3.62034">
        <ele>114.3</ele>
        <time>2015-11-09T13:31:06.463Z</time>
      </trkpt>
      <trkpt lat="49.42781" lon="3.62034">
        <ele>114.4</ele>
        <time>2015-11-09T13:31:07.431Z</time>
      </trkpt>
      <trkpt lat="49.42773" lon="3.62036">
        <ele>114.6</ele>
        <time>2015-11-09T13:31:14.400Z</time>
      </trkpt>
      <trkpt lat="49.42772" lon="3.62036">
        <ele>114.6</ele>
        <time>2015-11-09T13:31:15.387Z</time>
      </trkpt>
      <trkpt lat="49.42763" lon="3.62039">
        <ele>114.6</ele>
        <time>2015-11-09T13:31:23.407Z</time>
      </trkpt>
      <trkpt lat="49.42762" lon="3.62039">
        <ele>114.7</ele>
        <time>2015-11-09T13:31:24.427Z</time>
      </trkpt>
      <trkpt lat="49.42755" lon="3.62043">
        <ele>114.9</ele>
        <time>2015-11-09T13:31:32.471Z</time>
      </trkpt>
      <trkpt lat="49.42753" lon="3.62043">
        <ele>114.9</ele>
        <time>2015-11-09T13:31:33.457Z</time>
      </trkpt>
      <trkpt lat="49.42746" lon="3.62044">
        <ele>115.5</ele>
        <time>2015-11-09T13:31:39.470Z</time>
      </trkpt>
      <trkpt lat="49.42744" lon="3.62044">
        <ele>115.5</ele>
        <time>2015-11-09T13:31:40.469Z</time>
      </trkpt>
      <trkpt lat="49.42736" lon="3.62047">
        <ele>115.4</ele>
        <time>2015-11-09T13:31:47.450Z</time>
      </trkpt>
      <trkpt lat="49.42735" lon="3.62047">
        <ele>115.4</ele>
        <time>2015-11-09T13:31:48.440Z</time>
      </trkpt>
      <trkpt lat="49.42726" lon="3.6205">
        <ele>114.7</ele>
        <time>2015-11-09T13:31:55.464Z</time>
      </trkpt>
      <trkpt lat="49.42725" lon="3.6205">
        <ele>114.6</ele>
        <time>2015-11-09T13:31:56.452Z</time>
      </trkpt>
      <trkpt lat="49.42717" lon="3.62054">
        <ele>114.5</ele>
        <time>2015-11-09T13:32:03.474Z</time>
      </trkpt>
      <trkpt lat="49.42716" lon="3.62054">
        <ele>114.5</ele>
        <time>2015-11-09T13:32:04.466Z</time>
      </trkpt>
      <trkpt lat="49.42708" lon="3.62055">
        <ele>114.5</ele>
        <time>2015-11-09T13:32:11.441Z</time>
      </trkpt>
      <trkpt lat="49.42706" lon="3.62055">
        <ele>114.4</ele>
        <time>2015-11-09T13:32:12.428Z</time>
      </trkpt>
      <trkpt lat="49.42698" lon="3.62056">
        <ele>114.4</ele>
        <time>2015-11-09T13:32:19.440Z</time>
      </trkpt>
      <trkpt lat="49.42697" lon="3.62056">
        <ele>114.4</ele>
        <time>2015-11-09T13:32:20.457Z</time>
      </trkpt>
      <trkpt lat="49.42688" lon="3.62058">
        <ele>113.7</ele>
        <time>2015-11-09T13:32:28.396Z</time>
      </trkpt>
      <trkpt lat="49.42687" lon="3.62059">
        <ele>113.8</ele>
        <time>2015-11-09T13:32:29.379Z</time>
      </trkpt>
      <trkpt lat="49.42678" lon="3.6206">
        <ele>114.1</ele>
        <time>2015-11-09T13:32:36.464Z</time>
      </trkpt>
      <trkpt lat="49.42677" lon="3.62061">
        <ele>114.1</ele>
        <time>2015-11-09T13:32:37.437Z</time>
      </trkpt>
      <trkpt lat="49.42668" lon="3.62063">
        <ele>114.5</ele>
        <time>2015-11-09T13:32:47.498Z</time>
      </trkpt>
      <trkpt lat="49.42667" lon="3.62064">
        <ele>114.5</ele>
        <time>2015-11-09T13:32:48.485Z</time>
      </trkpt>
      <trkpt lat="49.42658" lon="3.62066">
        <ele>114.4</ele>
        <time>2015-11-09T13:32:55.485Z</time>
      </trkpt>
      <trkpt lat="49.42657" lon="3.62067">
        <ele>114.5</ele>
        <time>2015-11-09T13:32:56.458Z</time>
      </trkpt>
      <trkpt lat="49.42648" lon="3.62069">
        <ele>113.8</ele>
        <time>2015-11-09T13:33:03.485Z</time>
      </trkpt>
      <trkpt lat="49.42647" lon="3.62069">
        <ele>113.8</ele>
        <time>2015-11-09T13:33:04.377Z</time>
      </trkpt>
      <trkpt lat="49.42639" lon="3.62071">
        <ele>114</ele>
        <time>2015-11-09T13:33:10.426Z</time>
      </trkpt>
      <trkpt lat="49.42638" lon="3.62071">
        <ele>114.2</ele>
        <time>2015-11-09T13:33:11.409Z</time>
      </trkpt>
      <trkpt lat="49.4263" lon="3.62074">
        <ele>114.3</ele>
        <time>2015-11-09T13:33:18.450Z</time>
      </trkpt>
      <trkpt lat="49.42628" lon="3.62074">
        <ele>114.2</ele>
        <time>2015-11-09T13:33:19.440Z</time>
      </trkpt>
      <trkpt lat="49.42621" lon="3.62076">
        <ele>113.8</ele>
        <time>2015-11-09T13:33:25.465Z</time>
      </trkpt>
      <trkpt lat="49.4262" lon="3.62076">
        <ele>113.7</ele>
        <time>2015-11-09T13:33:26.440Z</time>
      </trkpt>
      <trkpt lat="49.42612" lon="3.62078">
        <ele>113.7</ele>
        <time>2015-11-09T13:33:33.483Z</time>
      </trkpt>
      <trkpt lat="49.4261" lon="3.62079">
        <ele>113.7</ele>
        <time>2015-11-09T13:33:34.471Z</time>
      </trkpt>
      <trkpt lat="49.42602" lon="3.62082">
        <ele>113.6</ele>
        <time>2015-11-09T13:33:41.484Z</time>
      </trkpt>
      <trkpt lat="49.42601" lon="3.62082">
        <ele>113.7</ele>
        <time>2015-11-09T13:33:42.476Z</time>
      </trkpt>
      <trkpt lat="49.42593" lon="3.62084">
        <ele>113.9</ele>
        <time>2015-11-09T13:33:49.465Z</time>
      </trkpt>
      <trkpt lat="49.42592" lon="3.62085">
        <ele>113.9</ele>
        <time>2015-11-09T13:33:50.448Z</time>
      </trkpt>
      <trkpt lat="49.42584" lon="3.62087">
        <ele>113.1</ele>
        <time>2015-11-09T13:33:57.471Z</time>
      </trkpt>
      <trkpt lat="49.42583" lon="3.62087">
        <ele>113.1</ele>
        <time>2015-11-09T13:33:58.470Z</time>
      </trkpt>
      <trkpt lat="49.42575" lon="3.62089">
        <ele>113</ele>
        <time>2015-11-09T13:34:04.402Z</time>
      </trkpt>
      <trkpt lat="49.42574" lon="3.6209">
        <ele>113.1</ele>
        <time>2015-11-09T13:34:05.395Z</time>
      </trkpt>
      <trkpt lat="49.42566" lon="3.62093">
        <ele>112.9</ele>
        <time>2015-11-09T13:34:12.523Z</time>
      </trkpt>
      <trkpt lat="49.42564" lon="3.62093">
        <ele>112.9</ele>
        <time>2015-11-09T13:34:13.373Z</time>
      </trkpt>
      <trkpt lat="49.42557" lon="3.62096">
        <ele>113</ele>
        <time>2015-11-09T13:34:19.472Z</time>
      </trkpt>
      <trkpt lat="49.42555" lon="3.62096">
        <ele>113</ele>
        <time>2015-11-09T13:34:20.456Z</time>
      </trkpt>
      <trkpt lat="49.42547" lon="3.62099">
        <ele>113</ele>
        <time>2015-11-09T13:34:26.476Z</time>
      </trkpt>
      <trkpt lat="49.42546" lon="3.621">
        <ele>113</ele>
        <time>2015-11-09T13:34:27.454Z</time>
      </trkpt>
      <trkpt lat="49.42538" lon="3.62102">
        <ele>112.9</ele>
        <time>2015-11-09T13:34:33.744Z</time>
      </trkpt>
      <trkpt lat="49.42537" lon="3.62102">
        <ele>113</ele>
        <time>2015-11-09T13:34:34.406Z</time>
      </trkpt>
      <trkpt lat="49.42528" lon="3.62104">
        <ele>112.9</ele>
        <time>2015-11-09T13:34:42.454Z</time>
      </trkpt>
      <trkpt lat="49.42527" lon="3.62104">
        <ele>112.9</ele>
        <time>2015-11-09T13:34:43.444Z</time>
      </trkpt>
      <trkpt lat="49.42518" lon="3.62105">
        <ele>112.6</ele>
        <time>2015-11-09T13:34:49.447Z</time>
      </trkpt>
      <trkpt lat="49.42517" lon="3.62105">
        <ele>112.5</ele>
        <time>2015-11-09T13:34:50.444Z</time>
      </trkpt>
      <trkpt lat="49.42508" lon="3.62106">
        <ele>111.2</ele>
        <time>2015-11-09T13:34:57.477Z</time>
      </trkpt>
      <trkpt lat="49.42507" lon="3.62107">
        <ele>111.2</ele>
        <time>2015-11-09T13:34:58.468Z</time>
      </trkpt>
      <trkpt lat="49.42498" lon="3.62108">
        <ele>110.4</ele>
        <time>2015-11-09T13:35:05.387Z</time>
      </trkpt>
      <trkpt lat="49.42497" lon="3.62108">
        <ele>110.5</ele>
        <time>2015-11-09T13:35:06.431Z</time>
      </trkpt>
      <trkpt lat="49.42489" lon="3.62108">
        <ele>111.3</ele>
        <time>2015-11-09T13:35:13.459Z</time>
      </trkpt>
      <trkpt lat="49.42488" lon="3.62108">
        <ele>111.4</ele>
        <time>2015-11-09T13:35:14.457Z</time>
      </trkpt>
      <trkpt lat="49.42479" lon="3.62109">
        <ele>111.6</ele>
        <time>2015-11-09T13:35:24.460Z</time>
      </trkpt>
      <trkpt lat="49.42478" lon="3.62109">
        <ele>111.6</ele>
        <time>2015-11-09T13:35:25.435Z</time>
      </trkpt>
      <trkpt lat="49.42469" lon="3.62109">
        <ele>112.1</ele>
        <time>2015-11-09T13:35:33.480Z</time>
      </trkpt>
      <trkpt lat="49.42468" lon="3.62109">
        <ele>112.2</ele>
        <time>2015-11-09T13:35:34.463Z</time>
      </trkpt>
      <trkpt lat="49.42459" lon="3.6211">
        <ele>112.7</ele>
        <time>2015-11-09T13:35:40.470Z</time>
      </trkpt>
      <trkpt lat="49.42457" lon="3.6211">
        <ele>112.8</ele>
        <time>2015-11-09T13:35:41.380Z</time>
      </trkpt>
      <trkpt lat="49.42448" lon="3.6211">
        <ele>112.9</ele>
        <time>2015-11-09T13:35:47.404Z</time>
      </trkpt>
      <trkpt lat="49.42447" lon="3.6211">
        <ele>112.9</ele>
        <time>2015-11-09T13:35:48.436Z</time>
      </trkpt>
      <trkpt lat="49.42439" lon="3.6211">
        <ele>112.9</ele>
        <time>2015-11-09T13:35:54.439Z</time>
      </trkpt>
      <trkpt lat="49.42438" lon="3.6211">
        <ele>112.9</ele>
        <time>2015-11-09T13:35:55.439Z</time>
      </trkpt>
      <trkpt lat="49.4243" lon="3.6211">
        <ele>113.2</ele>
        <time>2015-11-09T13:36:01.462Z</time>
      </trkpt>
      <trkpt lat="49.42429" lon="3.6211">
        <ele>113.2</ele>
        <time>2015-11-09T13:36:02.453Z</time>
      </trkpt>
      <trkpt lat="49.4242" lon="3.6211">
        <ele>113.4</ele>
        <time>2015-11-09T13:36:09.401Z</time>
      </trkpt>
      <trkpt lat="49.42418" lon="3.62109">
        <ele>113.4</ele>
        <time>2015-11-09T13:36:10.413Z</time>
      </trkpt>
      <trkpt lat="49.42409" lon="3.62109">
        <ele>113.5</ele>
        <time>2015-11-09T13:36:17.432Z</time>
      </trkpt>
      <trkpt lat="49.42408" lon="3.62109">
        <ele>113.5</ele>
        <time>2015-11-09T13:36:18.434Z</time>
      </trkpt>
      <trkpt lat="49.424" lon="3.62108">
        <ele>113.9</ele>
        <time>2015-11-09T13:36:25.488Z</time>
      </trkpt>
      <trkpt lat="49.42399" lon="3.62108">
        <ele>114</ele>
        <time>2015-11-09T13:36:26.449Z</time>
      </trkpt>
      <trkpt lat="49.42391" lon="3.62107">
        <ele>114.7</ele>
        <time>2015-11-09T13:36:32.490Z</time>
      </trkpt>
      <trkpt lat="49.42389" lon="3.62106">
        <ele>114.7</ele>
        <time>2015-11-09T13:36:33.377Z</time>
      </trkpt>
      <trkpt lat="49.4238" lon="3.62105">
        <ele>115.1</ele>
        <time>2015-11-09T13:36:40.489Z</time>
      </trkpt>
      <trkpt lat="49.42379" lon="3.62105">
        <ele>115.2</ele>
        <time>2015-11-09T13:36:41.376Z</time>
      </trkpt>
      <trkpt lat="49.4237" lon="3.62103">
        <ele>115.5</ele>
        <time>2015-11-09T13:36:48.445Z</time>
      </trkpt>
      <trkpt lat="49.42369" lon="3.62102">
        <ele>115.4</ele>
        <time>2015-11-09T13:36:49.435Z</time>
      </trkpt>
      <trkpt lat="49.4236" lon="3.62101">
        <ele>115.4</ele>
        <time>2015-11-09T13:36:56.424Z</time>
      </trkpt>
      <trkpt lat="49.42359" lon="3.621">
        <ele>115.4</ele>
        <time>2015-11-09T13:36:57.403Z</time>
      </trkpt>
      <trkpt lat="49.4235" lon="3.62099">
        <ele>115</ele>
        <time>2015-11-09T13:37:04.397Z</time>
      </trkpt>
      <trkpt lat="49.42349" lon="3.62099">
        <ele>114.9</ele>
        <time>2015-11-09T13:37:05.387Z</time>
      </trkpt>
      <trkpt lat="49.42341" lon="3.62096">
        <ele>114.7</ele>
        <time>2015-11-09T13:37:12.457Z</time>
      </trkpt>
      <trkpt lat="49.4234" lon="3.62096">
        <ele>114.8</ele>
        <time>2015-11-09T13:37:13.436Z</time>
      </trkpt>
      <trkpt lat="49.42332" lon="3.62092">
        <ele>115.5</ele>
        <time>2015-11-09T13:37:20.478Z</time>
      </trkpt>
      <trkpt lat="49.42331" lon="3.62092">
        <ele>115.6</ele>
        <time>2015-11-09T13:37:21.458Z</time>
      </trkpt>
      <trkpt lat="49.42323" lon="3.62089">
        <ele>115.9</ele>
        <time>2015-11-09T13:37:28.396Z</time>
      </trkpt>
      <trkpt lat="49.42321" lon="3.62089">
        <ele>115.9</ele>
        <time>2015-11-09T13:37:29.386Z</time>
      </trkpt>
      <trkpt lat="49.42313" lon="3.62086">
        <ele>115.7</ele>
        <time>2015-11-09T13:37:36.452Z</time>
      </trkpt>
      <trkpt lat="49.42312" lon="3.62086">
        <ele>115.6</ele>
        <time>2015-11-09T13:37:37.436Z</time>
      </trkpt>
      <trkpt lat="49.42304" lon="3.62082">
        <ele>115.2</ele>
        <time>2015-11-09T13:37:44.465Z</time>
      </trkpt>
      <trkpt lat="49.42302" lon="3.62082">
        <ele>115.1</ele>
        <time>2015-11-09T13:37:45.458Z</time>
      </trkpt>
      <trkpt lat="49.42294" lon="3.62079">
        <ele>114.2</ele>
        <time>2015-11-09T13:37:53.420Z</time>
      </trkpt>
      <trkpt lat="49.42293" lon="3.62078">
        <ele>114.2</ele>
        <time>2015-11-09T13:37:54.440Z</time>
      </trkpt>
      <trkpt lat="49.42284" lon="3.62075">
        <ele>114.2</ele>
        <time>2015-11-09T13:38:01.471Z</time>
      </trkpt>
      <trkpt lat="49.42283" lon="3.62074">
        <ele>114.2</ele>
        <time>2015-11-09T13:38:02.379Z</time>
      </trkpt>
      <trkpt lat="49.42275" lon="3.6207">
        <ele>114.7</ele>
        <time>2015-11-09T13:38:09.492Z</time>
      </trkpt>
      <trkpt lat="49.42274" lon="3.62069">
        <ele>114.7</ele>
        <time>2015-11-09T13:38:10.387Z</time>
      </trkpt>
      <trkpt lat="49.42267" lon="3.62064">
        <ele>115.2</ele>
        <time>2015-11-09T13:38:16.397Z</time>
      </trkpt>
      <trkpt lat="49.42266" lon="3.62063">
        <ele>115.2</ele>
        <time>2015-11-09T13:38:17.378Z</time>
      </trkpt>
      <trkpt lat="49.42257" lon="3.62059">
        <ele>115.2</ele>
        <time>2015-11-09T13:38:24.457Z</time>
      </trkpt>
      <trkpt lat="49.42256" lon="3.62059">
        <ele>115.3</ele>
        <time>2015-11-09T13:38:25.449Z</time>
      </trkpt>
      <trkpt lat="49.42249" lon="3.62054">
        <ele>115.5</ele>
        <time>2015-11-09T13:38:30.450Z</time>
      </trkpt>
      <trkpt lat="49.42248" lon="3.62053">
        <ele>115.5</ele>
        <time>2015-11-09T13:38:31.467Z</time>
      </trkpt>
      <trkpt lat="49.4224" lon="3.62048">
        <ele>115.3</ele>
        <time>2015-11-09T13:38:37.400Z</time>
      </trkpt>
      <trkpt lat="49.4224" lon="3.62047">
        <ele>115.1</ele>
        <time>2015-11-09T13:38:38.382Z</time>
      </trkpt>
      <trkpt lat="49.42231" lon="3.62043">
        <ele>115</ele>
        <time>2015-11-09T13:38:46.395Z</time>
      </trkpt>
      <trkpt lat="49.4223" lon="3.62042">
        <ele>115</ele>
        <time>2015-11-09T13:38:47.382Z</time>
      </trkpt>
      <trkpt lat="49.42221" lon="3.62038">
        <ele>115.1</ele>
        <time>2015-11-09T13:38:55.460Z</time>
      </trkpt>
      <trkpt lat="49.4222" lon="3.62038">
        <ele>115</ele>
        <time>2015-11-09T13:38:56.447Z</time>
      </trkpt>
      <trkpt lat="49.42212" lon="3.62034">
        <ele>115.1</ele>
        <time>2015-11-09T13:39:03.433Z</time>
      </trkpt>
      <trkpt lat="49.42211" lon="3.62033">
        <ele>115.1</ele>
        <time>2015-11-09T13:39:04.418Z</time>
      </trkpt>
      <trkpt lat="49.42203" lon="3.62029">
        <ele>115.1</ele>
        <time>2015-11-09T13:39:11.426Z</time>
      </trkpt>
      <trkpt lat="49.42202" lon="3.62028">
        <ele>115.1</ele>
        <time>2015-11-09T13:39:12.452Z</time>
      </trkpt>
      <trkpt lat="49.42194" lon="3.62025">
        <ele>114.5</ele>
        <time>2015-11-09T13:39:19.459Z</time>
      </trkpt>
      <trkpt lat="49.42193" lon="3.62024">
        <ele>114.5</ele>
        <time>2015-11-09T13:39:20.446Z</time>
      </trkpt>
      <trkpt lat="49.42185" lon="3.6202">
        <ele>114.5</ele>
        <time>2015-11-09T13:39:27.486Z</time>
      </trkpt>
      <trkpt lat="49.42184" lon="3.62019">
        <ele>114.5</ele>
        <time>2015-11-09T13:39:28.376Z</time>
      </trkpt>
      <trkpt lat="49.42176" lon="3.62016">
        <ele>114.6</ele>
        <time>2015-11-09T13:39:35.526Z</time>
      </trkpt>
      <trkpt lat="49.42175" lon="3.62015">
        <ele>114.7</ele>
        <time>2015-11-09T13:39:36.524Z</time>
      </trkpt>
      <trkpt lat="49.42167" lon="3.62012">
        <ele>114.5</ele>
        <time>2015-11-09T13:39:43.452Z</time>
      </trkpt>
      <trkpt lat="49.42166" lon="3.62011">
        <ele>114.4</ele>
        <time>2015-11-09T13:39:44.365Z</time>
      </trkpt>
      <trkpt lat="49.42157" lon="3.62007">
        <ele>114.4</ele>
        <time>2015-11-09T13:39:51.388Z</time>
      </trkpt>
      <trkpt lat="49.42156" lon="3.62006">
        <ele>114.4</ele>
        <time>2015-11-09T13:39:52.387Z</time>
      </trkpt>
      <trkpt lat="49.42148" lon="3.62002">
        <ele>114.6</ele>
        <time>2015-11-09T13:39:59.432Z</time>
      </trkpt>
      <trkpt lat="49.42147" lon="3.62001">
        <ele>114.7</ele>
        <time>2015-11-09T13:40:00.437Z</time>
      </trkpt>
      <trkpt lat="49.42139" lon="3.61997">
        <ele>114.2</ele>
        <time>2015-11-09T13:40:07.384Z</time>
      </trkpt>
      <trkpt lat="49.42138" lon="3.61997">
        <ele>114.1</ele>
        <time>2015-11-09T13:40:08.379Z</time>
      </trkpt>
      <trkpt lat="49.4213" lon="3.61993">
        <ele>113.6</ele>
        <time>2015-11-09T13:40:15.503Z</time>
      </trkpt>
      <trkpt lat="49.42129" lon="3.61992">
        <ele>113.6</ele>
        <time>2015-11-09T13:40:16.473Z</time>
      </trkpt>
      <trkpt lat="49.4212" lon="3.61988">
        <ele>113</ele>
        <time>2015-11-09T13:40:24.454Z</time>
      </trkpt>
      <trkpt lat="49.42119" lon="3.61988">
        <ele>112.9</ele>
        <time>2015-11-09T13:40:25.452Z</time>
      </trkpt>
      <trkpt lat="49.42111" lon="3.61983">
        <ele>112.7</ele>
        <time>2015-11-09T13:40:32.515Z</time>
      </trkpt>
      <trkpt lat="49.4211" lon="3.61983">
        <ele>112.6</ele>
        <time>2015-11-09T13:40:33.388Z</time>
      </trkpt>
      <trkpt lat="49.42102" lon="3.61979">
        <ele>112.4</ele>
        <time>2015-11-09T13:40:39.489Z</time>
      </trkpt>
      <trkpt lat="49.42101" lon="3.61978">
        <ele>112.5</ele>
        <time>2015-11-09T13:40:40.371Z</time>
      </trkpt>
      <trkpt lat="49.42093" lon="3.61972">
        <ele>112.1</ele>
        <time>2015-11-09T13:40:46.444Z</time>
      </trkpt>
      <trkpt lat="49.42092" lon="3.61971">
        <ele>112</ele>
        <time>2015-11-09T13:40:47.429Z</time>
      </trkpt>
      <trkpt lat="49.42084" lon="3.61967">
        <ele>111.9</ele>
        <time>2015-11-09T13:40:54.445Z</time>
      </trkpt>
      <trkpt lat="49.42083" lon="3.61966">
        <ele>111.9</ele>
        <time>2015-11-09T13:40:55.445Z</time>
      </trkpt>
      <trkpt lat="49.42075" lon="3.61961">
        <ele>112</ele>
        <time>2015-11-09T13:41:02.489Z</time>
      </trkpt>
      <trkpt lat="49.42074" lon="3.6196">
        <ele>112</ele>
        <time>2015-11-09T13:41:03.471Z</time>
      </trkpt>
      <trkpt lat="49.42066" lon="3.61956">
        <ele>112</ele>
        <time>2015-11-09T13:41:10.414Z</time>
      </trkpt>
      <trkpt lat="49.42065" lon="3.61956">
        <ele>111.9</ele>
        <time>2015-11-09T13:41:11.411Z</time>
      </trkpt>
      <trkpt lat="49.42057" lon="3.61953">
        <ele>111.9</ele>
        <time>2015-11-09T13:41:18.512Z</time>
      </trkpt>
      <trkpt lat="49.42056" lon="3.61952">
        <ele>111.9</ele>
        <time>2015-11-09T13:41:19.382Z</time>
      </trkpt>
      <trkpt lat="49.42047" lon="3.61946">
        <ele>112.1</ele>
        <time>2015-11-09T13:41:26.494Z</time>
      </trkpt>
      <trkpt lat="49.42046" lon="3.61946">
        <ele>112.2</ele>
        <time>2015-11-09T13:41:27.403Z</time>
      </trkpt>
      <trkpt lat="49.42038" lon="3.61941">
        <ele>112.1</ele>
        <time>2015-11-09T13:41:34.408Z</time>
      </trkpt>
      <trkpt lat="49.42037" lon="3.6194">
        <ele>112.1</ele>
        <time>2015-11-09T13:41:35.406Z</time>
      </trkpt>
      <trkpt lat="49.42029" lon="3.61935">
        <ele>112</ele>
        <time>2015-11-09T13:41:43.465Z</time>
      </trkpt>
      <trkpt lat="49.42029" lon="3.61934">
        <ele>111.9</ele>
        <time>2015-11-09T13:41:44.461Z</time>
      </trkpt>
      <trkpt lat="49.4202" lon="3.61936">
        <ele>112.1</ele>
        <time>2015-11-09T13:41:52.424Z</time>
      </trkpt>
      <trkpt lat="49.4202" lon="3.61937">
        <ele>112.1</ele>
        <time>2015-11-09T13:41:53.410Z</time>
      </trkpt>
      <trkpt lat="49.4202" lon="3.61937">
        <ele>112.1</ele>
        <time>2015-11-09T13:41:53.437Z</time>
      </trkpt>
      <trkpt lat="49.4202" lon="3.61937">
        <ele>112.1</ele>
        <time>2015-11-09T13:41:54.433Z</time>
      </trkpt>
      <trkpt lat="49.42017" lon="3.61924">
        <ele>112.7</ele>
        <time>2015-11-09T13:43:02.450Z</time>
      </trkpt>
      <trkpt lat="49.42017" lon="3.61924">
        <ele>112.4</ele>
        <time>2015-11-09T13:43:03.423Z</time>
      </trkpt>
      <trkpt lat="49.42017" lon="3.61924">
        <ele>112.4</ele>
        <time>2015-11-09T13:43:03.439Z</time>
      </trkpt>
      <trkpt lat="49.42018" lon="3.61923">
        <ele>112.5</ele>
        <time>2015-11-09T13:43:43.485Z</time>
      </trkpt>
      <trkpt lat="49.42016" lon="3.61925">
        <ele>113.1</ele>
        <time>2015-11-09T13:43:44.459Z</time>
      </trkpt>
      <trkpt lat="49.42016" lon="3.61925">
        <ele>114.2</ele>
        <time>2015-11-09T13:45:45.516Z</time>
      </trkpt>
      <trkpt lat="49.42016" lon="3.61924">
        <ele>114.3</ele>
        <time>2015-11-09T13:45:46.473Z</time>
      </trkpt>
      <trkpt lat="49.42016" lon="3.61924">
        <ele>114.3</ele>
        <time>2015-11-09T13:48:00.512Z</time>
      </trkpt>
      <trkpt lat="49.42015" lon="3.61927">
        <ele>112</ele>
        <time>2015-11-09T13:48:01.385Z</time>
      </trkpt>
      <trkpt lat="49.42013" lon="3.61932">
        <ele>111.4</ele>
        <time>2015-11-09T13:48:11.436Z</time>
      </trkpt>
      <trkpt lat="49.42013" lon="3.61933">
        <ele>111.3</ele>
        <time>2015-11-09T13:48:12.448Z</time>
      </trkpt>
      <trkpt lat="49.42013" lon="3.61933">
        <ele>111.3</ele>
        <time>2015-11-09T13:48:12.463Z</time>
      </trkpt>
      <trkpt lat="49.42013" lon="3.61933">
        <ele>111.2</ele>
        <time>2015-11-09T13:48:13.461Z</time>
      </trkpt>
      <trkpt lat="49.42005" lon="3.6194">
        <ele>109</ele>
        <time>2015-11-09T13:48:30.565Z</time>
      </trkpt>
      <trkpt lat="49.42004" lon="3.6194">
        <ele>109</ele>
        <time>2015-11-09T13:48:31.465Z</time>
      </trkpt>
      <trkpt lat="49.41995" lon="3.61941">
        <ele>108.9</ele>
        <time>2015-11-09T13:48:38.492Z</time>
      </trkpt>
      <trkpt lat="49.41994" lon="3.61942">
        <ele>108.9</ele>
        <time>2015-11-09T13:48:39.386Z</time>
      </trkpt>
      <trkpt lat="49.41986" lon="3.61943">
        <ele>108.6</ele>
        <time>2015-11-09T13:48:46.390Z</time>
      </trkpt>
      <trkpt lat="49.41985" lon="3.61943">
        <ele>108.5</ele>
        <time>2015-11-09T13:48:47.382Z</time>
      </trkpt>
      <trkpt lat="49.41976" lon="3.61942">
        <ele>108.6</ele>
        <time>2015-11-09T13:48:55.489Z</time>
      </trkpt>
      <trkpt lat="49.41975" lon="3.61941">
        <ele>108.6</ele>
        <time>2015-11-09T13:48:56.462Z</time>
      </trkpt>
      <trkpt lat="49.41967" lon="3.61939">
        <ele>109.3</ele>
        <time>2015-11-09T13:49:02.492Z</time>
      </trkpt>
      <trkpt lat="49.41966" lon="3.61938">
        <ele>109.3</ele>
        <time>2015-11-09T13:49:03.393Z</time>
      </trkpt>
      <trkpt lat="49.41957" lon="3.61936">
        <ele>109.7</ele>
        <time>2015-11-09T13:49:10.516Z</time>
      </trkpt>
      <trkpt lat="49.41956" lon="3.61935">
        <ele>109.7</ele>
        <time>2015-11-09T13:49:11.395Z</time>
      </trkpt>
      <trkpt lat="49.41948" lon="3.61933">
        <ele>110</ele>
        <time>2015-11-09T13:49:18.662Z</time>
      </trkpt>
      <trkpt lat="49.41947" lon="3.61933">
        <ele>110.2</ele>
        <time>2015-11-09T13:49:19.450Z</time>
      </trkpt>
      <trkpt lat="49.41939" lon="3.61932">
        <ele>110.4</ele>
        <time>2015-11-09T13:49:26.485Z</time>
      </trkpt>
      <trkpt lat="49.41937" lon="3.61933">
        <ele>110.3</ele>
        <time>2015-11-09T13:49:27.466Z</time>
      </trkpt>
      <trkpt lat="49.41929" lon="3.61938">
        <ele>110.4</ele>
        <time>2015-11-09T13:49:34.412Z</time>
      </trkpt>
      <trkpt lat="49.41929" lon="3.61938">
        <ele>110.4</ele>
        <time>2015-11-09T13:49:35.393Z</time>
      </trkpt>
      <trkpt lat="49.41921" lon="3.61944">
        <ele>111.5</ele>
        <time>2015-11-09T13:49:45.503Z</time>
      </trkpt>
      <trkpt lat="49.4192" lon="3.61945">
        <ele>111.5</ele>
        <time>2015-11-09T13:49:46.474Z</time>
      </trkpt>
      <trkpt lat="49.41912" lon="3.6195">
        <ele>111.6</ele>
        <time>2015-11-09T13:49:54.534Z</time>
      </trkpt>
      <trkpt lat="49.41911" lon="3.61951">
        <ele>111.7</ele>
        <time>2015-11-09T13:49:55.384Z</time>
      </trkpt>
      <trkpt lat="49.41904" lon="3.61957">
        <ele>112.7</ele>
        <time>2015-11-09T13:50:02.483Z</time>
      </trkpt>
      <trkpt lat="49.41903" lon="3.61957">
        <ele>112.9</ele>
        <time>2015-11-09T13:50:03.480Z</time>
      </trkpt>
      <trkpt lat="49.41896" lon="3.61964">
        <ele>113</ele>
        <time>2015-11-09T13:50:10.413Z</time>
      </trkpt>
      <trkpt lat="49.41895" lon="3.61965">
        <ele>113</ele>
        <time>2015-11-09T13:50:11.378Z</time>
      </trkpt>
      <trkpt lat="49.41888" lon="3.61971">
        <ele>113.5</ele>
        <time>2015-11-09T13:50:18.508Z</time>
      </trkpt>
      <trkpt lat="49.41887" lon="3.61972">
        <ele>113.5</ele>
        <time>2015-11-09T13:50:19.388Z</time>
      </trkpt>
      <trkpt lat="49.41881" lon="3.61979">
        <ele>113.5</ele>
        <time>2015-11-09T13:50:27.486Z</time>
      </trkpt>
      <trkpt lat="49.4188" lon="3.6198">
        <ele>113.8</ele>
        <time>2015-11-09T13:50:28.474Z</time>
      </trkpt>
      <trkpt lat="49.41873" lon="3.61988">
        <ele>115</ele>
        <time>2015-11-09T13:50:35.404Z</time>
      </trkpt>
      <trkpt lat="49.41872" lon="3.6199">
        <ele>115.1</ele>
        <time>2015-11-09T13:50:36.456Z</time>
      </trkpt>
      <trkpt lat="49.41866" lon="3.61999">
        <ele>115.8</ele>
        <time>2015-11-09T13:50:43.458Z</time>
      </trkpt>
      <trkpt lat="49.41866" lon="3.62">
        <ele>115.9</ele>
        <time>2015-11-09T13:50:44.447Z</time>
      </trkpt>
      <trkpt lat="49.4186" lon="3.6201">
        <ele>116.6</ele>
        <time>2015-11-09T13:50:53.403Z</time>
      </trkpt>
      <trkpt lat="49.41859" lon="3.62011">
        <ele>116.7</ele>
        <time>2015-11-09T13:50:54.486Z</time>
      </trkpt>
      <trkpt lat="49.41854" lon="3.62021">
        <ele>116.8</ele>
        <time>2015-11-09T13:51:01.470Z</time>
      </trkpt>
      <trkpt lat="49.41854" lon="3.62023">
        <ele>116.7</ele>
        <time>2015-11-09T13:51:02.465Z</time>
      </trkpt>
      <trkpt lat="49.4185" lon="3.62033">
        <ele>117.3</ele>
        <time>2015-11-09T13:51:09.483Z</time>
      </trkpt>
      <trkpt lat="49.41849" lon="3.62035">
        <ele>117.3</ele>
        <time>2015-11-09T13:51:10.461Z</time>
      </trkpt>
      <trkpt lat="49.41845" lon="3.62047">
        <ele>117.4</ele>
        <time>2015-11-09T13:51:17.411Z</time>
      </trkpt>
      <trkpt lat="49.41845" lon="3.62049">
        <ele>117.5</ele>
        <time>2015-11-09T13:51:18.428Z</time>
      </trkpt>
      <trkpt lat="49.41841" lon="3.62061">
        <ele>118</ele>
        <time>2015-11-09T13:51:25.420Z</time>
      </trkpt>
      <trkpt lat="49.41841" lon="3.62063">
        <ele>118.1</ele>
        <time>2015-11-09T13:51:26.376Z</time>
      </trkpt>
      <trkpt lat="49.41838" lon="3.62075">
        <ele>118.6</ele>
        <time>2015-11-09T13:51:33.490Z</time>
      </trkpt>
      <trkpt lat="49.41837" lon="3.62076">
        <ele>118.6</ele>
        <time>2015-11-09T13:51:34.470Z</time>
      </trkpt>
      <trkpt lat="49.41835" lon="3.62089">
        <ele>118.8</ele>
        <time>2015-11-09T13:51:41.516Z</time>
      </trkpt>
      <trkpt lat="49.41835" lon="3.62091">
        <ele>118.9</ele>
        <time>2015-11-09T13:51:42.473Z</time>
      </trkpt>
      <trkpt lat="49.41833" lon="3.62103">
        <ele>119.1</ele>
        <time>2015-11-09T13:51:49.480Z</time>
      </trkpt>
      <trkpt lat="49.41832" lon="3.62105">
        <ele>119.1</ele>
        <time>2015-11-09T13:51:50.465Z</time>
      </trkpt>
      <trkpt lat="49.4183" lon="3.62117">
        <ele>119.4</ele>
        <time>2015-11-09T13:51:57.402Z</time>
      </trkpt>
      <trkpt lat="49.4183" lon="3.62119">
        <ele>119.6</ele>
        <time>2015-11-09T13:51:58.374Z</time>
      </trkpt>
      <trkpt lat="49.41828" lon="3.62131">
        <ele>120.4</ele>
        <time>2015-11-09T13:52:05.437Z</time>
      </trkpt>
      <trkpt lat="49.41828" lon="3.62133">
        <ele>120.5</ele>
        <time>2015-11-09T13:52:06.430Z</time>
      </trkpt>
      <trkpt lat="49.41827" lon="3.62146">
        <ele>121.2</ele>
        <time>2015-11-09T13:52:13.466Z</time>
      </trkpt>
      <trkpt lat="49.41827" lon="3.62147">
        <ele>121.2</ele>
        <time>2015-11-09T13:52:14.458Z</time>
      </trkpt>
      <trkpt lat="49.41826" lon="3.62159">
        <ele>121.5</ele>
        <time>2015-11-09T13:52:20.486Z</time>
      </trkpt>
      <trkpt lat="49.41825" lon="3.62161">
        <ele>121.6</ele>
        <time>2015-11-09T13:52:21.455Z</time>
      </trkpt>
      <trkpt lat="49.41824" lon="3.62173">
        <ele>121.8</ele>
        <time>2015-11-09T13:52:27.486Z</time>
      </trkpt>
      <trkpt lat="49.41824" lon="3.62175">
        <ele>121.8</ele>
        <time>2015-11-09T13:52:28.374Z</time>
      </trkpt>
      <trkpt lat="49.41824" lon="3.62188">
        <ele>122.4</ele>
        <time>2015-11-09T13:52:35.401Z</time>
      </trkpt>
      <trkpt lat="49.41824" lon="3.6219">
        <ele>122.5</ele>
        <time>2015-11-09T13:52:36.429Z</time>
      </trkpt>
      <trkpt lat="49.41824" lon="3.62203">
        <ele>122.6</ele>
        <time>2015-11-09T13:52:43.477Z</time>
      </trkpt>
      <trkpt lat="49.41824" lon="3.62204">
        <ele>122.6</ele>
        <time>2015-11-09T13:52:44.467Z</time>
      </trkpt>
      <trkpt lat="49.41825" lon="3.62217">
        <ele>122.6</ele>
        <time>2015-11-09T13:52:51.466Z</time>
      </trkpt>
      <trkpt lat="49.41825" lon="3.62219">
        <ele>122.6</ele>
        <time>2015-11-09T13:52:52.596Z</time>
      </trkpt>
      <trkpt lat="49.41826" lon="3.62232">
        <ele>123.3</ele>
        <time>2015-11-09T13:52:59.429Z</time>
      </trkpt>
      <trkpt lat="49.41826" lon="3.62234">
        <ele>123.4</ele>
        <time>2015-11-09T13:53:00.431Z</time>
      </trkpt>
      <trkpt lat="49.41828" lon="3.62246">
        <ele>123.6</ele>
        <time>2015-11-09T13:53:07.449Z</time>
      </trkpt>
      <trkpt lat="49.41828" lon="3.62248">
        <ele>123.6</ele>
        <time>2015-11-09T13:53:08.466Z</time>
      </trkpt>
      <trkpt lat="49.4183" lon="3.6226">
        <ele>124.4</ele>
        <time>2015-11-09T13:53:15.389Z</time>
      </trkpt>
      <trkpt lat="49.4183" lon="3.62261">
        <ele>124.5</ele>
        <time>2015-11-09T13:53:16.381Z</time>
      </trkpt>
      <trkpt lat="49.41832" lon="3.62274">
        <ele>125.1</ele>
        <time>2015-11-09T13:53:23.407Z</time>
      </trkpt>
      <trkpt lat="49.41832" lon="3.62276">
        <ele>125.3</ele>
        <time>2015-11-09T13:53:24.436Z</time>
      </trkpt>
      <trkpt lat="49.41832" lon="3.62288">
        <ele>126.2</ele>
        <time>2015-11-09T13:53:30.446Z</time>
      </trkpt>
      <trkpt lat="49.41832" lon="3.6229">
        <ele>126.3</ele>
        <time>2015-11-09T13:53:31.435Z</time>
      </trkpt>
      <trkpt lat="49.41833" lon="3.62303">
        <ele>126.7</ele>
        <time>2015-11-09T13:53:39.490Z</time>
      </trkpt>
      <trkpt lat="49.41833" lon="3.62305">
        <ele>126.7</ele>
        <time>2015-11-09T13:53:40.469Z</time>
      </trkpt>
      <trkpt lat="49.41833" lon="3.62318">
        <ele>126.7</ele>
        <time>2015-11-09T13:53:47.412Z</time>
      </trkpt>
      <trkpt lat="49.41833" lon="3.62321">
        <ele>126.7</ele>
        <time>2015-11-09T13:53:48.436Z</time>
      </trkpt>
      <trkpt lat="49.41833" lon="3.62333">
        <ele>126.7</ele>
        <time>2015-11-09T13:53:54.442Z</time>
      </trkpt>
      <trkpt lat="49.41833" lon="3.62334">
        <ele>126.8</ele>
        <time>2015-11-09T13:53:55.441Z</time>
      </trkpt>
      <trkpt lat="49.41833" lon="3.62347">
        <ele>126.6</ele>
        <time>2015-11-09T13:54:02.391Z</time>
      </trkpt>
      <trkpt lat="49.41833" lon="3.62349">
        <ele>126.7</ele>
        <time>2015-11-09T13:54:03.390Z</time>
      </trkpt>
      <trkpt lat="49.41833" lon="3.62362">
        <ele>127</ele>
        <time>2015-11-09T13:54:10.491Z</time>
      </trkpt>
      <trkpt lat="49.41833" lon="3.62364">
        <ele>127</ele>
        <time>2015-11-09T13:54:11.475Z</time>
      </trkpt>
      <trkpt lat="49.41833" lon="3.62377">
        <ele>127.1</ele>
        <time>2015-11-09T13:54:18.450Z</time>
      </trkpt>
      <trkpt lat="49.41833" lon="3.62379">
        <ele>127.1</ele>
        <time>2015-11-09T13:54:19.435Z</time>
      </trkpt>
      <trkpt lat="49.41834" lon="3.62392">
        <ele>127</ele>
        <time>2015-11-09T13:54:26.488Z</time>
      </trkpt>
      <trkpt lat="49.41834" lon="3.62393">
        <ele>127.1</ele>
        <time>2015-11-09T13:54:27.474Z</time>
      </trkpt>
      <trkpt lat="49.41834" lon="3.62407">
        <ele>127.3</ele>
        <time>2015-11-09T13:54:34.406Z</time>
      </trkpt>
      <trkpt lat="49.41834" lon="3.62409">
        <ele>127.4</ele>
        <time>2015-11-09T13:54:35.389Z</time>
      </trkpt>
      <trkpt lat="49.41834" lon="3.62421">
        <ele>127.7</ele>
        <time>2015-11-09T13:54:41.397Z</time>
      </trkpt>
      <trkpt lat="49.41834" lon="3.62424">
        <ele>127.6</ele>
        <time>2015-11-09T13:54:42.434Z</time>
      </trkpt>
      <trkpt lat="49.41834" lon="3.62436">
        <ele>127.7</ele>
        <time>2015-11-09T13:54:49.468Z</time>
      </trkpt>
      <trkpt lat="49.41835" lon="3.62438">
        <ele>127.7</ele>
        <time>2015-11-09T13:54:50.452Z</time>
      </trkpt>
      <trkpt lat="49.41835" lon="3.62451">
        <ele>128</ele>
        <time>2015-11-09T13:54:57.471Z</time>
      </trkpt>
      <trkpt lat="49.41835" lon="3.62453">
        <ele>128</ele>
        <time>2015-11-09T13:54:58.454Z</time>
      </trkpt>
      <trkpt lat="49.41834" lon="3.62466">
        <ele>128</ele>
        <time>2015-11-09T13:55:05.427Z</time>
      </trkpt>
      <trkpt lat="49.41834" lon="3.62468">
        <ele>128</ele>
        <time>2015-11-09T13:55:06.428Z</time>
      </trkpt>
      <trkpt lat="49.41833" lon="3.62481">
        <ele>128.3</ele>
        <time>2015-11-09T13:55:13.398Z</time>
      </trkpt>
      <trkpt lat="49.41833" lon="3.62483">
        <ele>128.5</ele>
        <time>2015-11-09T13:55:14.388Z</time>
      </trkpt>
      <trkpt lat="49.41831" lon="3.62496">
        <ele>128.1</ele>
        <time>2015-11-09T13:55:21.395Z</time>
      </trkpt>
      <trkpt lat="49.4183" lon="3.62498">
        <ele>128.1</ele>
        <time>2015-11-09T13:55:22.381Z</time>
      </trkpt>
      <trkpt lat="49.41827" lon="3.62508">
        <ele>128</ele>
        <time>2015-11-09T13:55:28.498Z</time>
      </trkpt>
      <trkpt lat="49.41826" lon="3.6251">
        <ele>128</ele>
        <time>2015-11-09T13:55:29.382Z</time>
      </trkpt>
      <trkpt lat="49.41822" lon="3.6252">
        <ele>128.1</ele>
        <time>2015-11-09T13:55:35.400Z</time>
      </trkpt>
      <trkpt lat="49.41822" lon="3.62522">
        <ele>128</ele>
        <time>2015-11-09T13:55:36.436Z</time>
      </trkpt>
      <trkpt lat="49.41817" lon="3.62532">
        <ele>128.1</ele>
        <time>2015-11-09T13:55:43.388Z</time>
      </trkpt>
      <trkpt lat="49.41816" lon="3.62534">
        <ele>128</ele>
        <time>2015-11-09T13:55:44.387Z</time>
      </trkpt>
      <trkpt lat="49.41811" lon="3.62544">
        <ele>127.9</ele>
        <time>2015-11-09T13:55:51.486Z</time>
      </trkpt>
      <trkpt lat="49.4181" lon="3.62545">
        <ele>127.9</ele>
        <time>2015-11-09T13:55:52.467Z</time>
      </trkpt>
      <trkpt lat="49.41804" lon="3.62553">
        <ele>127.9</ele>
        <time>2015-11-09T13:55:58.475Z</time>
      </trkpt>
      <trkpt lat="49.41803" lon="3.62554">
        <ele>127.9</ele>
        <time>2015-11-09T13:55:59.381Z</time>
      </trkpt>
      <trkpt lat="49.41797" lon="3.62561">
        <ele>127.6</ele>
        <time>2015-11-09T13:56:05.403Z</time>
      </trkpt>
      <trkpt lat="49.41796" lon="3.62563">
        <ele>127.6</ele>
        <time>2015-11-09T13:56:06.436Z</time>
      </trkpt>
      <trkpt lat="49.41789" lon="3.6257">
        <ele>127.3</ele>
        <time>2015-11-09T13:56:13.466Z</time>
      </trkpt>
      <trkpt lat="49.41788" lon="3.62572">
        <ele>127.1</ele>
        <time>2015-11-09T13:56:14.444Z</time>
      </trkpt>
      <trkpt lat="49.41781" lon="3.62578">
        <ele>126.6</ele>
        <time>2015-11-09T13:56:20.462Z</time>
      </trkpt>
      <trkpt lat="49.4178" lon="3.62579">
        <ele>126.5</ele>
        <time>2015-11-09T13:56:21.445Z</time>
      </trkpt>
      <trkpt lat="49.41773" lon="3.62586">
        <ele>126.8</ele>
        <time>2015-11-09T13:56:27.414Z</time>
      </trkpt>
      <trkpt lat="49.41772" lon="3.62587">
        <ele>126.7</ele>
        <time>2015-11-09T13:56:28.408Z</time>
      </trkpt>
      <trkpt lat="49.41766" lon="3.62594">
        <ele>126.5</ele>
        <time>2015-11-09T13:56:34.396Z</time>
      </trkpt>
      <trkpt lat="49.41765" lon="3.62596">
        <ele>126.4</ele>
        <time>2015-11-09T13:56:35.396Z</time>
      </trkpt>
      <trkpt lat="49.41758" lon="3.62604">
        <ele>126.1</ele>
        <time>2015-11-09T13:56:42.480Z</time>
      </trkpt>
      <trkpt lat="49.41757" lon="3.62605">
        <ele>126.1</ele>
        <time>2015-11-09T13:56:43.467Z</time>
      </trkpt>
      <trkpt lat="49.4175" lon="3.62615">
        <ele>126.2</ele>
        <time>2015-11-09T13:56:50.469Z</time>
      </trkpt>
      <trkpt lat="49.41749" lon="3.62616">
        <ele>126.1</ele>
        <time>2015-11-09T13:56:51.462Z</time>
      </trkpt>
      <trkpt lat="49.41744" lon="3.62624">
        <ele>125.6</ele>
        <time>2015-11-09T13:56:57.491Z</time>
      </trkpt>
      <trkpt lat="49.41743" lon="3.62626">
        <ele>125.5</ele>
        <time>2015-11-09T13:56:58.376Z</time>
      </trkpt>
      <trkpt lat="49.41738" lon="3.62636">
        <ele>125.3</ele>
        <time>2015-11-09T13:57:04.408Z</time>
      </trkpt>
      <trkpt lat="49.41737" lon="3.62638">
        <ele>125.2</ele>
        <time>2015-11-09T13:57:05.389Z</time>
      </trkpt>
      <trkpt lat="49.41732" lon="3.62649">
        <ele>124.6</ele>
        <time>2015-11-09T13:57:12.454Z</time>
      </trkpt>
      <trkpt lat="49.41732" lon="3.62651">
        <ele>124.5</ele>
        <time>2015-11-09T13:57:13.434Z</time>
      </trkpt>
      <trkpt lat="49.41727" lon="3.62661">
        <ele>124.3</ele>
        <time>2015-11-09T13:57:19.401Z</time>
      </trkpt>
      <trkpt lat="49.41727" lon="3.62663">
        <ele>124.4</ele>
        <time>2015-11-09T13:57:20.395Z</time>
      </trkpt>
      <trkpt lat="49.41724" lon="3.62674">
        <ele>124.4</ele>
        <time>2015-11-09T13:57:26.469Z</time>
      </trkpt>
      <trkpt lat="49.41724" lon="3.62676">
        <ele>124.4</ele>
        <time>2015-11-09T13:57:27.459Z</time>
      </trkpt>
      <trkpt lat="49.4172" lon="3.62687">
        <ele>124.4</ele>
        <time>2015-11-09T13:57:33.473Z</time>
      </trkpt>
      <trkpt lat="49.41719" lon="3.62689">
        <ele>124.5</ele>
        <time>2015-11-09T13:57:34.477Z</time>
      </trkpt>
      <trkpt lat="49.41716" lon="3.627">
        <ele>123.9</ele>
        <time>2015-11-09T13:57:40.500Z</time>
      </trkpt>
      <trkpt lat="49.41716" lon="3.62702">
        <ele>123.9</ele>
        <time>2015-11-09T13:57:41.381Z</time>
      </trkpt>
      <trkpt lat="49.41712" lon="3.62714">
        <ele>123</ele>
        <time>2015-11-09T13:57:48.444Z</time>
      </trkpt>
      <trkpt lat="49.41711" lon="3.62715">
        <ele>123</ele>
        <time>2015-11-09T13:57:49.425Z</time>
      </trkpt>
      <trkpt lat="49.41707" lon="3.62726">
        <ele>123.2</ele>
        <time>2015-11-09T13:57:56.404Z</time>
      </trkpt>
      <trkpt lat="49.41707" lon="3.62727">
        <ele>123.2</ele>
        <time>2015-11-09T13:57:57.407Z</time>
      </trkpt>
      <trkpt lat="49.41702" lon="3.62739">
        <ele>123.4</ele>
        <time>2015-11-09T13:58:07.475Z</time>
      </trkpt>
      <trkpt lat="49.41702" lon="3.62739">
        <ele>123.6</ele>
        <time>2015-11-09T13:58:08.426Z</time>
      </trkpt>
      <trkpt lat="49.41702" lon="3.62739">
        <ele>123.6</ele>
        <time>2015-11-09T13:58:08.461Z</time>
      </trkpt>
      <trkpt lat="49.41702" lon="3.62739">
        <ele>123.6</ele>
        <time>2015-11-09T13:58:21.476Z</time>
      </trkpt>
      <trkpt lat="49.41702" lon="3.6274">
        <ele>124.1</ele>
        <time>2015-11-09T13:58:22.460Z</time>
      </trkpt>
      <trkpt lat="49.41696" lon="3.62749">
        <ele>124.5</ele>
        <time>2015-11-09T13:58:33.473Z</time>
      </trkpt>
      <trkpt lat="49.41695" lon="3.6275">
        <ele>124.5</ele>
        <time>2015-11-09T13:58:34.461Z</time>
      </trkpt>
      <trkpt lat="49.41687" lon="3.62755">
        <ele>124</ele>
        <time>2015-11-09T13:58:43.472Z</time>
      </trkpt>
      <trkpt lat="49.41686" lon="3.62755">
        <ele>124</ele>
        <time>2015-11-09T13:58:44.453Z</time>
      </trkpt>
      <trkpt lat="49.41687" lon="3.62742">
        <ele>122.5</ele>
        <time>2015-11-09T13:58:52.472Z</time>
      </trkpt>
      <trkpt lat="49.41687" lon="3.62741">
        <ele>122.6</ele>
        <time>2015-11-09T13:58:53.459Z</time>
      </trkpt>
      <trkpt lat="49.41692" lon="3.62731">
        <ele>122.7</ele>
        <time>2015-11-09T13:59:00.443Z</time>
      </trkpt>
      <trkpt lat="49.41693" lon="3.62729">
        <ele>122.7</ele>
        <time>2015-11-09T13:59:01.443Z</time>
      </trkpt>
      <trkpt lat="49.41697" lon="3.62717">
        <ele>122.7</ele>
        <time>2015-11-09T13:59:09.403Z</time>
      </trkpt>
      <trkpt lat="49.41698" lon="3.62716">
        <ele>122.7</ele>
        <time>2015-11-09T13:59:10.409Z</time>
      </trkpt>
      <trkpt lat="49.41701" lon="3.62704">
        <ele>122.5</ele>
        <time>2015-11-09T13:59:18.551Z</time>
      </trkpt>
      <trkpt lat="49.41702" lon="3.62702">
        <ele>122.4</ele>
        <time>2015-11-09T13:59:19.463Z</time>
      </trkpt>
      <trkpt lat="49.41704" lon="3.62689">
        <ele>121.8</ele>
        <time>2015-11-09T13:59:27.467Z</time>
      </trkpt>
      <trkpt lat="49.41704" lon="3.62688">
        <ele>121.7</ele>
        <time>2015-11-09T13:59:28.454Z</time>
      </trkpt>
      <trkpt lat="49.41705" lon="3.62675">
        <ele>121.5</ele>
        <time>2015-11-09T13:59:36.444Z</time>
      </trkpt>
      <trkpt lat="49.41705" lon="3.62673">
        <ele>121.5</ele>
        <time>2015-11-09T13:59:37.462Z</time>
      </trkpt>
      <trkpt lat="49.41705" lon="3.6266">
        <ele>121.8</ele>
        <time>2015-11-09T13:59:56.405Z</time>
      </trkpt>
      <trkpt lat="49.41705" lon="3.62658">
        <ele>121.9</ele>
        <time>2015-11-09T13:59:57.390Z</time>
      </trkpt>
      <trkpt lat="49.41705" lon="3.62646">
        <ele>122.1</ele>
        <time>2015-11-09T14:00:05.592Z</time>
      </trkpt>
      <trkpt lat="49.41705" lon="3.62644">
        <ele>122.2</ele>
        <time>2015-11-09T14:00:06.427Z</time>
      </trkpt>
      <trkpt lat="49.41704" lon="3.62631">
        <ele>122.1</ele>
        <time>2015-11-09T14:00:14.466Z</time>
      </trkpt>
      <trkpt lat="49.41704" lon="3.6263">
        <ele>122</ele>
        <time>2015-11-09T14:00:15.472Z</time>
      </trkpt>
      <trkpt lat="49.41702" lon="3.62617">
        <ele>121.6</ele>
        <time>2015-11-09T14:00:22.402Z</time>
      </trkpt>
      <trkpt lat="49.41702" lon="3.62615">
        <ele>121.5</ele>
        <time>2015-11-09T14:00:23.371Z</time>
      </trkpt>
      <trkpt lat="49.41699" lon="3.62603">
        <ele>120.3</ele>
        <time>2015-11-09T14:00:30.439Z</time>
      </trkpt>
      <trkpt lat="49.41699" lon="3.62601">
        <ele>120.2</ele>
        <time>2015-11-09T14:00:31.417Z</time>
      </trkpt>
      <trkpt lat="49.41696" lon="3.62588">
        <ele>119.3</ele>
        <time>2015-11-09T14:00:39.407Z</time>
      </trkpt>
      <trkpt lat="49.41696" lon="3.62588">
        <ele>119</ele>
        <time>2015-11-09T14:00:40.395Z</time>
      </trkpt>
      <trkpt lat="49.41694" lon="3.62576">
        <ele>119.4</ele>
        <time>2015-11-09T14:00:48.441Z</time>
      </trkpt>
      <trkpt lat="49.41693" lon="3.62574">
        <ele>119.4</ele>
        <time>2015-11-09T14:00:49.440Z</time>
      </trkpt>
      <trkpt lat="49.4169" lon="3.62561">
        <ele>119.8</ele>
        <time>2015-11-09T14:00:56.468Z</time>
      </trkpt>
      <trkpt lat="49.4169" lon="3.6256">
        <ele>119.8</ele>
        <time>2015-11-09T14:00:57.444Z</time>
      </trkpt>
      <trkpt lat="49.41689" lon="3.62546">
        <ele>119.9</ele>
        <time>2015-11-09T14:01:04.419Z</time>
      </trkpt>
      <trkpt lat="49.41688" lon="3.62544">
        <ele>119.9</ele>
        <time>2015-11-09T14:01:05.379Z</time>
      </trkpt>
      <trkpt lat="49.41688" lon="3.62532">
        <ele>120.4</ele>
        <time>2015-11-09T14:01:12.502Z</time>
      </trkpt>
      <trkpt lat="49.41688" lon="3.6253">
        <ele>120.4</ele>
        <time>2015-11-09T14:01:13.367Z</time>
      </trkpt>
      <trkpt lat="49.41688" lon="3.62517">
        <ele>120.4</ele>
        <time>2015-11-09T14:01:19.452Z</time>
      </trkpt>
      <trkpt lat="49.41688" lon="3.62515">
        <ele>120.2</ele>
        <time>2015-11-09T14:01:20.440Z</time>
      </trkpt>
      <trkpt lat="49.41688" lon="3.62503">
        <ele>119.9</ele>
        <time>2015-11-09T14:01:26.390Z</time>
      </trkpt>
      <trkpt lat="49.41688" lon="3.62501">
        <ele>120</ele>
        <time>2015-11-09T14:01:27.390Z</time>
      </trkpt>
      <trkpt lat="49.41689" lon="3.62488">
        <ele>119.6</ele>
        <time>2015-11-09T14:01:34.503Z</time>
      </trkpt>
      <trkpt lat="49.41688" lon="3.62486">
        <ele>119.5</ele>
        <time>2015-11-09T14:01:35.364Z</time>
      </trkpt>
      <trkpt lat="49.4169" lon="3.62474">
        <ele>119</ele>
        <time>2015-11-09T14:01:43.450Z</time>
      </trkpt>
      <trkpt lat="49.41691" lon="3.62473">
        <ele>118.9</ele>
        <time>2015-11-09T14:01:44.439Z</time>
      </trkpt>
      <trkpt lat="49.41692" lon="3.62459">
        <ele>117.2</ele>
        <time>2015-11-09T14:01:53.427Z</time>
      </trkpt>
      <trkpt lat="49.41692" lon="3.62457">
        <ele>117.2</ele>
        <time>2015-11-09T14:01:54.415Z</time>
      </trkpt>
      <trkpt lat="49.41693" lon="3.62444">
        <ele>117</ele>
        <time>2015-11-09T14:02:01.452Z</time>
      </trkpt>
      <trkpt lat="49.41693" lon="3.62442">
        <ele>116.9</ele>
        <time>2015-11-09T14:02:02.453Z</time>
      </trkpt>
      <trkpt lat="49.41692" lon="3.6243">
        <ele>116.2</ele>
        <time>2015-11-09T14:02:10.646Z</time>
      </trkpt>
      <trkpt lat="49.41692" lon="3.62427">
        <ele>116.2</ele>
        <time>2015-11-09T14:02:11.446Z</time>
      </trkpt>
      <trkpt lat="49.41688" lon="3.62416">
        <ele>115.7</ele>
        <time>2015-11-09T14:02:16.431Z</time>
      </trkpt>
      <trkpt lat="49.41688" lon="3.62414">
        <ele>115.6</ele>
        <time>2015-11-09T14:02:17.420Z</time>
      </trkpt>
      <trkpt lat="49.41683" lon="3.62403">
        <ele>114.9</ele>
        <time>2015-11-09T14:02:23.394Z</time>
      </trkpt>
      <trkpt lat="49.41682" lon="3.624">
        <ele>114.9</ele>
        <time>2015-11-09T14:02:24.422Z</time>
      </trkpt>
      <trkpt lat="49.41678" lon="3.62391">
        <ele>114.3</ele>
        <time>2015-11-09T14:02:29.510Z</time>
      </trkpt>
      <trkpt lat="49.41677" lon="3.62389">
        <ele>114.2</ele>
        <time>2015-11-09T14:02:30.505Z</time>
      </trkpt>
      <trkpt lat="49.41671" lon="3.62378">
        <ele>112.5</ele>
        <time>2015-11-09T14:02:36.464Z</time>
      </trkpt>
      <trkpt lat="49.4167" lon="3.62376">
        <ele>112</ele>
        <time>2015-11-09T14:02:37.444Z</time>
      </trkpt>
      <trkpt lat="49.41665" lon="3.62367">
        <ele>111.1</ele>
        <time>2015-11-09T14:02:43.588Z</time>
      </trkpt>
      <trkpt lat="49.41664" lon="3.62366">
        <ele>111.2</ele>
        <time>2015-11-09T14:02:44.440Z</time>
      </trkpt>
      <trkpt lat="49.41658" lon="3.62356">
        <ele>110.2</ele>
        <time>2015-11-09T14:02:51.418Z</time>
      </trkpt>
      <trkpt lat="49.41657" lon="3.62356">
        <ele>110.2</ele>
        <time>2015-11-09T14:02:52.410Z</time>
      </trkpt>
      <trkpt lat="49.41651" lon="3.62346">
        <ele>109</ele>
        <time>2015-11-09T14:02:59.393Z</time>
      </trkpt>
      <trkpt lat="49.4165" lon="3.62345">
        <ele>109</ele>
        <time>2015-11-09T14:03:00.422Z</time>
      </trkpt>
      <trkpt lat="49.41644" lon="3.62337">
        <ele>108.7</ele>
        <time>2015-11-09T14:03:06.484Z</time>
      </trkpt>
      <trkpt lat="49.41643" lon="3.62335">
        <ele>108.7</ele>
        <time>2015-11-09T14:03:07.371Z</time>
      </trkpt>
      <trkpt lat="49.41636" lon="3.62327">
        <ele>108.4</ele>
        <time>2015-11-09T14:03:14.475Z</time>
      </trkpt>
      <trkpt lat="49.41635" lon="3.62325">
        <ele>108.3</ele>
        <time>2015-11-09T14:03:15.371Z</time>
      </trkpt>
      <trkpt lat="49.41628" lon="3.62317">
        <ele>107.8</ele>
        <time>2015-11-09T14:03:21.483Z</time>
      </trkpt>
      <trkpt lat="49.41627" lon="3.62315">
        <ele>107.7</ele>
        <time>2015-11-09T14:03:22.379Z</time>
      </trkpt>
      <trkpt lat="49.41621" lon="3.62307">
        <ele>107.3</ele>
        <time>2015-11-09T14:03:28.413Z</time>
      </trkpt>
      <trkpt lat="49.4162" lon="3.62306">
        <ele>107.3</ele>
        <time>2015-11-09T14:03:29.389Z</time>
      </trkpt>
      <trkpt lat="49.41613" lon="3.62298">
        <ele>107.1</ele>
        <time>2015-11-09T14:03:35.399Z</time>
      </trkpt>
      <trkpt lat="49.41612" lon="3.62297">
        <ele>107</ele>
        <time>2015-11-09T14:03:36.429Z</time>
      </trkpt>
      <trkpt lat="49.41605" lon="3.6229">
        <ele>107</ele>
        <time>2015-11-09T14:03:43.428Z</time>
      </trkpt>
      <trkpt lat="49.41604" lon="3.62289">
        <ele>107.1</ele>
        <time>2015-11-09T14:03:44.395Z</time>
      </trkpt>
      <trkpt lat="49.41596" lon="3.62284">
        <ele>106.7</ele>
        <time>2015-11-09T14:03:52.390Z</time>
      </trkpt>
      <trkpt lat="49.41595" lon="3.62283">
        <ele>106.7</ele>
        <time>2015-11-09T14:03:53.379Z</time>
      </trkpt>
      <trkpt lat="49.41586" lon="3.62279">
        <ele>106.9</ele>
        <time>2015-11-09T14:04:00.456Z</time>
      </trkpt>
      <trkpt lat="49.41585" lon="3.62278">
        <ele>106.9</ele>
        <time>2015-11-09T14:04:01.439Z</time>
      </trkpt>
      <trkpt lat="49.41578" lon="3.62274">
        <ele>106.6</ele>
        <time>2015-11-09T14:04:07.476Z</time>
      </trkpt>
      <trkpt lat="49.41577" lon="3.62273">
        <ele>106.6</ele>
        <time>2015-11-09T14:04:08.450Z</time>
      </trkpt>
      <trkpt lat="49.41568" lon="3.62268">
        <ele>105.9</ele>
        <time>2015-11-09T14:04:15.517Z</time>
      </trkpt>
      <trkpt lat="49.41567" lon="3.62268">
        <ele>105.7</ele>
        <time>2015-11-09T14:04:16.474Z</time>
      </trkpt>
      <trkpt lat="49.4156" lon="3.62264">
        <ele>105.3</ele>
        <time>2015-11-09T14:04:22.435Z</time>
      </trkpt>
      <trkpt lat="49.41559" lon="3.62263">
        <ele>105.3</ele>
        <time>2015-11-09T14:04:23.419Z</time>
      </trkpt>
      <trkpt lat="49.41551" lon="3.62258">
        <ele>105.8</ele>
        <time>2015-11-09T14:04:29.401Z</time>
      </trkpt>
      <trkpt lat="49.4155" lon="3.62258">
        <ele>105.9</ele>
        <time>2015-11-09T14:04:30.500Z</time>
      </trkpt>
      <trkpt lat="49.41542" lon="3.62253">
        <ele>106.5</ele>
        <time>2015-11-09T14:04:37.451Z</time>
      </trkpt>
      <trkpt lat="49.41541" lon="3.62252">
        <ele>106.6</ele>
        <time>2015-11-09T14:04:38.456Z</time>
      </trkpt>
      <trkpt lat="49.41534" lon="3.62244">
        <ele>107</ele>
        <time>2015-11-09T14:04:45.497Z</time>
      </trkpt>
      <trkpt lat="49.41533" lon="3.62243">
        <ele>107</ele>
        <time>2015-11-09T14:04:46.382Z</time>
      </trkpt>
      <trkpt lat="49.41527" lon="3.62235">
        <ele>107.6</ele>
        <time>2015-11-09T14:04:52.500Z</time>
      </trkpt>
      <trkpt lat="49.41525" lon="3.62234">
        <ele>107.6</ele>
        <time>2015-11-09T14:04:53.367Z</time>
      </trkpt>
      <trkpt lat="49.41518" lon="3.62226">
        <ele>107.5</ele>
        <time>2015-11-09T14:04:59.483Z</time>
      </trkpt>
      <trkpt lat="49.41517" lon="3.62226">
        <ele>107.3</ele>
        <time>2015-11-09T14:05:00.478Z</time>
      </trkpt>
      <trkpt lat="49.41509" lon="3.62224">
        <ele>107.8</ele>
        <time>2015-11-09T14:05:07.446Z</time>
      </trkpt>
      <trkpt lat="49.41508" lon="3.62224">
        <ele>107.9</ele>
        <time>2015-11-09T14:05:08.446Z</time>
      </trkpt>
      <trkpt lat="49.41506" lon="3.62225">
        <ele>107.8</ele>
        <time>2015-11-09T14:05:12.452Z</time>
      </trkpt>
      <trkpt lat="49.41505" lon="3.62225">
        <ele>107.8</ele>
        <time>2015-11-09T14:05:13.445Z</time>
      </trkpt>
      <trkpt lat="49.41505" lon="3.62225">
        <ele>107.7</ele>
        <time>2015-11-09T14:05:21.494Z</time>
      </trkpt>
      <trkpt lat="49.41504" lon="3.62224">
        <ele>106.3</ele>
        <time>2015-11-09T14:05:22.378Z</time>
      </trkpt>
      <trkpt lat="49.41503" lon="3.62224">
        <ele>106.1</ele>
        <time>2015-11-09T14:05:25.463Z</time>
      </trkpt>
      <trkpt lat="49.41503" lon="3.62224">
        <ele>106.2</ele>
        <time>2015-11-09T14:05:26.457Z</time>
      </trkpt>
      <trkpt lat="49.41503" lon="3.62224">
        <ele>106.2</ele>
        <time>2015-11-09T14:05:32.471Z</time>
      </trkpt>
      <trkpt lat="49.415" lon="3.62223">
        <ele>105.8</ele>
        <time>2015-11-09T14:05:33.379Z</time>
      </trkpt>
      <trkpt lat="49.41495" lon="3.62212">
        <ele>106</ele>
        <time>2015-11-09T14:05:46.503Z</time>
      </trkpt>
      <trkpt lat="49.41494" lon="3.62211">
        <ele>106.3</ele>
        <time>2015-11-09T14:05:47.393Z</time>
      </trkpt>
      <trkpt lat="49.41493" lon="3.62206">
        <ele>106.7</ele>
        <time>2015-11-09T14:05:52.440Z</time>
      </trkpt>
      <trkpt lat="49.41493" lon="3.62206">
        <ele>106.7</ele>
        <time>2015-11-09T14:05:53.431Z</time>
      </trkpt>
      <trkpt lat="49.41493" lon="3.62206">
        <ele>106.7</ele>
        <time>2015-11-09T14:06:02.465Z</time>
      </trkpt>
      <trkpt lat="49.41492" lon="3.62206">
        <ele>106.2</ele>
        <time>2015-11-09T14:06:03.470Z</time>
      </trkpt>
      <trkpt lat="49.41485" lon="3.622">
        <ele>106.7</ele>
        <time>2015-11-09T14:06:13.612Z</time>
      </trkpt>
      <trkpt lat="49.41484" lon="3.622">
        <ele>106.7</ele>
        <time>2015-11-09T14:06:14.382Z</time>
      </trkpt>
      <trkpt lat="49.41478" lon="3.62193">
        <ele>106.4</ele>
        <time>2015-11-09T14:06:21.476Z</time>
      </trkpt>
      <trkpt lat="49.41477" lon="3.62192">
        <ele>106.4</ele>
        <time>2015-11-09T14:06:22.378Z</time>
      </trkpt>
      <trkpt lat="49.41469" lon="3.62186">
        <ele>105.8</ele>
        <time>2015-11-09T14:06:29.397Z</time>
      </trkpt>
      <trkpt lat="49.41468" lon="3.62186">
        <ele>105.7</ele>
        <time>2015-11-09T14:06:30.448Z</time>
      </trkpt>
      <trkpt lat="49.41459" lon="3.62181">
        <ele>105.1</ele>
        <time>2015-11-09T14:06:38.407Z</time>
      </trkpt>
      <trkpt lat="49.41459" lon="3.6218">
        <ele>105</ele>
        <time>2015-11-09T14:06:39.403Z</time>
      </trkpt>
      <trkpt lat="49.41452" lon="3.62174">
        <ele>104</ele>
        <time>2015-11-09T14:06:47.415Z</time>
      </trkpt>
      <trkpt lat="49.4145" lon="3.62173">
        <ele>103.8</ele>
        <time>2015-11-09T14:06:48.446Z</time>
      </trkpt>
      <trkpt lat="49.41443" lon="3.62166">
        <ele>103.8</ele>
        <time>2015-11-09T14:06:55.506Z</time>
      </trkpt>
      <trkpt lat="49.41442" lon="3.62165">
        <ele>103.8</ele>
        <time>2015-11-09T14:06:56.460Z</time>
      </trkpt>
      <trkpt lat="49.41434" lon="3.62159">
        <ele>104</ele>
        <time>2015-11-09T14:07:03.495Z</time>
      </trkpt>
      <trkpt lat="49.41433" lon="3.62158">
        <ele>104.1</ele>
        <time>2015-11-09T14:07:04.385Z</time>
      </trkpt>
      <trkpt lat="49.41426" lon="3.62149">
        <ele>103.7</ele>
        <time>2015-11-09T14:07:11.450Z</time>
      </trkpt>
      <trkpt lat="49.41426" lon="3.62148">
        <ele>103.5</ele>
        <time>2015-11-09T14:07:12.439Z</time>
      </trkpt>
      <trkpt lat="49.4142" lon="3.6214">
        <ele>103.2</ele>
        <time>2015-11-09T14:07:20.475Z</time>
      </trkpt>
      <trkpt lat="49.41419" lon="3.62138">
        <ele>103.1</ele>
        <time>2015-11-09T14:07:21.379Z</time>
      </trkpt>
      <trkpt lat="49.41414" lon="3.62127">
        <ele>103.3</ele>
        <time>2015-11-09T14:07:29.404Z</time>
      </trkpt>
      <trkpt lat="49.41413" lon="3.62126">
        <ele>103.4</ele>
        <time>2015-11-09T14:07:30.439Z</time>
      </trkpt>
      <trkpt lat="49.41409" lon="3.62114">
        <ele>103.4</ele>
        <time>2015-11-09T14:07:37.543Z</time>
      </trkpt>
      <trkpt lat="49.41408" lon="3.62112">
        <ele>103.4</ele>
        <time>2015-11-09T14:07:38.395Z</time>
      </trkpt>
      <trkpt lat="49.41407" lon="3.621">
        <ele>103.5</ele>
        <time>2015-11-09T14:07:44.425Z</time>
      </trkpt>
      <trkpt lat="49.41407" lon="3.62098">
        <ele>103.5</ele>
        <time>2015-11-09T14:07:45.388Z</time>
      </trkpt>
      <trkpt lat="49.41406" lon="3.62086">
        <ele>103.8</ele>
        <time>2015-11-09T14:07:52.400Z</time>
      </trkpt>
      <trkpt lat="49.41405" lon="3.62084">
        <ele>103.9</ele>
        <time>2015-11-09T14:07:53.388Z</time>
      </trkpt>
      <trkpt lat="49.41404" lon="3.62072">
        <ele>104.3</ele>
        <time>2015-11-09T14:07:59.623Z</time>
      </trkpt>
      <trkpt lat="49.41404" lon="3.6207">
        <ele>104.4</ele>
        <time>2015-11-09T14:08:00.446Z</time>
      </trkpt>
      <trkpt lat="49.41403" lon="3.62058">
        <ele>104.3</ele>
        <time>2015-11-09T14:08:07.474Z</time>
      </trkpt>
      <trkpt lat="49.41403" lon="3.62057">
        <ele>104.2</ele>
        <time>2015-11-09T14:08:08.469Z</time>
      </trkpt>
      <trkpt lat="49.41402" lon="3.62045">
        <ele>104.3</ele>
        <time>2015-11-09T14:08:14.683Z</time>
      </trkpt>
      <trkpt lat="49.41402" lon="3.62043">
        <ele>104.4</ele>
        <time>2015-11-09T14:08:15.472Z</time>
      </trkpt>
      <trkpt lat="49.414" lon="3.6203">
        <ele>104.6</ele>
        <time>2015-11-09T14:08:21.500Z</time>
      </trkpt>
      <trkpt lat="49.414" lon="3.62028">
        <ele>104.6</ele>
        <time>2015-11-09T14:08:22.388Z</time>
      </trkpt>
      <trkpt lat="49.41399" lon="3.62015">
        <ele>104.5</ele>
        <time>2015-11-09T14:08:28.409Z</time>
      </trkpt>
      <trkpt lat="49.41399" lon="3.62013">
        <ele>104.6</ele>
        <time>2015-11-09T14:08:29.397Z</time>
      </trkpt>
      <trkpt lat="49.41398" lon="3.62001">
        <ele>104.7</ele>
        <time>2015-11-09T14:08:36.453Z</time>
      </trkpt>
      <trkpt lat="49.41397" lon="3.61999">
        <ele>104.7</ele>
        <time>2015-11-09T14:08:37.448Z</time>
      </trkpt>
      <trkpt lat="49.41396" lon="3.61986">
        <ele>104.6</ele>
        <time>2015-11-09T14:08:44.483Z</time>
      </trkpt>
      <trkpt lat="49.41396" lon="3.61984">
        <ele>104.5</ele>
        <time>2015-11-09T14:08:45.388Z</time>
      </trkpt>
      <trkpt lat="49.41394" lon="3.61971">
        <ele>104.3</ele>
        <time>2015-11-09T14:08:53.412Z</time>
      </trkpt>
      <trkpt lat="49.41394" lon="3.61969">
        <ele>104.4</ele>
        <time>2015-11-09T14:08:54.442Z</time>
      </trkpt>
      <trkpt lat="49.41392" lon="3.61955">
        <ele>104.4</ele>
        <time>2015-11-09T14:09:02.410Z</time>
      </trkpt>
      <trkpt lat="49.41392" lon="3.61954">
        <ele>104.4</ele>
        <time>2015-11-09T14:09:03.388Z</time>
      </trkpt>
      <trkpt lat="49.41391" lon="3.6194">
        <ele>104.8</ele>
        <time>2015-11-09T14:09:11.541Z</time>
      </trkpt>
      <trkpt lat="49.41391" lon="3.61938">
        <ele>104.8</ele>
        <time>2015-11-09T14:09:12.486Z</time>
      </trkpt>
      <trkpt lat="49.41389" lon="3.61926">
        <ele>105</ele>
        <time>2015-11-09T14:09:19.477Z</time>
      </trkpt>
      <trkpt lat="49.41389" lon="3.61924">
        <ele>105.2</ele>
        <time>2015-11-09T14:09:20.464Z</time>
      </trkpt>
      <trkpt lat="49.41387" lon="3.61911">
        <ele>105.6</ele>
        <time>2015-11-09T14:09:28.425Z</time>
      </trkpt>
      <trkpt lat="49.41387" lon="3.61909">
        <ele>105.6</ele>
        <time>2015-11-09T14:09:29.409Z</time>
      </trkpt>
      <trkpt lat="49.41385" lon="3.61896">
        <ele>105.6</ele>
        <time>2015-11-09T14:09:36.459Z</time>
      </trkpt>
      <trkpt lat="49.41385" lon="3.61894">
        <ele>105.7</ele>
        <time>2015-11-09T14:09:37.459Z</time>
      </trkpt>
      <trkpt lat="49.41383" lon="3.61883">
        <ele>105.5</ele>
        <time>2015-11-09T14:09:43.496Z</time>
      </trkpt>
      <trkpt lat="49.41383" lon="3.61881">
        <ele>105.4</ele>
        <time>2015-11-09T14:09:44.386Z</time>
      </trkpt>
      <trkpt lat="49.41381" lon="3.61868">
        <ele>105.7</ele>
        <time>2015-11-09T14:09:51.505Z</time>
      </trkpt>
      <trkpt lat="49.41381" lon="3.61866">
        <ele>105.8</ele>
        <time>2015-11-09T14:09:52.394Z</time>
      </trkpt>
      <trkpt lat="49.41382" lon="3.61853">
        <ele>106</ele>
        <time>2015-11-09T14:10:00.448Z</time>
      </trkpt>
      <trkpt lat="49.41382" lon="3.61852">
        <ele>105.9</ele>
        <time>2015-11-09T14:10:01.442Z</time>
      </trkpt>
      <trkpt lat="49.41381" lon="3.61851">
        <ele>105.9</ele>
        <time>2015-11-09T14:10:05.404Z</time>
      </trkpt>
      <trkpt lat="49.41381" lon="3.6185">
        <ele>105.8</ele>
        <time>2015-11-09T14:10:06.505Z</time>
      </trkpt>
      <trkpt lat="49.41381" lon="3.6185">
        <ele>105.8</ele>
        <time>2015-11-09T14:10:06.533Z</time>
      </trkpt>
      <trkpt lat="49.41381" lon="3.6185">
        <ele>105.9</ele>
        <time>2015-11-09T14:10:07.377Z</time>
      </trkpt>
      <trkpt lat="49.41381" lon="3.61851">
        <ele>105.6</ele>
        <time>2015-11-09T14:10:09.430Z</time>
      </trkpt>
      <trkpt lat="49.4138" lon="3.61851">
        <ele>105.6</ele>
        <time>2015-11-09T14:10:10.433Z</time>
      </trkpt>
      <trkpt lat="49.4138" lon="3.61852">
        <ele>105.2</ele>
        <time>2015-11-09T14:10:16.397Z</time>
      </trkpt>
      <trkpt lat="49.41381" lon="3.6185">
        <ele>104.5</ele>
        <time>2015-11-09T14:10:17.387Z</time>
      </trkpt>
      <trkpt lat="49.41384" lon="3.61845">
        <ele>104.2</ele>
        <time>2015-11-09T14:10:25.428Z</time>
      </trkpt>
      <trkpt lat="49.41384" lon="3.61844">
        <ele>104.4</ele>
        <time>2015-11-09T14:10:26.377Z</time>
      </trkpt>
      <trkpt lat="49.41384" lon="3.61844">
        <ele>104.4</ele>
        <time>2015-11-09T14:10:26.385Z</time>
      </trkpt>
      <trkpt lat="49.41385" lon="3.61844">
        <ele>104.5</ele>
        <time>2015-11-09T14:10:27.388Z</time>
      </trkpt>
      <trkpt lat="49.41393" lon="3.61843">
        <ele>104.9</ele>
        <time>2015-11-09T14:10:35.372Z</time>
      </trkpt>
      <trkpt lat="49.41395" lon="3.61843">
        <ele>105.1</ele>
        <time>2015-11-09T14:10:36.470Z</time>
      </trkpt>
      <trkpt lat="49.41403" lon="3.61842">
        <ele>105.2</ele>
        <time>2015-11-09T14:10:42.430Z</time>
      </trkpt>
      <trkpt lat="49.41404" lon="3.61842">
        <ele>105.3</ele>
        <time>2015-11-09T14:10:43.432Z</time>
      </trkpt>
      <trkpt lat="49.41412" lon="3.6184">
        <ele>105.5</ele>
        <time>2015-11-09T14:10:50.412Z</time>
      </trkpt>
      <trkpt lat="49.41414" lon="3.6184">
        <ele>105.4</ele>
        <time>2015-11-09T14:10:51.401Z</time>
      </trkpt>
      <trkpt lat="49.41422" lon="3.61838">
        <ele>105.4</ele>
        <time>2015-11-09T14:10:58.433Z</time>
      </trkpt>
      <trkpt lat="49.41423" lon="3.61837">
        <ele>105.4</ele>
        <time>2015-11-09T14:10:59.384Z</time>
      </trkpt>
      <trkpt lat="49.41431" lon="3.61834">
        <ele>105.2</ele>
        <time>2015-11-09T14:11:05.397Z</time>
      </trkpt>
      <trkpt lat="49.41433" lon="3.61834">
        <ele>105.1</ele>
        <time>2015-11-09T14:11:06.442Z</time>
      </trkpt>
      <trkpt lat="49.41441" lon="3.61832">
        <ele>104.9</ele>
        <time>2015-11-09T14:11:13.406Z</time>
      </trkpt>
      <trkpt lat="49.41443" lon="3.61832">
        <ele>104.9</ele>
        <time>2015-11-09T14:11:14.415Z</time>
      </trkpt>
      <trkpt lat="49.41451" lon="3.6183">
        <ele>105.2</ele>
        <time>2015-11-09T14:11:20.474Z</time>
      </trkpt>
      <trkpt lat="49.41453" lon="3.61829">
        <ele>105.1</ele>
        <time>2015-11-09T14:11:21.473Z</time>
      </trkpt>
      <trkpt lat="49.4146" lon="3.61827">
        <ele>105.8</ele>
        <time>2015-11-09T14:11:26.475Z</time>
      </trkpt>
      <trkpt lat="49.41462" lon="3.61827">
        <ele>105.9</ele>
        <time>2015-11-09T14:11:27.464Z</time>
      </trkpt>
      <trkpt lat="49.41469" lon="3.61825">
        <ele>106.4</ele>
        <time>2015-11-09T14:11:32.698Z</time>
      </trkpt>
      <trkpt lat="49.41471" lon="3.61825">
        <ele>106.4</ele>
        <time>2015-11-09T14:11:33.375Z</time>
      </trkpt>
      <trkpt lat="49.41479" lon="3.61823">
        <ele>107</ele>
        <time>2015-11-09T14:11:39.485Z</time>
      </trkpt>
      <trkpt lat="49.4148" lon="3.61822">
        <ele>107.1</ele>
        <time>2015-11-09T14:11:40.370Z</time>
      </trkpt>
      <trkpt lat="49.41489" lon="3.61819">
        <ele>107.2</ele>
        <time>2015-11-09T14:11:46.482Z</time>
      </trkpt>
      <trkpt lat="49.4149" lon="3.61819">
        <ele>107.3</ele>
        <time>2015-11-09T14:11:47.461Z</time>
      </trkpt>
      <trkpt lat="49.41498" lon="3.61815">
        <ele>107</ele>
        <time>2015-11-09T14:11:53.426Z</time>
      </trkpt>
      <trkpt lat="49.41499" lon="3.61815">
        <ele>107</ele>
        <time>2015-11-09T14:11:54.432Z</time>
      </trkpt>
      <trkpt lat="49.41507" lon="3.61812">
        <ele>106.6</ele>
        <time>2015-11-09T14:12:00.508Z</time>
      </trkpt>
      <trkpt lat="49.41508" lon="3.61811">
        <ele>106.6</ele>
        <time>2015-11-09T14:12:01.380Z</time>
      </trkpt>
      <trkpt lat="49.41516" lon="3.61808">
        <ele>106.5</ele>
        <time>2015-11-09T14:12:07.457Z</time>
      </trkpt>
      <trkpt lat="49.41517" lon="3.61807">
        <ele>106.6</ele>
        <time>2015-11-09T14:12:08.446Z</time>
      </trkpt>
      <trkpt lat="49.41524" lon="3.61807">
        <ele>106.6</ele>
        <time>2015-11-09T14:12:15.479Z</time>
      </trkpt>
      <trkpt lat="49.41526" lon="3.61806">
        <ele>106.8</ele>
        <time>2015-11-09T14:12:16.473Z</time>
      </trkpt>
      <trkpt lat="49.41534" lon="3.61802">
        <ele>107.1</ele>
        <time>2015-11-09T14:12:24.430Z</time>
      </trkpt>
      <trkpt lat="49.41535" lon="3.61802">
        <ele>107.1</ele>
        <time>2015-11-09T14:12:25.520Z</time>
      </trkpt>
      <trkpt lat="49.41544" lon="3.61801">
        <ele>107.3</ele>
        <time>2015-11-09T14:12:31.458Z</time>
      </trkpt>
      <trkpt lat="49.41545" lon="3.61801">
        <ele>107.2</ele>
        <time>2015-11-09T14:12:32.449Z</time>
      </trkpt>
      <trkpt lat="49.41553" lon="3.61798">
        <ele>108</ele>
        <time>2015-11-09T14:12:37.410Z</time>
      </trkpt>
      <trkpt lat="49.41554" lon="3.61797">
        <ele>108.2</ele>
        <time>2015-11-09T14:12:38.380Z</time>
      </trkpt>
      <trkpt lat="49.41563" lon="3.61794">
        <ele>108.2</ele>
        <time>2015-11-09T14:12:44.478Z</time>
      </trkpt>
      <trkpt lat="49.41564" lon="3.61794">
        <ele>108.4</ele>
        <time>2015-11-09T14:12:45.382Z</time>
      </trkpt>
      <trkpt lat="49.41572" lon="3.61791">
        <ele>109</ele>
        <time>2015-11-09T14:12:51.396Z</time>
      </trkpt>
      <trkpt lat="49.41574" lon="3.61791">
        <ele>109.1</ele>
        <time>2015-11-09T14:12:52.396Z</time>
      </trkpt>
      <trkpt lat="49.41583" lon="3.61789">
        <ele>109.3</ele>
        <time>2015-11-09T14:12:58.409Z</time>
      </trkpt>
      <trkpt lat="49.41584" lon="3.61788">
        <ele>109.3</ele>
        <time>2015-11-09T14:12:59.379Z</time>
      </trkpt>
      <trkpt lat="49.41592" lon="3.61786">
        <ele>109.9</ele>
        <time>2015-11-09T14:13:04.499Z</time>
      </trkpt>
      <trkpt lat="49.41594" lon="3.61785">
        <ele>109.9</ele>
        <time>2015-11-09T14:13:05.488Z</time>
      </trkpt>
      <trkpt lat="49.41602" lon="3.61783">
        <ele>110.3</ele>
        <time>2015-11-09T14:13:11.448Z</time>
      </trkpt>
      <trkpt lat="49.41603" lon="3.61783">
        <ele>110.4</ele>
        <time>2015-11-09T14:13:12.444Z</time>
      </trkpt>
      <trkpt lat="49.41611" lon="3.61782">
        <ele>111.3</ele>
        <time>2015-11-09T14:13:17.420Z</time>
      </trkpt>
      <trkpt lat="49.41613" lon="3.61781">
        <ele>111.4</ele>
        <time>2015-11-09T14:13:18.445Z</time>
      </trkpt>
      <trkpt lat="49.41621" lon="3.61779">
        <ele>111.4</ele>
        <time>2015-11-09T14:13:24.476Z</time>
      </trkpt>
      <trkpt lat="49.41623" lon="3.61779">
        <ele>111.6</ele>
        <time>2015-11-09T14:13:25.455Z</time>
      </trkpt>
      <trkpt lat="49.41631" lon="3.61777">
        <ele>111.6</ele>
        <time>2015-11-09T14:13:31.407Z</time>
      </trkpt>
      <trkpt lat="49.41632" lon="3.61777">
        <ele>111.4</ele>
        <time>2015-11-09T14:13:32.448Z</time>
      </trkpt>
      <trkpt lat="49.41641" lon="3.61773">
        <ele>111.1</ele>
        <time>2015-11-09T14:13:39.426Z</time>
      </trkpt>
      <trkpt lat="49.41642" lon="3.61773">
        <ele>111.1</ele>
        <time>2015-11-09T14:13:40.413Z</time>
      </trkpt>
      <trkpt lat="49.41651" lon="3.6177">
        <ele>111.3</ele>
        <time>2015-11-09T14:13:46.418Z</time>
      </trkpt>
      <trkpt lat="49.41652" lon="3.6177">
        <ele>111.4</ele>
        <time>2015-11-09T14:13:47.396Z</time>
      </trkpt>
      <trkpt lat="49.4166" lon="3.61768">
        <ele>111.3</ele>
        <time>2015-11-09T14:13:53.418Z</time>
      </trkpt>
      <trkpt lat="49.41662" lon="3.61767">
        <ele>111.2</ele>
        <time>2015-11-09T14:13:54.452Z</time>
      </trkpt>
      <trkpt lat="49.4167" lon="3.61765">
        <ele>111.4</ele>
        <time>2015-11-09T14:14:01.477Z</time>
      </trkpt>
      <trkpt lat="49.41671" lon="3.61765">
        <ele>111.5</ele>
        <time>2015-11-09T14:14:02.476Z</time>
      </trkpt>
      <trkpt lat="49.41678" lon="3.61763">
        <ele>112.7</ele>
        <time>2015-11-09T14:14:30.460Z</time>
      </trkpt>
      <trkpt lat="49.4168" lon="3.61763">
        <ele>112.8</ele>
        <time>2015-11-09T14:14:31.448Z</time>
      </trkpt>
      <trkpt lat="49.41688" lon="3.61761">
        <ele>112.8</ele>
        <time>2015-11-09T14:14:39.517Z</time>
      </trkpt>
      <trkpt lat="49.4169" lon="3.61761">
        <ele>112.6</ele>
        <time>2015-11-09T14:14:40.393Z</time>
      </trkpt>
      <trkpt lat="49.41698" lon="3.61761">
        <ele>112.2</ele>
        <time>2015-11-09T14:14:47.413Z</time>
      </trkpt>
      <trkpt lat="49.41699" lon="3.61761">
        <ele>112.4</ele>
        <time>2015-11-09T14:14:48.452Z</time>
      </trkpt>
      <trkpt lat="49.41707" lon="3.61761">
        <ele>112.4</ele>
        <time>2015-11-09T14:14:55.463Z</time>
      </trkpt>
      <trkpt lat="49.41709" lon="3.61761">
        <ele>112.4</ele>
        <time>2015-11-09T14:14:56.473Z</time>
      </trkpt>
      <trkpt lat="49.41717" lon="3.61762">
        <ele>112</ele>
        <time>2015-11-09T14:15:03.491Z</time>
      </trkpt>
      <trkpt lat="49.41718" lon="3.61762">
        <ele>112</ele>
        <time>2015-11-09T14:15:04.401Z</time>
      </trkpt>
      <trkpt lat="49.41726" lon="3.61764">
        <ele>111.8</ele>
        <time>2015-11-09T14:15:11.414Z</time>
      </trkpt>
      <trkpt lat="49.41727" lon="3.61765">
        <ele>111.8</ele>
        <time>2015-11-09T14:15:12.449Z</time>
      </trkpt>
      <trkpt lat="49.41736" lon="3.61766">
        <ele>111.9</ele>
        <time>2015-11-09T14:15:18.498Z</time>
      </trkpt>
      <trkpt lat="49.41737" lon="3.61766">
        <ele>111.9</ele>
        <time>2015-11-09T14:15:19.390Z</time>
      </trkpt>
      <trkpt lat="49.41745" lon="3.6177">
        <ele>111.1</ele>
        <time>2015-11-09T14:15:26.487Z</time>
      </trkpt>
      <trkpt lat="49.41747" lon="3.61771">
        <ele>111.1</ele>
        <time>2015-11-09T14:15:27.486Z</time>
      </trkpt>
      <trkpt lat="49.41755" lon="3.61772">
        <ele>111.1</ele>
        <time>2015-11-09T14:15:34.415Z</time>
      </trkpt>
      <trkpt lat="49.41756" lon="3.61773">
        <ele>111.1</ele>
        <time>2015-11-09T14:15:35.390Z</time>
      </trkpt>
      <trkpt lat="49.41764" lon="3.61775">
        <ele>111.5</ele>
        <time>2015-11-09T14:15:42.472Z</time>
      </trkpt>
      <trkpt lat="49.41766" lon="3.61775">
        <ele>111.6</ele>
        <time>2015-11-09T14:15:43.461Z</time>
      </trkpt>
      <trkpt lat="49.41774" lon="3.61777">
        <ele>111.8</ele>
        <time>2015-11-09T14:15:50.478Z</time>
      </trkpt>
      <trkpt lat="49.41775" lon="3.61778">
        <ele>111.8</ele>
        <time>2015-11-09T14:15:51.467Z</time>
      </trkpt>
      <trkpt lat="49.41784" lon="3.61779">
        <ele>111.4</ele>
        <time>2015-11-09T14:15:58.504Z</time>
      </trkpt>
      <trkpt lat="49.41785" lon="3.6178">
        <ele>111.4</ele>
        <time>2015-11-09T14:15:59.388Z</time>
      </trkpt>
      <trkpt lat="49.41793" lon="3.61782">
        <ele>111.3</ele>
        <time>2015-11-09T14:16:06.474Z</time>
      </trkpt>
      <trkpt lat="49.41795" lon="3.61782">
        <ele>111.2</ele>
        <time>2015-11-09T14:16:07.457Z</time>
      </trkpt>
      <trkpt lat="49.41804" lon="3.61782">
        <ele>110.7</ele>
        <time>2015-11-09T14:16:14.536Z</time>
      </trkpt>
      <trkpt lat="49.41805" lon="3.61782">
        <ele>110.6</ele>
        <time>2015-11-09T14:16:15.488Z</time>
      </trkpt>
      <trkpt lat="49.41813" lon="3.61784">
        <ele>110.2</ele>
        <time>2015-11-09T14:16:22.413Z</time>
      </trkpt>
      <trkpt lat="49.41814" lon="3.61784">
        <ele>110.1</ele>
        <time>2015-11-09T14:16:23.397Z</time>
      </trkpt>
      <trkpt lat="49.41823" lon="3.61785">
        <ele>109.8</ele>
        <time>2015-11-09T14:16:30.461Z</time>
      </trkpt>
      <trkpt lat="49.41824" lon="3.61786">
        <ele>109.9</ele>
        <time>2015-11-09T14:16:31.464Z</time>
      </trkpt>
      <trkpt lat="49.41833" lon="3.61787">
        <ele>109.4</ele>
        <time>2015-11-09T14:16:38.478Z</time>
      </trkpt>
      <trkpt lat="49.41834" lon="3.61787">
        <ele>109.4</ele>
        <time>2015-11-09T14:16:39.471Z</time>
      </trkpt>
      <trkpt lat="49.41841" lon="3.61788">
        <ele>109.3</ele>
        <time>2015-11-09T14:16:45.499Z</time>
      </trkpt>
      <trkpt lat="49.41843" lon="3.61788">
        <ele>109.2</ele>
        <time>2015-11-09T14:16:46.421Z</time>
      </trkpt>
      <trkpt lat="49.41851" lon="3.61791">
        <ele>109.3</ele>
        <time>2015-11-09T14:16:53.429Z</time>
      </trkpt>
      <trkpt lat="49.41852" lon="3.61791">
        <ele>109.3</ele>
        <time>2015-11-09T14:16:54.452Z</time>
      </trkpt>
      <trkpt lat="49.41861" lon="3.61794">
        <ele>109.3</ele>
        <time>2015-11-09T14:17:01.490Z</time>
      </trkpt>
      <trkpt lat="49.41862" lon="3.61794">
        <ele>109.2</ele>
        <time>2015-11-09T14:17:02.473Z</time>
      </trkpt>
      <trkpt lat="49.4187" lon="3.61795">
        <ele>108.6</ele>
        <time>2015-11-09T14:17:09.428Z</time>
      </trkpt>
      <trkpt lat="49.41872" lon="3.61794">
        <ele>108.4</ele>
        <time>2015-11-09T14:17:10.433Z</time>
      </trkpt>
      <trkpt lat="49.4188" lon="3.61795">
        <ele>107.8</ele>
        <time>2015-11-09T14:17:17.512Z</time>
      </trkpt>
      <trkpt lat="49.41881" lon="3.61795">
        <ele>107.7</ele>
        <time>2015-11-09T14:17:18.491Z</time>
      </trkpt>
      <trkpt lat="49.4189" lon="3.61796">
        <ele>107.5</ele>
        <time>2015-11-09T14:17:25.485Z</time>
      </trkpt>
      <trkpt lat="49.41892" lon="3.61796">
        <ele>107.5</ele>
        <time>2015-11-09T14:17:26.471Z</time>
      </trkpt>
      <trkpt lat="49.41899" lon="3.61798">
        <ele>107.7</ele>
        <time>2015-11-09T14:17:32.477Z</time>
      </trkpt>
      <trkpt lat="49.41901" lon="3.61798">
        <ele>107.7</ele>
        <time>2015-11-09T14:17:33.467Z</time>
      </trkpt>
      <trkpt lat="49.41909" lon="3.61799">
        <ele>107.6</ele>
        <time>2015-11-09T14:17:40.406Z</time>
      </trkpt>
      <trkpt lat="49.41911" lon="3.61799">
        <ele>107.6</ele>
        <time>2015-11-09T14:17:41.382Z</time>
      </trkpt>
      <trkpt lat="49.41919" lon="3.61801">
        <ele>108</ele>
        <time>2015-11-09T14:17:47.411Z</time>
      </trkpt>
      <trkpt lat="49.4192" lon="3.61801">
        <ele>107.9</ele>
        <time>2015-11-09T14:17:48.493Z</time>
      </trkpt>
      <trkpt lat="49.41928" lon="3.61803">
        <ele>108.1</ele>
        <time>2015-11-09T14:17:54.458Z</time>
      </trkpt>
      <trkpt lat="49.41929" lon="3.61804">
        <ele>108.1</ele>
        <time>2015-11-09T14:17:55.437Z</time>
      </trkpt>
      <trkpt lat="49.41938" lon="3.61805">
        <ele>108.4</ele>
        <time>2015-11-09T14:18:04.495Z</time>
      </trkpt>
      <trkpt lat="49.41939" lon="3.61806">
        <ele>108.2</ele>
        <time>2015-11-09T14:18:05.473Z</time>
      </trkpt>
      <trkpt lat="49.41946" lon="3.61812">
        <ele>108.3</ele>
        <time>2015-11-09T14:18:14.540Z</time>
      </trkpt>
      <trkpt lat="49.41947" lon="3.61813">
        <ele>108.3</ele>
        <time>2015-11-09T14:18:15.485Z</time>
      </trkpt>
      <trkpt lat="49.41952" lon="3.61824">
        <ele>108.6</ele>
        <time>2015-11-09T14:18:23.391Z</time>
      </trkpt>
      <trkpt lat="49.41952" lon="3.61826">
        <ele>108.7</ele>
        <time>2015-11-09T14:18:24.441Z</time>
      </trkpt>
      <trkpt lat="49.41951" lon="3.6184">
        <ele>109</ele>
        <time>2015-11-09T14:18:32.478Z</time>
      </trkpt>
      <trkpt lat="49.41951" lon="3.61841">
        <ele>109.1</ele>
        <time>2015-11-09T14:18:33.466Z</time>
      </trkpt>
      <trkpt lat="49.4195" lon="3.61854">
        <ele>110.1</ele>
        <time>2015-11-09T14:18:41.446Z</time>
      </trkpt>
      <trkpt lat="49.41949" lon="3.61855">
        <ele>110.1</ele>
        <time>2015-11-09T14:18:42.450Z</time>
      </trkpt>
      <trkpt lat="49.41948" lon="3.61868">
        <ele>110.3</ele>
        <time>2015-11-09T14:18:50.495Z</time>
      </trkpt>
      <trkpt lat="49.41948" lon="3.61869">
        <ele>110.5</ele>
        <time>2015-11-09T14:18:51.470Z</time>
      </trkpt>
      <trkpt lat="49.41946" lon="3.61881">
        <ele>110.8</ele>
        <time>2015-11-09T14:18:59.410Z</time>
      </trkpt>
      <trkpt lat="49.41945" lon="3.61883">
        <ele>110.8</ele>
        <time>2015-11-09T14:19:00.446Z</time>
      </trkpt>
      <trkpt lat="49.41943" lon="3.61895">
        <ele>111.1</ele>
        <time>2015-11-09T14:19:07.682Z</time>
      </trkpt>
      <trkpt lat="49.41942" lon="3.61896">
        <ele>111.1</ele>
        <time>2015-11-09T14:19:08.477Z</time>
      </trkpt>
      <trkpt lat="49.4194" lon="3.61908">
        <ele>110.6</ele>
        <time>2015-11-09T14:19:16.415Z</time>
      </trkpt>
      <trkpt lat="49.4194" lon="3.6191">
        <ele>110.6</ele>
        <time>2015-11-09T14:19:17.394Z</time>
      </trkpt>
      <trkpt lat="49.41938" lon="3.61922">
        <ele>111.7</ele>
        <time>2015-11-09T14:19:25.471Z</time>
      </trkpt>
      <trkpt lat="49.41938" lon="3.61924">
        <ele>111.8</ele>
        <time>2015-11-09T14:19:26.403Z</time>
      </trkpt>
      <trkpt lat="49.41946" lon="3.6193">
        <ele>111.6</ele>
        <time>2015-11-09T14:19:37.504Z</time>
      </trkpt>
      <trkpt lat="49.41947" lon="3.6193">
        <ele>111.4</ele>
        <time>2015-11-09T14:19:38.594Z</time>
      </trkpt>
      <trkpt lat="49.41955" lon="3.61932">
        <ele>111.5</ele>
        <time>2015-11-09T14:19:46.416Z</time>
      </trkpt>
      <trkpt lat="49.41956" lon="3.61932">
        <ele>111.4</ele>
        <time>2015-11-09T14:19:47.389Z</time>
      </trkpt>
      <trkpt lat="49.41965" lon="3.61935">
        <ele>110.9</ele>
        <time>2015-11-09T14:19:55.481Z</time>
      </trkpt>
      <trkpt lat="49.41966" lon="3.61935">
        <ele>110.7</ele>
        <time>2015-11-09T14:19:56.472Z</time>
      </trkpt>
      <trkpt lat="49.41974" lon="3.61939">
        <ele>110.3</ele>
        <time>2015-11-09T14:20:04.513Z</time>
      </trkpt>
      <trkpt lat="49.41975" lon="3.6194">
        <ele>110.3</ele>
        <time>2015-11-09T14:20:05.397Z</time>
      </trkpt>
      <trkpt lat="49.41984" lon="3.6194">
        <ele>110.8</ele>
        <time>2015-11-09T14:20:14.497Z</time>
      </trkpt>
      <trkpt lat="49.41985" lon="3.6194">
        <ele>110.9</ele>
        <time>2015-11-09T14:20:15.482Z</time>
      </trkpt>
      <trkpt lat="49.41993" lon="3.61939">
        <ele>110.6</ele>
        <time>2015-11-09T14:20:22.394Z</time>
      </trkpt>
      <trkpt lat="49.41994" lon="3.61939">
        <ele>110.7</ele>
        <time>2015-11-09T14:20:23.389Z</time>
      </trkpt>
      <trkpt lat="49.42003" lon="3.61936">
        <ele>110.6</ele>
        <time>2015-11-09T14:20:30.459Z</time>
      </trkpt>
      <trkpt lat="49.42004" lon="3.61936">
        <ele>110.6</ele>
        <time>2015-11-09T14:20:31.452Z</time>
      </trkpt>
      <trkpt lat="49.42013" lon="3.61932">
        <ele>110.8</ele>
        <time>2015-11-09T14:20:38.493Z</time>
      </trkpt>
      <trkpt lat="49.42014" lon="3.61932">
        <ele>110.9</ele>
        <time>2015-11-09T14:20:39.467Z</time>
      </trkpt>
      <trkpt lat="49.42022" lon="3.61933">
        <ele>111</ele>
        <time>2015-11-09T14:20:46.491Z</time>
      </trkpt>
      <trkpt lat="49.42023" lon="3.61934">
        <ele>111</ele>
        <time>2015-11-09T14:20:47.500Z</time>
      </trkpt>
      <trkpt lat="49.4203" lon="3.61938">
        <ele>110.6</ele>
        <time>2015-11-09T14:20:55.463Z</time>
      </trkpt>
      <trkpt lat="49.42031" lon="3.61939">
        <ele>110.3</ele>
        <time>2015-11-09T14:20:56.451Z</time>
      </trkpt>
      <trkpt lat="49.4204" lon="3.61944">
        <ele>109.9</ele>
        <time>2015-11-09T14:21:02.463Z</time>
      </trkpt>
      <trkpt lat="49.42041" lon="3.61944">
        <ele>109.9</ele>
        <time>2015-11-09T14:21:03.458Z</time>
      </trkpt>
      <trkpt lat="49.42049" lon="3.61948">
        <ele>110</ele>
        <time>2015-11-09T14:21:11.407Z</time>
      </trkpt>
      <trkpt lat="49.4205" lon="3.61948">
        <ele>110.1</ele>
        <time>2015-11-09T14:21:12.429Z</time>
      </trkpt>
      <trkpt lat="49.42057" lon="3.61953">
        <ele>110.4</ele>
        <time>2015-11-09T14:21:20.483Z</time>
      </trkpt>
      <trkpt lat="49.42058" lon="3.61953">
        <ele>110.4</ele>
        <time>2015-11-09T14:21:21.473Z</time>
      </trkpt>
      <trkpt lat="49.42065" lon="3.61956">
        <ele>110.5</ele>
        <time>2015-11-09T14:21:28.471Z</time>
      </trkpt>
      <trkpt lat="49.42067" lon="3.61957">
        <ele>110.6</ele>
        <time>2015-11-09T14:21:29.474Z</time>
      </trkpt>
      <trkpt lat="49.42075" lon="3.6196">
        <ele>109.8</ele>
        <time>2015-11-09T14:21:35.443Z</time>
      </trkpt>
      <trkpt lat="49.42077" lon="3.61961">
        <ele>109.7</ele>
        <time>2015-11-09T14:21:36.437Z</time>
      </trkpt>
      <trkpt lat="49.42085" lon="3.61967">
        <ele>109.7</ele>
        <time>2015-11-09T14:21:42.514Z</time>
      </trkpt>
      <trkpt lat="49.42086" lon="3.61968">
        <ele>109.8</ele>
        <time>2015-11-09T14:21:43.379Z</time>
      </trkpt>
      <trkpt lat="49.42094" lon="3.61973">
        <ele>110.4</ele>
        <time>2015-11-09T14:21:50.422Z</time>
      </trkpt>
      <trkpt lat="49.42095" lon="3.61974">
        <ele>110.3</ele>
        <time>2015-11-09T14:21:51.384Z</time>
      </trkpt>
      <trkpt lat="49.42102" lon="3.61978">
        <ele>110.7</ele>
        <time>2015-11-09T14:21:57.388Z</time>
      </trkpt>
      <trkpt lat="49.42104" lon="3.61978">
        <ele>110.8</ele>
        <time>2015-11-09T14:21:58.385Z</time>
      </trkpt>
      <trkpt lat="49.42111" lon="3.61982">
        <ele>111.1</ele>
        <time>2015-11-09T14:22:04.506Z</time>
      </trkpt>
      <trkpt lat="49.42112" lon="3.61982">
        <ele>111.1</ele>
        <time>2015-11-09T14:22:05.380Z</time>
      </trkpt>
      <trkpt lat="49.4212" lon="3.61987">
        <ele>111.6</ele>
        <time>2015-11-09T14:22:13.470Z</time>
      </trkpt>
      <trkpt lat="49.42121" lon="3.61987">
        <ele>111.6</ele>
        <time>2015-11-09T14:22:14.451Z</time>
      </trkpt>
      <trkpt lat="49.42129" lon="3.61993">
        <ele>111.8</ele>
        <time>2015-11-09T14:22:22.495Z</time>
      </trkpt>
      <trkpt lat="49.4213" lon="3.61993">
        <ele>111.7</ele>
        <time>2015-11-09T14:22:23.488Z</time>
      </trkpt>
      <trkpt lat="49.42138" lon="3.61998">
        <ele>111.9</ele>
        <time>2015-11-09T14:22:30.460Z</time>
      </trkpt>
      <trkpt lat="49.42139" lon="3.61998">
        <ele>111.8</ele>
        <time>2015-11-09T14:22:31.450Z</time>
      </trkpt>
      <trkpt lat="49.42147" lon="3.62002">
        <ele>111.5</ele>
        <time>2015-11-09T14:22:38.466Z</time>
      </trkpt>
      <trkpt lat="49.42148" lon="3.62003">
        <ele>111.4</ele>
        <time>2015-11-09T14:22:39.468Z</time>
      </trkpt>
      <trkpt lat="49.42156" lon="3.62009">
        <ele>111.3</ele>
        <time>2015-11-09T14:22:48.465Z</time>
      </trkpt>
      <trkpt lat="49.42157" lon="3.62009">
        <ele>111.4</ele>
        <time>2015-11-09T14:22:49.442Z</time>
      </trkpt>
      <trkpt lat="49.42164" lon="3.62016">
        <ele>111.4</ele>
        <time>2015-11-09T14:22:55.403Z</time>
      </trkpt>
      <trkpt lat="49.42165" lon="3.62016">
        <ele>111.4</ele>
        <time>2015-11-09T14:22:56.395Z</time>
      </trkpt>
      <trkpt lat="49.42174" lon="3.62018">
        <ele>111.3</ele>
        <time>2015-11-09T14:23:02.482Z</time>
      </trkpt>
      <trkpt lat="49.42175" lon="3.62019">
        <ele>111.2</ele>
        <time>2015-11-09T14:23:03.465Z</time>
      </trkpt>
      <trkpt lat="49.42183" lon="3.62023">
        <ele>111.4</ele>
        <time>2015-11-09T14:23:11.439Z</time>
      </trkpt>
      <trkpt lat="49.42185" lon="3.62023">
        <ele>111.4</ele>
        <time>2015-11-09T14:23:12.447Z</time>
      </trkpt>
      <trkpt lat="49.42191" lon="3.62027">
        <ele>111.8</ele>
        <time>2015-11-09T14:23:19.464Z</time>
      </trkpt>
      <trkpt lat="49.42191" lon="3.62028">
        <ele>111.7</ele>
        <time>2015-11-09T14:23:20.444Z</time>
      </trkpt>
      <trkpt lat="49.42191" lon="3.62028">
        <ele>111.7</ele>
        <time>2015-11-09T14:23:20.472Z</time>
      </trkpt>
      <trkpt lat="49.42192" lon="3.62029">
        <ele>111.6</ele>
        <time>2015-11-09T14:23:21.444Z</time>
      </trkpt>
      <trkpt lat="49.422" lon="3.62031">
        <ele>112</ele>
        <time>2015-11-09T14:23:33.488Z</time>
      </trkpt>
      <trkpt lat="49.42201" lon="3.62032">
        <ele>111.9</ele>
        <time>2015-11-09T14:23:34.465Z</time>
      </trkpt>
      <trkpt lat="49.42209" lon="3.62035">
        <ele>111.9</ele>
        <time>2015-11-09T14:23:39.430Z</time>
      </trkpt>
      <trkpt lat="49.4221" lon="3.62036">
        <ele>112</ele>
        <time>2015-11-09T14:23:40.409Z</time>
      </trkpt>
      <trkpt lat="49.42218" lon="3.6204">
        <ele>112.4</ele>
        <time>2015-11-09T14:23:46.488Z</time>
      </trkpt>
      <trkpt lat="49.42219" lon="3.6204">
        <ele>112.4</ele>
        <time>2015-11-09T14:23:47.380Z</time>
      </trkpt>
      <trkpt lat="49.42227" lon="3.62043">
        <ele>112.3</ele>
        <time>2015-11-09T14:23:53.438Z</time>
      </trkpt>
      <trkpt lat="49.42228" lon="3.62044">
        <ele>112.3</ele>
        <time>2015-11-09T14:23:54.441Z</time>
      </trkpt>
      <trkpt lat="49.42236" lon="3.62048">
        <ele>112.4</ele>
        <time>2015-11-09T14:24:00.459Z</time>
      </trkpt>
      <trkpt lat="49.42237" lon="3.62049">
        <ele>112.5</ele>
        <time>2015-11-09T14:24:01.448Z</time>
      </trkpt>
      <trkpt lat="49.42245" lon="3.62051">
        <ele>111.9</ele>
        <time>2015-11-09T14:24:06.499Z</time>
      </trkpt>
      <trkpt lat="49.42246" lon="3.62052">
        <ele>111.8</ele>
        <time>2015-11-09T14:24:07.382Z</time>
      </trkpt>
      <trkpt lat="49.42254" lon="3.62056">
        <ele>110.8</ele>
        <time>2015-11-09T14:24:13.463Z</time>
      </trkpt>
      <trkpt lat="49.42256" lon="3.62057">
        <ele>110.5</ele>
        <time>2015-11-09T14:24:14.457Z</time>
      </trkpt>
      <trkpt lat="49.42263" lon="3.62061">
        <ele>109.4</ele>
        <time>2015-11-09T14:24:18.461Z</time>
      </trkpt>
      <trkpt lat="49.42264" lon="3.62063">
        <ele>109.4</ele>
        <time>2015-11-09T14:24:19.437Z</time>
      </trkpt>
      <trkpt lat="49.42272" lon="3.62066">
        <ele>109.5</ele>
        <time>2015-11-09T14:24:25.435Z</time>
      </trkpt>
      <trkpt lat="49.42273" lon="3.62067">
        <ele>109.4</ele>
        <time>2015-11-09T14:24:26.392Z</time>
      </trkpt>
      <trkpt lat="49.42281" lon="3.62071">
        <ele>109.6</ele>
        <time>2015-11-09T14:24:33.473Z</time>
      </trkpt>
      <trkpt lat="49.42282" lon="3.62072">
        <ele>109.6</ele>
        <time>2015-11-09T14:24:34.465Z</time>
      </trkpt>
      <trkpt lat="49.4229" lon="3.62076">
        <ele>110.2</ele>
        <time>2015-11-09T14:24:41.453Z</time>
      </trkpt>
      <trkpt lat="49.42291" lon="3.62076">
        <ele>110.4</ele>
        <time>2015-11-09T14:24:42.433Z</time>
      </trkpt>
      <trkpt lat="49.42299" lon="3.62079">
        <ele>111.3</ele>
        <time>2015-11-09T14:24:49.474Z</time>
      </trkpt>
      <trkpt lat="49.42301" lon="3.6208">
        <ele>111.3</ele>
        <time>2015-11-09T14:24:50.458Z</time>
      </trkpt>
      <trkpt lat="49.42309" lon="3.62081">
        <ele>112.5</ele>
        <time>2015-11-09T14:24:57.593Z</time>
      </trkpt>
      <trkpt lat="49.4231" lon="3.62081">
        <ele>112.6</ele>
        <time>2015-11-09T14:24:58.371Z</time>
      </trkpt>
      <trkpt lat="49.42318" lon="3.62085">
        <ele>113.1</ele>
        <time>2015-11-09T14:25:05.405Z</time>
      </trkpt>
      <trkpt lat="49.42319" lon="3.62086">
        <ele>113.2</ele>
        <time>2015-11-09T14:25:06.439Z</time>
      </trkpt>
      <trkpt lat="49.42328" lon="3.62089">
        <ele>113.4</ele>
        <time>2015-11-09T14:25:13.460Z</time>
      </trkpt>
      <trkpt lat="49.42329" lon="3.62089">
        <ele>113.6</ele>
        <time>2015-11-09T14:25:14.457Z</time>
      </trkpt>
      <trkpt lat="49.42337" lon="3.62092">
        <ele>114.8</ele>
        <time>2015-11-09T14:25:21.473Z</time>
      </trkpt>
      <trkpt lat="49.42338" lon="3.62092">
        <ele>114.9</ele>
        <time>2015-11-09T14:25:22.469Z</time>
      </trkpt>
      <trkpt lat="49.42346" lon="3.62094">
        <ele>115.6</ele>
        <time>2015-11-09T14:25:29.439Z</time>
      </trkpt>
      <trkpt lat="49.42348" lon="3.62094">
        <ele>115.6</ele>
        <time>2015-11-09T14:25:30.435Z</time>
      </trkpt>
      <trkpt lat="49.42356" lon="3.62096">
        <ele>116</ele>
        <time>2015-11-09T14:25:37.464Z</time>
      </trkpt>
      <trkpt lat="49.42357" lon="3.62096">
        <ele>116.1</ele>
        <time>2015-11-09T14:25:38.449Z</time>
      </trkpt>
      <trkpt lat="49.42366" lon="3.62098">
        <ele>116.4</ele>
        <time>2015-11-09T14:25:45.967Z</time>
      </trkpt>
      <trkpt lat="49.42367" lon="3.62099">
        <ele>116.3</ele>
        <time>2015-11-09T14:25:46.384Z</time>
      </trkpt>
      <trkpt lat="49.42375" lon="3.62101">
        <ele>116.2</ele>
        <time>2015-11-09T14:25:52.396Z</time>
      </trkpt>
      <trkpt lat="49.42376" lon="3.62102">
        <ele>116.4</ele>
        <time>2015-11-09T14:25:53.393Z</time>
      </trkpt>
      <trkpt lat="49.42385" lon="3.62104">
        <ele>116.9</ele>
        <time>2015-11-09T14:26:01.400Z</time>
      </trkpt>
      <trkpt lat="49.42386" lon="3.62104">
        <ele>117.2</ele>
        <time>2015-11-09T14:26:02.385Z</time>
      </trkpt>
      <trkpt lat="49.42394" lon="3.62106">
        <ele>117.6</ele>
        <time>2015-11-09T14:26:08.471Z</time>
      </trkpt>
      <trkpt lat="49.42395" lon="3.62106">
        <ele>117.8</ele>
        <time>2015-11-09T14:26:09.453Z</time>
      </trkpt>
      <trkpt lat="49.42403" lon="3.62106">
        <ele>117.7</ele>
        <time>2015-11-09T14:26:16.425Z</time>
      </trkpt>
      <trkpt lat="49.42405" lon="3.62106">
        <ele>117.7</ele>
        <time>2015-11-09T14:26:17.409Z</time>
      </trkpt>
      <trkpt lat="49.42413" lon="3.62108">
        <ele>117.6</ele>
        <time>2015-11-09T14:26:24.457Z</time>
      </trkpt>
      <trkpt lat="49.42414" lon="3.62108">
        <ele>117.7</ele>
        <time>2015-11-09T14:26:25.449Z</time>
      </trkpt>
      <trkpt lat="49.42422" lon="3.62107">
        <ele>118</ele>
        <time>2015-11-09T14:26:32.472Z</time>
      </trkpt>
      <trkpt lat="49.42423" lon="3.62107">
        <ele>117.9</ele>
        <time>2015-11-09T14:26:33.466Z</time>
      </trkpt>
      <trkpt lat="49.42431" lon="3.62107">
        <ele>117.5</ele>
        <time>2015-11-09T14:26:40.497Z</time>
      </trkpt>
      <trkpt lat="49.42433" lon="3.62108">
        <ele>117.3</ele>
        <time>2015-11-09T14:26:41.472Z</time>
      </trkpt>
      <trkpt lat="49.42441" lon="3.6211">
        <ele>116</ele>
        <time>2015-11-09T14:26:47.438Z</time>
      </trkpt>
      <trkpt lat="49.42443" lon="3.62111">
        <ele>116</ele>
        <time>2015-11-09T14:26:48.440Z</time>
      </trkpt>
      <trkpt lat="49.42451" lon="3.62111">
        <ele>115</ele>
        <time>2015-11-09T14:26:55.464Z</time>
      </trkpt>
      <trkpt lat="49.42452" lon="3.62111">
        <ele>115.1</ele>
        <time>2015-11-09T14:26:56.465Z</time>
      </trkpt>
      <trkpt lat="49.42461" lon="3.6211">
        <ele>114.7</ele>
        <time>2015-11-09T14:27:03.422Z</time>
      </trkpt>
      <trkpt lat="49.42463" lon="3.62109">
        <ele>114.7</ele>
        <time>2015-11-09T14:27:04.393Z</time>
      </trkpt>
      <trkpt lat="49.42471" lon="3.6211">
        <ele>114.5</ele>
        <time>2015-11-09T14:27:10.400Z</time>
      </trkpt>
      <trkpt lat="49.42473" lon="3.6211">
        <ele>114.5</ele>
        <time>2015-11-09T14:27:11.379Z</time>
      </trkpt>
      <trkpt lat="49.42481" lon="3.62108">
        <ele>114.9</ele>
        <time>2015-11-09T14:27:19.458Z</time>
      </trkpt>
      <trkpt lat="49.42482" lon="3.62108">
        <ele>115</ele>
        <time>2015-11-09T14:27:20.443Z</time>
      </trkpt>
      <trkpt lat="49.42491" lon="3.62108">
        <ele>114.8</ele>
        <time>2015-11-09T14:27:27.478Z</time>
      </trkpt>
      <trkpt lat="49.42492" lon="3.62107">
        <ele>114.9</ele>
        <time>2015-11-09T14:27:28.455Z</time>
      </trkpt>
      <trkpt lat="49.42501" lon="3.62106">
        <ele>114.9</ele>
        <time>2015-11-09T14:27:35.407Z</time>
      </trkpt>
      <trkpt lat="49.42502" lon="3.62106">
        <ele>114.7</ele>
        <time>2015-11-09T14:27:36.482Z</time>
      </trkpt>
      <trkpt lat="49.4251" lon="3.62104">
        <ele>114.2</ele>
        <time>2015-11-09T14:27:44.489Z</time>
      </trkpt>
      <trkpt lat="49.42511" lon="3.62103">
        <ele>114.3</ele>
        <time>2015-11-09T14:27:45.382Z</time>
      </trkpt>
      <trkpt lat="49.42519" lon="3.62102">
        <ele>113.7</ele>
        <time>2015-11-09T14:27:51.491Z</time>
      </trkpt>
      <trkpt lat="49.4252" lon="3.62102">
        <ele>113.5</ele>
        <time>2015-11-09T14:27:52.467Z</time>
      </trkpt>
      <trkpt lat="49.42528" lon="3.62101">
        <ele>113.4</ele>
        <time>2015-11-09T14:27:58.394Z</time>
      </trkpt>
      <trkpt lat="49.42529" lon="3.62101">
        <ele>113.5</ele>
        <time>2015-11-09T14:27:59.397Z</time>
      </trkpt>
      <trkpt lat="49.42538" lon="3.62101">
        <ele>114.1</ele>
        <time>2015-11-09T14:28:05.404Z</time>
      </trkpt>
      <trkpt lat="49.42539" lon="3.62101">
        <ele>114.3</ele>
        <time>2015-11-09T14:28:06.449Z</time>
      </trkpt>
      <trkpt lat="49.42547" lon="3.62098">
        <ele>114.8</ele>
        <time>2015-11-09T14:28:12.463Z</time>
      </trkpt>
      <trkpt lat="49.42548" lon="3.62098">
        <ele>114.7</ele>
        <time>2015-11-09T14:28:13.447Z</time>
      </trkpt>
      <trkpt lat="49.42557" lon="3.62096">
        <ele>114</ele>
        <time>2015-11-09T14:28:21.528Z</time>
      </trkpt>
      <trkpt lat="49.42558" lon="3.62095">
        <ele>113.9</ele>
        <time>2015-11-09T14:28:22.380Z</time>
      </trkpt>
      <trkpt lat="49.42566" lon="3.62093">
        <ele>113.6</ele>
        <time>2015-11-09T14:28:29.413Z</time>
      </trkpt>
      <trkpt lat="49.42567" lon="3.62093">
        <ele>113.7</ele>
        <time>2015-11-09T14:28:30.438Z</time>
      </trkpt>
      <trkpt lat="49.42575" lon="3.62089">
        <ele>113.9</ele>
        <time>2015-11-09T14:28:38.480Z</time>
      </trkpt>
      <trkpt lat="49.42577" lon="3.62089">
        <ele>113.9</ele>
        <time>2015-11-09T14:28:39.474Z</time>
      </trkpt>
      <trkpt lat="49.42584" lon="3.62087">
        <ele>114.2</ele>
        <time>2015-11-09T14:28:46.505Z</time>
      </trkpt>
      <trkpt lat="49.42586" lon="3.62086">
        <ele>114.1</ele>
        <time>2015-11-09T14:28:47.389Z</time>
      </trkpt>
      <trkpt lat="49.42594" lon="3.62084">
        <ele>114.1</ele>
        <time>2015-11-09T14:28:54.465Z</time>
      </trkpt>
      <trkpt lat="49.42595" lon="3.62083">
        <ele>114</ele>
        <time>2015-11-09T14:28:55.450Z</time>
      </trkpt>
      <trkpt lat="49.42603" lon="3.62079">
        <ele>114.3</ele>
        <time>2015-11-09T14:29:04.503Z</time>
      </trkpt>
      <trkpt lat="49.42604" lon="3.62078">
        <ele>114.3</ele>
        <time>2015-11-09T14:29:05.377Z</time>
      </trkpt>
      <trkpt lat="49.42613" lon="3.62078">
        <ele>114.1</ele>
        <time>2015-11-09T14:29:12.455Z</time>
      </trkpt>
      <trkpt lat="49.42614" lon="3.62077">
        <ele>114</ele>
        <time>2015-11-09T14:29:13.447Z</time>
      </trkpt>
      <trkpt lat="49.42622" lon="3.62075">
        <ele>114</ele>
        <time>2015-11-09T14:29:19.471Z</time>
      </trkpt>
      <trkpt lat="49.42623" lon="3.62074">
        <ele>114</ele>
        <time>2015-11-09T14:29:20.455Z</time>
      </trkpt>
      <trkpt lat="49.42632" lon="3.62072">
        <ele>114.5</ele>
        <time>2015-11-09T14:29:27.519Z</time>
      </trkpt>
      <trkpt lat="49.42633" lon="3.62071">
        <ele>114.5</ele>
        <time>2015-11-09T14:29:28.480Z</time>
      </trkpt>
      <trkpt lat="49.42641" lon="3.6207">
        <ele>113.8</ele>
        <time>2015-11-09T14:29:35.415Z</time>
      </trkpt>
      <trkpt lat="49.42643" lon="3.6207">
        <ele>113.9</ele>
        <time>2015-11-09T14:29:36.438Z</time>
      </trkpt>
      <trkpt lat="49.42651" lon="3.62068">
        <ele>113.7</ele>
        <time>2015-11-09T14:29:42.467Z</time>
      </trkpt>
      <trkpt lat="49.42652" lon="3.62067">
        <ele>113.8</ele>
        <time>2015-11-09T14:29:43.444Z</time>
      </trkpt>
      <trkpt lat="49.4266" lon="3.62065">
        <ele>114.4</ele>
        <time>2015-11-09T14:29:50.499Z</time>
      </trkpt>
      <trkpt lat="49.42661" lon="3.62064">
        <ele>114.3</ele>
        <time>2015-11-09T14:29:51.479Z</time>
      </trkpt>
      <trkpt lat="49.42669" lon="3.62061">
        <ele>114.9</ele>
        <time>2015-11-09T14:29:59.397Z</time>
      </trkpt>
      <trkpt lat="49.4267" lon="3.6206">
        <ele>115</ele>
        <time>2015-11-09T14:30:00.492Z</time>
      </trkpt>
      <trkpt lat="49.42679" lon="3.62057">
        <ele>115.4</ele>
        <time>2015-11-09T14:30:09.496Z</time>
      </trkpt>
      <trkpt lat="49.4268" lon="3.62057">
        <ele>115.4</ele>
        <time>2015-11-09T14:30:10.477Z</time>
      </trkpt>
      <trkpt lat="49.42688" lon="3.62055">
        <ele>116</ele>
        <time>2015-11-09T14:30:17.509Z</time>
      </trkpt>
      <trkpt lat="49.42689" lon="3.62055">
        <ele>116.1</ele>
        <time>2015-11-09T14:30:18.492Z</time>
      </trkpt>
      <trkpt lat="49.42697" lon="3.62055">
        <ele>114.9</ele>
        <time>2015-11-09T14:30:25.477Z</time>
      </trkpt>
      <trkpt lat="49.42699" lon="3.62055">
        <ele>114.5</ele>
        <time>2015-11-09T14:30:26.474Z</time>
      </trkpt>
      <trkpt lat="49.42706" lon="3.62055">
        <ele>114.1</ele>
        <time>2015-11-09T14:30:31.477Z</time>
      </trkpt>
      <trkpt lat="49.42708" lon="3.62056">
        <ele>114.1</ele>
        <time>2015-11-09T14:30:32.380Z</time>
      </trkpt>
      <trkpt lat="49.42716" lon="3.62052">
        <ele>114.4</ele>
        <time>2015-11-09T14:30:40.394Z</time>
      </trkpt>
      <trkpt lat="49.42718" lon="3.62051">
        <ele>114.7</ele>
        <time>2015-11-09T14:30:41.380Z</time>
      </trkpt>
      <trkpt lat="49.42725" lon="3.62048">
        <ele>115</ele>
        <time>2015-11-09T14:30:46.396Z</time>
      </trkpt>
      <trkpt lat="49.42726" lon="3.62048">
        <ele>114.7</ele>
        <time>2015-11-09T14:30:47.367Z</time>
      </trkpt>
      <trkpt lat="49.42735" lon="3.62048">
        <ele>114.4</ele>
        <time>2015-11-09T14:30:54.657Z</time>
      </trkpt>
      <trkpt lat="49.42736" lon="3.62047">
        <ele>114.5</ele>
        <time>2015-11-09T14:30:55.379Z</time>
      </trkpt>
      <trkpt lat="49.42744" lon="3.62044">
        <ele>114.7</ele>
        <time>2015-11-09T14:31:02.411Z</time>
      </trkpt>
      <trkpt lat="49.42745" lon="3.62043">
        <ele>114.7</ele>
        <time>2015-11-09T14:31:03.387Z</time>
      </trkpt>
      <trkpt lat="49.42753" lon="3.62041">
        <ele>114.8</ele>
        <time>2015-11-09T14:31:10.429Z</time>
      </trkpt>
      <trkpt lat="49.42754" lon="3.6204">
        <ele>114.7</ele>
        <time>2015-11-09T14:31:11.404Z</time>
      </trkpt>
      <trkpt lat="49.42762" lon="3.62038">
        <ele>115.1</ele>
        <time>2015-11-09T14:31:18.470Z</time>
      </trkpt>
      <trkpt lat="49.42763" lon="3.62037">
        <ele>115.2</ele>
        <time>2015-11-09T14:31:19.452Z</time>
      </trkpt>
      <trkpt lat="49.4277" lon="3.62034">
        <ele>115.9</ele>
        <time>2015-11-09T14:31:26.491Z</time>
      </trkpt>
      <trkpt lat="49.42771" lon="3.62033">
        <ele>116</ele>
        <time>2015-11-09T14:31:27.483Z</time>
      </trkpt>
      <trkpt lat="49.4278" lon="3.62031">
        <ele>116.3</ele>
        <time>2015-11-09T14:31:34.399Z</time>
      </trkpt>
      <trkpt lat="49.42781" lon="3.62031">
        <ele>116.3</ele>
        <time>2015-11-09T14:31:35.386Z</time>
      </trkpt>
      <trkpt lat="49.42789" lon="3.6203">
        <ele>115.8</ele>
        <time>2015-11-09T14:31:42.451Z</time>
      </trkpt>
      <trkpt lat="49.4279" lon="3.62029">
        <ele>115.9</ele>
        <time>2015-11-09T14:31:43.499Z</time>
      </trkpt>
      <trkpt lat="49.42798" lon="3.62028">
        <ele>115.4</ele>
        <time>2015-11-09T14:31:50.377Z</time>
      </trkpt>
      <trkpt lat="49.42799" lon="3.62027">
        <ele>115.3</ele>
        <time>2015-11-09T14:31:51.383Z</time>
      </trkpt>
      <trkpt lat="49.42807" lon="3.62025">
        <ele>114.4</ele>
        <time>2015-11-09T14:31:58.374Z</time>
      </trkpt>
      <trkpt lat="49.42808" lon="3.62025">
        <ele>114.3</ele>
        <time>2015-11-09T14:31:59.371Z</time>
      </trkpt>
      <trkpt lat="49.42816" lon="3.62023">
        <ele>113.5</ele>
        <time>2015-11-09T14:32:06.525Z</time>
      </trkpt>
      <trkpt lat="49.42817" lon="3.62022">
        <ele>113.6</ele>
        <time>2015-11-09T14:32:07.380Z</time>
      </trkpt>
      <trkpt lat="49.42826" lon="3.62021">
        <ele>113.9</ele>
        <time>2015-11-09T14:32:15.401Z</time>
      </trkpt>
      <trkpt lat="49.42827" lon="3.62019">
        <ele>114</ele>
        <time>2015-11-09T14:32:16.372Z</time>
      </trkpt>
      <trkpt lat="49.42835" lon="3.62017">
        <ele>114.3</ele>
        <time>2015-11-09T14:32:21.422Z</time>
      </trkpt>
      <trkpt lat="49.42837" lon="3.62017">
        <ele>114.3</ele>
        <time>2015-11-09T14:32:22.420Z</time>
      </trkpt>
      <trkpt lat="49.42845" lon="3.62017">
        <ele>114.6</ele>
        <time>2015-11-09T14:32:28.501Z</time>
      </trkpt>
      <trkpt lat="49.42846" lon="3.62017">
        <ele>114.7</ele>
        <time>2015-11-09T14:32:29.546Z</time>
      </trkpt>
      <trkpt lat="49.42854" lon="3.62015">
        <ele>114.6</ele>
        <time>2015-11-09T14:32:36.501Z</time>
      </trkpt>
      <trkpt lat="49.42855" lon="3.62014">
        <ele>114.7</ele>
        <time>2015-11-09T14:32:37.377Z</time>
      </trkpt>
      <trkpt lat="49.42863" lon="3.6201">
        <ele>114.9</ele>
        <time>2015-11-09T14:32:45.402Z</time>
      </trkpt>
      <trkpt lat="49.42864" lon="3.62009">
        <ele>115</ele>
        <time>2015-11-09T14:32:46.594Z</time>
      </trkpt>
      <trkpt lat="49.42872" lon="3.62003">
        <ele>115.5</ele>
        <time>2015-11-09T14:32:54.520Z</time>
      </trkpt>
      <trkpt lat="49.42873" lon="3.62003">
        <ele>115.5</ele>
        <time>2015-11-09T14:32:55.387Z</time>
      </trkpt>
      <trkpt lat="49.42881" lon="3.61999">
        <ele>115.7</ele>
        <time>2015-11-09T14:33:02.496Z</time>
      </trkpt>
      <trkpt lat="49.42882" lon="3.61998">
        <ele>115.7</ele>
        <time>2015-11-09T14:33:03.395Z</time>
      </trkpt>
      <trkpt lat="49.4289" lon="3.61995">
        <ele>116.1</ele>
        <time>2015-11-09T14:33:11.492Z</time>
      </trkpt>
      <trkpt lat="49.42891" lon="3.61995">
        <ele>115.9</ele>
        <time>2015-11-09T14:33:12.668Z</time>
      </trkpt>
      <trkpt lat="49.42899" lon="3.61992">
        <ele>115.5</ele>
        <time>2015-11-09T14:33:18.446Z</time>
      </trkpt>
      <trkpt lat="49.42901" lon="3.61992">
        <ele>115.5</ele>
        <time>2015-11-09T14:33:19.443Z</time>
      </trkpt>
      <trkpt lat="49.42908" lon="3.61986">
        <ele>115.8</ele>
        <time>2015-11-09T14:33:27.425Z</time>
      </trkpt>
      <trkpt lat="49.42909" lon="3.61985">
        <ele>115.8</ele>
        <time>2015-11-09T14:33:28.419Z</time>
      </trkpt>
      <trkpt lat="49.42917" lon="3.61979">
        <ele>116.6</ele>
        <time>2015-11-09T14:33:36.459Z</time>
      </trkpt>
      <trkpt lat="49.42918" lon="3.61978">
        <ele>116.7</ele>
        <time>2015-11-09T14:33:37.449Z</time>
      </trkpt>
      <trkpt lat="49.42925" lon="3.61972">
        <ele>117.3</ele>
        <time>2015-11-09T14:33:43.457Z</time>
      </trkpt>
      <trkpt lat="49.42926" lon="3.61971">
        <ele>117.3</ele>
        <time>2015-11-09T14:33:44.445Z</time>
      </trkpt>
      <trkpt lat="49.42932" lon="3.61964">
        <ele>117.4</ele>
        <time>2015-11-09T14:33:51.625Z</time>
      </trkpt>
      <trkpt lat="49.42934" lon="3.61963">
        <ele>117.4</ele>
        <time>2015-11-09T14:33:52.412Z</time>
      </trkpt>
      <trkpt lat="49.42941" lon="3.61957">
        <ele>117.3</ele>
        <time>2015-11-09T14:33:58.391Z</time>
      </trkpt>
      <trkpt lat="49.42942" lon="3.61956">
        <ele>117.3</ele>
        <time>2015-11-09T14:33:59.375Z</time>
      </trkpt>
      <trkpt lat="49.42949" lon="3.6195">
        <ele>117.5</ele>
        <time>2015-11-09T14:34:05.383Z</time>
      </trkpt>
      <trkpt lat="49.4295" lon="3.61948">
        <ele>117.4</ele>
        <time>2015-11-09T14:34:06.419Z</time>
      </trkpt>
      <trkpt lat="49.42958" lon="3.61941">
        <ele>117.1</ele>
        <time>2015-11-09T14:34:15.472Z</time>
      </trkpt>
      <trkpt lat="49.42959" lon="3.6194">
        <ele>117.1</ele>
        <time>2015-11-09T14:34:16.453Z</time>
      </trkpt>
      <trkpt lat="49.42966" lon="3.61932">
        <ele>117</ele>
        <time>2015-11-09T14:34:23.433Z</time>
      </trkpt>
      <trkpt lat="49.42967" lon="3.61931">
        <ele>117</ele>
        <time>2015-11-09T14:34:24.425Z</time>
      </trkpt>
      <trkpt lat="49.42973" lon="3.61924">
        <ele>116.3</ele>
        <time>2015-11-09T14:34:30.457Z</time>
      </trkpt>
      <trkpt lat="49.42974" lon="3.61923">
        <ele>116.1</ele>
        <time>2015-11-09T14:34:31.431Z</time>
      </trkpt>
      <trkpt lat="49.42981" lon="3.61916">
        <ele>115.1</ele>
        <time>2015-11-09T14:34:37.444Z</time>
      </trkpt>
      <trkpt lat="49.42982" lon="3.61915">
        <ele>114.9</ele>
        <time>2015-11-09T14:34:38.433Z</time>
      </trkpt>
      <trkpt lat="49.42988" lon="3.61906">
        <ele>114.3</ele>
        <time>2015-11-09T14:34:44.452Z</time>
      </trkpt>
      <trkpt lat="49.42989" lon="3.61904">
        <ele>114.2</ele>
        <time>2015-11-09T14:34:45.442Z</time>
      </trkpt>
      <trkpt lat="49.42994" lon="3.61896">
        <ele>114.6</ele>
        <time>2015-11-09T14:34:50.403Z</time>
      </trkpt>
      <trkpt lat="49.42995" lon="3.61895">
        <ele>114.6</ele>
        <time>2015-11-09T14:34:51.389Z</time>
      </trkpt>
      <trkpt lat="49.43001" lon="3.61886">
        <ele>114.4</ele>
        <time>2015-11-09T14:34:57.468Z</time>
      </trkpt>
      <trkpt lat="49.43003" lon="3.61885">
        <ele>114.4</ele>
        <time>2015-11-09T14:34:58.449Z</time>
      </trkpt>
      <trkpt lat="49.43008" lon="3.61876">
        <ele>114.7</ele>
        <time>2015-11-09T14:35:04.444Z</time>
      </trkpt>
      <trkpt lat="49.43009" lon="3.61875">
        <ele>114.9</ele>
        <time>2015-11-09T14:35:05.405Z</time>
      </trkpt>
      <trkpt lat="49.43015" lon="3.61865">
        <ele>115.2</ele>
        <time>2015-11-09T14:35:12.446Z</time>
      </trkpt>
      <trkpt lat="49.43015" lon="3.61864">
        <ele>115.2</ele>
        <time>2015-11-09T14:35:13.434Z</time>
      </trkpt>
      <trkpt lat="49.4302" lon="3.61854">
        <ele>114.4</ele>
        <time>2015-11-09T14:35:20.468Z</time>
      </trkpt>
      <trkpt lat="49.43023" lon="3.6185">
        <ele>115.2</ele>
        <time>2015-11-09T14:35:21.562Z</time>
      </trkpt>
      <trkpt lat="49.43028" lon="3.61841">
        <ele>115</ele>
        <time>2015-11-09T14:35:26.452Z</time>
      </trkpt>
      <trkpt lat="49.43029" lon="3.6184">
        <ele>115</ele>
        <time>2015-11-09T14:35:27.450Z</time>
      </trkpt>
      <trkpt lat="49.43034" lon="3.6183">
        <ele>115</ele>
        <time>2015-11-09T14:35:34.405Z</time>
      </trkpt>
      <trkpt lat="49.43035" lon="3.61829">
        <ele>115</ele>
        <time>2015-11-09T14:35:35.391Z</time>
      </trkpt>
      <trkpt lat="49.4304" lon="3.61818">
        <ele>114.6</ele>
        <time>2015-11-09T14:35:43.448Z</time>
      </trkpt>
      <trkpt lat="49.43041" lon="3.61816">
        <ele>114.5</ele>
        <time>2015-11-09T14:35:44.431Z</time>
      </trkpt>
      <trkpt lat="49.43045" lon="3.61806">
        <ele>114.1</ele>
        <time>2015-11-09T14:35:51.414Z</time>
      </trkpt>
      <trkpt lat="49.43046" lon="3.61804">
        <ele>114.2</ele>
        <time>2015-11-09T14:35:52.397Z</time>
      </trkpt>
      <trkpt lat="49.4305" lon="3.61794">
        <ele>114.2</ele>
        <time>2015-11-09T14:35:59.477Z</time>
      </trkpt>
      <trkpt lat="49.43051" lon="3.61792">
        <ele>114.3</ele>
        <time>2015-11-09T14:36:00.475Z</time>
      </trkpt>
      <trkpt lat="49.43055" lon="3.61781">
        <ele>114.6</ele>
        <time>2015-11-09T14:36:08.457Z</time>
      </trkpt>
      <trkpt lat="49.43056" lon="3.6178">
        <ele>114.6</ele>
        <time>2015-11-09T14:36:09.457Z</time>
      </trkpt>
      <trkpt lat="49.43059" lon="3.61769">
        <ele>114.9</ele>
        <time>2015-11-09T14:36:15.483Z</time>
      </trkpt>
      <trkpt lat="49.4306" lon="3.61767">
        <ele>114.9</ele>
        <time>2015-11-09T14:36:16.466Z</time>
      </trkpt>
      <trkpt lat="49.43063" lon="3.61756">
        <ele>115.1</ele>
        <time>2015-11-09T14:36:22.534Z</time>
      </trkpt>
      <trkpt lat="49.43064" lon="3.61755">
        <ele>115.1</ele>
        <time>2015-11-09T14:36:23.376Z</time>
      </trkpt>
      <trkpt lat="49.43068" lon="3.61744">
        <ele>115.4</ele>
        <time>2015-11-09T14:36:29.387Z</time>
      </trkpt>
      <trkpt lat="49.43068" lon="3.61742">
        <ele>115.4</ele>
        <time>2015-11-09T14:36:30.425Z</time>
      </trkpt>
      <trkpt lat="49.43071" lon="3.61731">
        <ele>115.3</ele>
        <time>2015-11-09T14:36:37.398Z</time>
      </trkpt>
      <trkpt lat="49.43072" lon="3.61729">
        <ele>115.4</ele>
        <time>2015-11-09T14:36:38.378Z</time>
      </trkpt>
      <trkpt lat="49.43075" lon="3.61716">
        <ele>115.6</ele>
        <time>2015-11-09T14:36:46.398Z</time>
      </trkpt>
      <trkpt lat="49.43075" lon="3.61715">
        <ele>115.6</ele>
        <time>2015-11-09T14:36:47.395Z</time>
      </trkpt>
      <trkpt lat="49.4308" lon="3.61705">
        <ele>116</ele>
        <time>2015-11-09T14:37:03.489Z</time>
      </trkpt>
      <trkpt lat="49.43081" lon="3.61705">
        <ele>116</ele>
        <time>2015-11-09T14:37:04.462Z</time>
      </trkpt>
      <trkpt lat="49.43081" lon="3.61705">
        <ele>116</ele>
        <time>2015-11-09T14:37:05.367Z</time>
      </trkpt>
      <trkpt lat="49.43081" lon="3.61705">
        <ele>115.9</ele>
        <time>2015-11-09T14:37:06.407Z</time>
      </trkpt>
      <trkpt lat="49.43082" lon="3.61705">
        <ele>115.9</ele>
        <time>2015-11-09T14:37:07.457Z</time>
      </trkpt>
      <trkpt lat="49.43083" lon="3.61705">
        <ele>115.9</ele>
        <time>2015-11-09T14:37:08.432Z</time>
      </trkpt>
      <trkpt lat="49.43083" lon="3.61705">
        <ele>115.9</ele>
        <time>2015-11-09T14:37:08.458Z</time>
      </trkpt>
      <trkpt lat="49.43083" lon="3.61705">
        <ele>116</ele>
        <time>2015-11-09T14:37:09.456Z</time>
      </trkpt>
      <trkpt lat="49.43083" lon="3.61705">
        <ele>116</ele>
        <time>2015-11-09T14:37:10.389Z</time>
      </trkpt>
      <trkpt lat="49.43084" lon="3.61705">
        <ele>116.1</ele>
        <time>2015-11-09T14:37:11.384Z</time>
      </trkpt>
      <trkpt lat="49.43084" lon="3.61704">
        <ele>116</ele>
        <time>2015-11-09T14:37:12.435Z</time>
      </trkpt>
      <trkpt lat="49.43084" lon="3.61704">
        <ele>116</ele>
        <time>2015-11-09T14:37:13.441Z</time>
      </trkpt>
      <trkpt lat="49.43086" lon="3.61691">
        <ele>116.1</ele>
        <time>2015-11-09T14:37:23.488Z</time>
      </trkpt>
      <trkpt lat="49.43085" lon="3.61689">
        <ele>115.8</ele>
        <time>2015-11-09T14:37:24.483Z</time>
      </trkpt>
      <trkpt lat="49.43084" lon="3.61676">
        <ele>115.3</ele>
        <time>2015-11-09T14:37:31.467Z</time>
      </trkpt>
      <trkpt lat="49.43084" lon="3.61674">
        <ele>115.3</ele>
        <time>2015-11-09T14:37:32.441Z</time>
      </trkpt>
      <trkpt lat="49.43086" lon="3.61662">
        <ele>115.1</ele>
        <time>2015-11-09T14:37:40.427Z</time>
      </trkpt>
      <trkpt lat="49.43086" lon="3.61661">
        <ele>115.2</ele>
        <time>2015-11-09T14:37:41.420Z</time>
      </trkpt>
      <trkpt lat="49.43089" lon="3.61654">
        <ele>115.4</ele>
        <time>2015-11-09T14:37:47.390Z</time>
      </trkpt>
      <trkpt lat="49.43089" lon="3.61654">
        <ele>115.3</ele>
        <time>2015-11-09T14:37:48.502Z</time>
      </trkpt>
      <trkpt lat="49.4309" lon="3.61653">
        <ele>115.3</ele>
        <time>2015-11-09T14:38:12.480Z</time>
      </trkpt>
      <trkpt lat="49.43092" lon="3.61651">
        <ele>116.4</ele>
        <time>2015-11-09T14:38:13.452Z</time>
      </trkpt>
      <trkpt lat="49.43087" lon="3.61663">
        <ele>115.5</ele>
        <time>2015-11-09T14:38:21.465Z</time>
      </trkpt>
      <trkpt lat="49.43086" lon="3.61665">
        <ele>115.5</ele>
        <time>2015-11-09T14:38:22.452Z</time>
      </trkpt>
      <trkpt lat="49.43083" lon="3.61675">
        <ele>114.3</ele>
        <time>2015-11-09T14:38:27.407Z</time>
      </trkpt>
      <trkpt lat="49.43083" lon="3.61677">
        <ele>114.3</ele>
        <time>2015-11-09T14:38:28.402Z</time>
      </trkpt>
      <trkpt lat="49.4308" lon="3.6169">
        <ele>114.1</ele>
        <time>2015-11-09T14:38:34.397Z</time>
      </trkpt>
      <trkpt lat="49.4308" lon="3.61692">
        <ele>114</ele>
        <time>2015-11-09T14:38:35.384Z</time>
      </trkpt>
      <trkpt lat="49.43077" lon="3.61703">
        <ele>114</ele>
        <time>2015-11-09T14:38:42.438Z</time>
      </trkpt>
      <trkpt lat="49.43076" lon="3.61705">
        <ele>114.1</ele>
        <time>2015-11-09T14:38:43.439Z</time>
      </trkpt>
      <trkpt lat="49.43075" lon="3.61706">
        <ele>114.1</ele>
        <time>2015-11-09T14:38:48.463Z</time>
      </trkpt>
      <trkpt lat="49.43075" lon="3.61706">
        <ele>113.7</ele>
        <time>2015-11-09T14:38:49.441Z</time>
      </trkpt>
      <trkpt lat="49.43075" lon="3.61706">
        <ele>113.9</ele>
        <time>2015-11-09T14:41:56.471Z</time>
      </trkpt>
      <trkpt lat="49.4308" lon="3.61707">
        <ele>114.4</ele>
        <time>2015-11-09T14:41:57.455Z</time>
      </trkpt>
      <trkpt lat="49.4308" lon="3.61707">
        <ele>114.3</ele>
        <time>2015-11-09T14:41:59.385Z</time>
      </trkpt>
      <trkpt lat="49.43081" lon="3.61707">
        <ele>114.4</ele>
        <time>2015-11-09T14:42:00.426Z</time>
      </trkpt>
      <trkpt lat="49.43081" lon="3.61707">
        <ele>114.4</ele>
        <time>2015-11-09T14:42:00.450Z</time>
      </trkpt>
      <trkpt lat="49.4308" lon="3.61708">
        <ele>114.4</ele>
        <time>2015-11-09T14:42:01.434Z</time>
      </trkpt>
      <trkpt lat="49.43079" lon="3.61707">
        <ele>114.6</ele>
        <time>2015-11-09T14:43:49.389Z</time>
      </trkpt>
      <trkpt lat="49.43079" lon="3.61708">
        <ele>114.6</ele>
        <time>2015-11-09T14:43:50.395Z</time>
      </trkpt>
      <trkpt lat="49.43079" lon="3.61708">
        <ele>114.6</ele>
        <time>2015-11-09T14:44:17.393Z</time>
      </trkpt>
      <trkpt lat="49.4308" lon="3.61704">
        <ele>114.8</ele>
        <time>2015-11-09T14:44:18.426Z</time>
      </trkpt>
      <trkpt lat="49.4308" lon="3.61704">
        <ele>114.8</ele>
        <time>2015-11-09T14:44:18.451Z</time>
      </trkpt>
      <trkpt lat="49.4308" lon="3.61704">
        <ele>114.8</ele>
        <time>2015-11-09T14:44:19.442Z</time>
      </trkpt>
      <trkpt lat="49.4308" lon="3.61704">
        <ele>114.8</ele>
        <time>2015-11-09T14:44:42.443Z</time>
      </trkpt>
      <trkpt lat="49.43079" lon="3.61704">
        <ele>114.2</ele>
        <time>2015-11-09T14:44:43.429Z</time>
      </trkpt>
      <trkpt lat="49.43077" lon="3.61705">
        <ele>114.1</ele>
        <time>2015-11-09T14:44:47.391Z</time>
      </trkpt>
      <trkpt lat="49.43077" lon="3.61705">
        <ele>114.2</ele>
        <time>2015-11-09T14:44:48.422Z</time>
      </trkpt>
      <trkpt lat="49.43077" lon="3.61705">
        <ele>114.2</ele>
        <time>2015-11-09T14:46:28.397Z</time>
      </trkpt>
      <trkpt lat="49.43078" lon="3.61703">
        <ele>115.3</ele>
        <time>2015-11-09T14:46:29.379Z</time>
      </trkpt>
      <trkpt lat="49.4308" lon="3.61689">
        <ele>115.4</ele>
        <time>2015-11-09T14:46:41.385Z</time>
      </trkpt>
      <trkpt lat="49.4308" lon="3.61688">
        <ele>115.4</ele>
        <time>2015-11-09T14:46:42.548Z</time>
      </trkpt>
      <trkpt lat="49.43082" lon="3.61676">
        <ele>115.4</ele>
        <time>2015-11-09T14:46:52.398Z</time>
      </trkpt>
      <trkpt lat="49.43082" lon="3.61675">
        <ele>115.2</ele>
        <time>2015-11-09T14:46:53.374Z</time>
      </trkpt>
      <trkpt lat="49.43084" lon="3.61662">
        <ele>114.5</ele>
        <time>2015-11-09T14:47:05.402Z</time>
      </trkpt>
      <trkpt lat="49.43084" lon="3.6166">
        <ele>114.2</ele>
        <time>2015-11-09T14:47:06.414Z</time>
      </trkpt>
      <trkpt lat="49.4309" lon="3.61651">
        <ele>114</ele>
        <time>2015-11-09T14:47:15.471Z</time>
      </trkpt>
      <trkpt lat="49.4309" lon="3.61649">
        <ele>114</ele>
        <time>2015-11-09T14:47:16.370Z</time>
      </trkpt>
      <trkpt lat="49.43094" lon="3.61638">
        <ele>113.9</ele>
        <time>2015-11-09T14:47:22.487Z</time>
      </trkpt>
      <trkpt lat="49.43094" lon="3.61636">
        <ele>114</ele>
        <time>2015-11-09T14:47:23.371Z</time>
      </trkpt>
      <trkpt lat="49.43098" lon="3.61625">
        <ele>114.5</ele>
        <time>2015-11-09T14:47:31.447Z</time>
      </trkpt>
      <trkpt lat="49.43098" lon="3.61623">
        <ele>114.4</ele>
        <time>2015-11-09T14:47:32.431Z</time>
      </trkpt>
      <trkpt lat="49.43102" lon="3.61612">
        <ele>114.6</ele>
        <time>2015-11-09T14:47:40.436Z</time>
      </trkpt>
      <trkpt lat="49.43103" lon="3.61611">
        <ele>114.7</ele>
        <time>2015-11-09T14:47:41.418Z</time>
      </trkpt>
      <trkpt lat="49.43107" lon="3.61599">
        <ele>114.9</ele>
        <time>2015-11-09T14:47:49.380Z</time>
      </trkpt>
      <trkpt lat="49.43108" lon="3.61597">
        <ele>114.8</ele>
        <time>2015-11-09T14:47:50.387Z</time>
      </trkpt>
      <trkpt lat="49.43111" lon="3.61585">
        <ele>114.5</ele>
        <time>2015-11-09T14:47:58.381Z</time>
      </trkpt>
      <trkpt lat="49.43111" lon="3.61583">
        <ele>114.5</ele>
        <time>2015-11-09T14:47:59.384Z</time>
      </trkpt>
      <trkpt lat="49.43115" lon="3.61571">
        <ele>114.5</ele>
        <time>2015-11-09T14:48:06.442Z</time>
      </trkpt>
      <trkpt lat="49.43115" lon="3.6157">
        <ele>114.7</ele>
        <time>2015-11-09T14:48:07.425Z</time>
      </trkpt>
      <trkpt lat="49.43119" lon="3.61558">
        <ele>115.9</ele>
        <time>2015-11-09T14:48:15.418Z</time>
      </trkpt>
      <trkpt lat="49.4312" lon="3.61557">
        <ele>115.9</ele>
        <time>2015-11-09T14:48:16.389Z</time>
      </trkpt>
      <trkpt lat="49.43124" lon="3.61545">
        <ele>115.9</ele>
        <time>2015-11-09T14:48:23.388Z</time>
      </trkpt>
      <trkpt lat="49.43124" lon="3.61543">
        <ele>116</ele>
        <time>2015-11-09T14:48:24.426Z</time>
      </trkpt>
      <trkpt lat="49.43129" lon="3.61532">
        <ele>116.2</ele>
        <time>2015-11-09T14:48:31.462Z</time>
      </trkpt>
      <trkpt lat="49.43129" lon="3.61531">
        <ele>116.2</ele>
        <time>2015-11-09T14:48:32.449Z</time>
      </trkpt>
      <trkpt lat="49.43133" lon="3.6152">
        <ele>116.4</ele>
        <time>2015-11-09T14:48:39.420Z</time>
      </trkpt>
      <trkpt lat="49.43134" lon="3.61518">
        <ele>116.5</ele>
        <time>2015-11-09T14:48:40.401Z</time>
      </trkpt>
      <trkpt lat="49.43137" lon="3.61505">
        <ele>116.5</ele>
        <time>2015-11-09T14:48:46.461Z</time>
      </trkpt>
      <trkpt lat="49.43137" lon="3.61503">
        <ele>116.7</ele>
        <time>2015-11-09T14:48:47.371Z</time>
      </trkpt>
      <trkpt lat="49.43141" lon="3.61492">
        <ele>116.9</ele>
        <time>2015-11-09T14:48:54.453Z</time>
      </trkpt>
      <trkpt lat="49.43142" lon="3.61491">
        <ele>117</ele>
        <time>2015-11-09T14:48:55.432Z</time>
      </trkpt>
      <trkpt lat="49.43146" lon="3.6148">
        <ele>117.2</ele>
        <time>2015-11-09T14:49:02.400Z</time>
      </trkpt>
      <trkpt lat="49.43146" lon="3.61479">
        <ele>117.1</ele>
        <time>2015-11-09T14:49:03.389Z</time>
      </trkpt>
      <trkpt lat="49.43151" lon="3.61468">
        <ele>117.1</ele>
        <time>2015-11-09T14:49:11.417Z</time>
      </trkpt>
      <trkpt lat="49.43151" lon="3.61466">
        <ele>116.9</ele>
        <time>2015-11-09T14:49:12.421Z</time>
      </trkpt>
      <trkpt lat="49.43156" lon="3.61457">
        <ele>117.5</ele>
        <time>2015-11-09T14:49:18.455Z</time>
      </trkpt>
      <trkpt lat="49.43157" lon="3.61455">
        <ele>117.4</ele>
        <time>2015-11-09T14:49:19.594Z</time>
      </trkpt>
      <trkpt lat="49.43161" lon="3.61444">
        <ele>117.7</ele>
        <time>2015-11-09T14:49:25.444Z</time>
      </trkpt>
      <trkpt lat="49.43161" lon="3.61442">
        <ele>117.8</ele>
        <time>2015-11-09T14:49:26.436Z</time>
      </trkpt>
      <trkpt lat="49.43166" lon="3.61432">
        <ele>117.7</ele>
        <time>2015-11-09T14:49:33.483Z</time>
      </trkpt>
      <trkpt lat="49.43166" lon="3.6143">
        <ele>117.6</ele>
        <time>2015-11-09T14:49:34.371Z</time>
      </trkpt>
      <trkpt lat="49.43169" lon="3.6142">
        <ele>117.6</ele>
        <time>2015-11-09T14:49:41.386Z</time>
      </trkpt>
      <trkpt lat="49.4317" lon="3.61418">
        <ele>117.6</ele>
        <time>2015-11-09T14:49:42.480Z</time>
      </trkpt>
      <trkpt lat="49.43174" lon="3.61406">
        <ele>118</ele>
        <time>2015-11-09T14:49:49.397Z</time>
      </trkpt>
      <trkpt lat="49.43175" lon="3.61404">
        <ele>118.3</ele>
        <time>2015-11-09T14:49:50.385Z</time>
      </trkpt>
      <trkpt lat="49.43181" lon="3.61395">
        <ele>119</ele>
        <time>2015-11-09T14:49:58.413Z</time>
      </trkpt>
      <trkpt lat="49.43182" lon="3.61394">
        <ele>119.1</ele>
        <time>2015-11-09T14:49:59.394Z</time>
      </trkpt>
      <trkpt lat="49.43186" lon="3.61383">
        <ele>119.7</ele>
        <time>2015-11-09T14:50:05.390Z</time>
      </trkpt>
      <trkpt lat="49.43186" lon="3.61381">
        <ele>119.8</ele>
        <time>2015-11-09T14:50:06.425Z</time>
      </trkpt>
      <trkpt lat="49.4319" lon="3.6137">
        <ele>120.7</ele>
        <time>2015-11-09T14:50:12.448Z</time>
      </trkpt>
      <trkpt lat="49.4319" lon="3.61369">
        <ele>120.9</ele>
        <time>2015-11-09T14:50:13.459Z</time>
      </trkpt>
      <trkpt lat="49.43195" lon="3.61358">
        <ele>122</ele>
        <time>2015-11-09T14:50:19.445Z</time>
      </trkpt>
      <trkpt lat="49.43196" lon="3.61356">
        <ele>122.1</ele>
        <time>2015-11-09T14:50:20.441Z</time>
      </trkpt>
      <trkpt lat="49.43201" lon="3.61346">
        <ele>122.9</ele>
        <time>2015-11-09T14:50:27.398Z</time>
      </trkpt>
      <trkpt lat="49.43202" lon="3.61344">
        <ele>123</ele>
        <time>2015-11-09T14:50:28.399Z</time>
      </trkpt>
      <trkpt lat="49.43207" lon="3.61335">
        <ele>122.9</ele>
        <time>2015-11-09T14:50:35.388Z</time>
      </trkpt>
      <trkpt lat="49.43208" lon="3.61333">
        <ele>122.9</ele>
        <time>2015-11-09T14:50:36.421Z</time>
      </trkpt>
      <trkpt lat="49.43213" lon="3.61323">
        <ele>123.3</ele>
        <time>2015-11-09T14:50:43.389Z</time>
      </trkpt>
      <trkpt lat="49.43214" lon="3.61322">
        <ele>123.2</ele>
        <time>2015-11-09T14:50:44.387Z</time>
      </trkpt>
      <trkpt lat="49.43217" lon="3.6131">
        <ele>123.5</ele>
        <time>2015-11-09T14:50:50.471Z</time>
      </trkpt>
      <trkpt lat="49.43218" lon="3.61309">
        <ele>123.4</ele>
        <time>2015-11-09T14:50:51.458Z</time>
      </trkpt>
      <trkpt lat="49.43223" lon="3.61299">
        <ele>123.3</ele>
        <time>2015-11-09T14:50:57.416Z</time>
      </trkpt>
      <trkpt lat="49.43224" lon="3.61298">
        <ele>123.4</ele>
        <time>2015-11-09T14:50:58.403Z</time>
      </trkpt>
      <trkpt lat="49.43229" lon="3.61288">
        <ele>123.5</ele>
        <time>2015-11-09T14:51:05.441Z</time>
      </trkpt>
      <trkpt lat="49.4323" lon="3.61287">
        <ele>123.6</ele>
        <time>2015-11-09T14:51:06.437Z</time>
      </trkpt>
      <trkpt lat="49.43236" lon="3.61278">
        <ele>123.4</ele>
        <time>2015-11-09T14:51:14.474Z</time>
      </trkpt>
      <trkpt lat="49.43236" lon="3.61276">
        <ele>123.5</ele>
        <time>2015-11-09T14:51:15.466Z</time>
      </trkpt>
      <trkpt lat="49.43242" lon="3.61267">
        <ele>122.5</ele>
        <time>2015-11-09T14:51:22.436Z</time>
      </trkpt>
      <trkpt lat="49.43242" lon="3.61265">
        <ele>122.4</ele>
        <time>2015-11-09T14:51:23.424Z</time>
      </trkpt>
      <trkpt lat="49.43246" lon="3.61255">
        <ele>122.3</ele>
        <time>2015-11-09T14:51:30.535Z</time>
      </trkpt>
      <trkpt lat="49.43247" lon="3.61254">
        <ele>122.5</ele>
        <time>2015-11-09T14:51:31.387Z</time>
      </trkpt>
      <trkpt lat="49.43252" lon="3.61245">
        <ele>122.8</ele>
        <time>2015-11-09T14:51:38.491Z</time>
      </trkpt>
      <trkpt lat="49.43253" lon="3.61244">
        <ele>122.9</ele>
        <time>2015-11-09T14:51:39.476Z</time>
      </trkpt>
      <trkpt lat="49.43259" lon="3.61234">
        <ele>123.6</ele>
        <time>2015-11-09T14:51:46.427Z</time>
      </trkpt>
      <trkpt lat="49.4326" lon="3.61232">
        <ele>123.6</ele>
        <time>2015-11-09T14:51:47.391Z</time>
      </trkpt>
      <trkpt lat="49.43265" lon="3.61222">
        <ele>124</ele>
        <time>2015-11-09T14:51:54.462Z</time>
      </trkpt>
      <trkpt lat="49.43266" lon="3.6122">
        <ele>124.1</ele>
        <time>2015-11-09T14:51:55.443Z</time>
      </trkpt>
      <trkpt lat="49.43271" lon="3.6121">
        <ele>124.9</ele>
        <time>2015-11-09T14:52:02.413Z</time>
      </trkpt>
      <trkpt lat="49.43272" lon="3.61209">
        <ele>125.1</ele>
        <time>2015-11-09T14:52:03.403Z</time>
      </trkpt>
      <trkpt lat="49.43277" lon="3.612">
        <ele>125.4</ele>
        <time>2015-11-09T14:52:10.433Z</time>
      </trkpt>
      <trkpt lat="49.43278" lon="3.61199">
        <ele>125.2</ele>
        <time>2015-11-09T14:52:11.602Z</time>
      </trkpt>
      <trkpt lat="49.43284" lon="3.61189">
        <ele>124.2</ele>
        <time>2015-11-09T14:52:18.469Z</time>
      </trkpt>
      <trkpt lat="49.43285" lon="3.61187">
        <ele>124.1</ele>
        <time>2015-11-09T14:52:19.453Z</time>
      </trkpt>
      <trkpt lat="49.43291" lon="3.61177">
        <ele>123.8</ele>
        <time>2015-11-09T14:52:26.475Z</time>
      </trkpt>
      <trkpt lat="49.43291" lon="3.61176">
        <ele>123.9</ele>
        <time>2015-11-09T14:52:27.471Z</time>
      </trkpt>
      <trkpt lat="49.43294" lon="3.61163">
        <ele>123.3</ele>
        <time>2015-11-09T14:52:35.422Z</time>
      </trkpt>
      <trkpt lat="49.43294" lon="3.61161">
        <ele>123.4</ele>
        <time>2015-11-09T14:52:36.442Z</time>
      </trkpt>
      <trkpt lat="49.433" lon="3.61153">
        <ele>122.9</ele>
        <time>2015-11-09T14:52:42.506Z</time>
      </trkpt>
      <trkpt lat="49.43301" lon="3.61151">
        <ele>122.8</ele>
        <time>2015-11-09T14:52:43.443Z</time>
      </trkpt>
      <trkpt lat="49.43307" lon="3.61143">
        <ele>121.5</ele>
        <time>2015-11-09T14:52:51.490Z</time>
      </trkpt>
      <trkpt lat="49.43308" lon="3.61142">
        <ele>121.3</ele>
        <time>2015-11-09T14:52:52.385Z</time>
      </trkpt>
      <trkpt lat="49.43314" lon="3.61133">
        <ele>119.8</ele>
        <time>2015-11-09T14:53:00.465Z</time>
      </trkpt>
      <trkpt lat="49.43315" lon="3.61132">
        <ele>119.8</ele>
        <time>2015-11-09T14:53:01.441Z</time>
      </trkpt>
      <trkpt lat="49.43321" lon="3.61124">
        <ele>120.7</ele>
        <time>2015-11-09T14:53:08.454Z</time>
      </trkpt>
      <trkpt lat="49.43322" lon="3.61122">
        <ele>120.5</ele>
        <time>2015-11-09T14:53:09.455Z</time>
      </trkpt>
      <trkpt lat="49.4333" lon="3.61115">
        <ele>120.7</ele>
        <time>2015-11-09T14:53:16.499Z</time>
      </trkpt>
      <trkpt lat="49.43331" lon="3.61114">
        <ele>120.6</ele>
        <time>2015-11-09T14:53:17.473Z</time>
      </trkpt>
      <trkpt lat="49.43337" lon="3.61105">
        <ele>120.5</ele>
        <time>2015-11-09T14:53:25.472Z</time>
      </trkpt>
      <trkpt lat="49.43338" lon="3.61104">
        <ele>120.3</ele>
        <time>2015-11-09T14:53:26.460Z</time>
      </trkpt>
      <trkpt lat="49.43346" lon="3.61097">
        <ele>121.2</ele>
        <time>2015-11-09T14:53:32.481Z</time>
      </trkpt>
      <trkpt lat="49.43347" lon="3.61095">
        <ele>121.3</ele>
        <time>2015-11-09T14:53:33.469Z</time>
      </trkpt>
      <trkpt lat="49.43351" lon="3.61084">
        <ele>121</ele>
        <time>2015-11-09T14:53:39.499Z</time>
      </trkpt>
      <trkpt lat="49.43352" lon="3.61083">
        <ele>120.9</ele>
        <time>2015-11-09T14:53:40.378Z</time>
      </trkpt>
      <trkpt lat="49.43358" lon="3.61073">
        <ele>119.9</ele>
        <time>2015-11-09T14:53:47.404Z</time>
      </trkpt>
      <trkpt lat="49.43359" lon="3.61072">
        <ele>120</ele>
        <time>2015-11-09T14:53:48.493Z</time>
      </trkpt>
      <trkpt lat="49.43365" lon="3.61063">
        <ele>119.3</ele>
        <time>2015-11-09T14:53:55.463Z</time>
      </trkpt>
      <trkpt lat="49.43365" lon="3.61062">
        <ele>119.5</ele>
        <time>2015-11-09T14:53:56.451Z</time>
      </trkpt>
      <trkpt lat="49.43371" lon="3.61052">
        <ele>118.9</ele>
        <time>2015-11-09T14:54:03.468Z</time>
      </trkpt>
      <trkpt lat="49.43372" lon="3.61051">
        <ele>118.9</ele>
        <time>2015-11-09T14:54:04.455Z</time>
      </trkpt>
      <trkpt lat="49.43378" lon="3.61042">
        <ele>119.2</ele>
        <time>2015-11-09T14:54:13.476Z</time>
      </trkpt>
      <trkpt lat="49.43379" lon="3.61041">
        <ele>119.3</ele>
        <time>2015-11-09T14:54:14.456Z</time>
      </trkpt>
      <trkpt lat="49.43385" lon="3.61031">
        <ele>118.4</ele>
        <time>2015-11-09T14:54:21.503Z</time>
      </trkpt>
      <trkpt lat="49.43386" lon="3.6103">
        <ele>118.3</ele>
        <time>2015-11-09T14:54:22.464Z</time>
      </trkpt>
      <trkpt lat="49.43391" lon="3.6102">
        <ele>116.9</ele>
        <time>2015-11-09T14:54:29.478Z</time>
      </trkpt>
      <trkpt lat="49.43393" lon="3.61019">
        <ele>116.7</ele>
        <time>2015-11-09T14:54:30.430Z</time>
      </trkpt>
      <trkpt lat="49.434" lon="3.61011">
        <ele>116</ele>
        <time>2015-11-09T14:54:37.455Z</time>
      </trkpt>
      <trkpt lat="49.43401" lon="3.6101">
        <ele>115.8</ele>
        <time>2015-11-09T14:54:38.459Z</time>
      </trkpt>
      <trkpt lat="49.43407" lon="3.61002">
        <ele>115.8</ele>
        <time>2015-11-09T14:54:45.492Z</time>
      </trkpt>
      <trkpt lat="49.43409" lon="3.61001">
        <ele>115.9</ele>
        <time>2015-11-09T14:54:46.463Z</time>
      </trkpt>
      <trkpt lat="49.43413" lon="3.60991">
        <ele>115.5</ele>
        <time>2015-11-09T14:54:53.579Z</time>
      </trkpt>
      <trkpt lat="49.43414" lon="3.6099">
        <ele>115.5</ele>
        <time>2015-11-09T14:54:54.440Z</time>
      </trkpt>
      <trkpt lat="49.43422" lon="3.60983">
        <ele>115.4</ele>
        <time>2015-11-09T14:55:03.483Z</time>
      </trkpt>
      <trkpt lat="49.43423" lon="3.60982">
        <ele>115.4</ele>
        <time>2015-11-09T14:55:04.477Z</time>
      </trkpt>
      <trkpt lat="49.43427" lon="3.60971">
        <ele>115.3</ele>
        <time>2015-11-09T14:55:11.485Z</time>
      </trkpt>
      <trkpt lat="49.43428" lon="3.6097">
        <ele>115.3</ele>
        <time>2015-11-09T14:55:12.470Z</time>
      </trkpt>
      <trkpt lat="49.43434" lon="3.60961">
        <ele>116</ele>
        <time>2015-11-09T14:55:18.460Z</time>
      </trkpt>
      <trkpt lat="49.43435" lon="3.60959">
        <ele>116.1</ele>
        <time>2015-11-09T14:55:19.441Z</time>
      </trkpt>
      <trkpt lat="49.4344" lon="3.6095">
        <ele>117.1</ele>
        <time>2015-11-09T14:55:25.443Z</time>
      </trkpt>
      <trkpt lat="49.43441" lon="3.60948">
        <ele>117.1</ele>
        <time>2015-11-09T14:55:26.427Z</time>
      </trkpt>
      <trkpt lat="49.43446" lon="3.60938">
        <ele>117.8</ele>
        <time>2015-11-09T14:55:32.399Z</time>
      </trkpt>
      <trkpt lat="49.43446" lon="3.60937">
        <ele>118</ele>
        <time>2015-11-09T14:55:33.376Z</time>
      </trkpt>
      <trkpt lat="49.43453" lon="3.60929">
        <ele>118.7</ele>
        <time>2015-11-09T14:55:39.463Z</time>
      </trkpt>
      <trkpt lat="49.43453" lon="3.60927">
        <ele>118.8</ele>
        <time>2015-11-09T14:55:40.442Z</time>
      </trkpt>
      <trkpt lat="49.43459" lon="3.60919">
        <ele>119</ele>
        <time>2015-11-09T14:55:47.427Z</time>
      </trkpt>
      <trkpt lat="49.4346" lon="3.60918">
        <ele>119</ele>
        <time>2015-11-09T14:55:48.410Z</time>
      </trkpt>
      <trkpt lat="49.43465" lon="3.60909">
        <ele>119.2</ele>
        <time>2015-11-09T14:55:55.373Z</time>
      </trkpt>
      <trkpt lat="49.43466" lon="3.60908">
        <ele>119.2</ele>
        <time>2015-11-09T14:55:56.364Z</time>
      </trkpt>
      <trkpt lat="49.43473" lon="3.609">
        <ele>119.6</ele>
        <time>2015-11-09T14:56:02.460Z</time>
      </trkpt>
      <trkpt lat="49.43474" lon="3.60899">
        <ele>119.8</ele>
        <time>2015-11-09T14:56:03.433Z</time>
      </trkpt>
      <trkpt lat="49.43478" lon="3.60888">
        <ele>119.9</ele>
        <time>2015-11-09T14:56:09.414Z</time>
      </trkpt>
      <trkpt lat="49.43478" lon="3.60886">
        <ele>119.9</ele>
        <time>2015-11-09T14:56:10.410Z</time>
      </trkpt>
      <trkpt lat="49.43485" lon="3.60877">
        <ele>120</ele>
        <time>2015-11-09T14:56:18.424Z</time>
      </trkpt>
      <trkpt lat="49.43486" lon="3.60876">
        <ele>120</ele>
        <time>2015-11-09T14:56:19.419Z</time>
      </trkpt>
      <trkpt lat="49.43492" lon="3.60866">
        <ele>120.2</ele>
        <time>2015-11-09T14:56:26.389Z</time>
      </trkpt>
      <trkpt lat="49.43493" lon="3.60865">
        <ele>120.1</ele>
        <time>2015-11-09T14:56:27.389Z</time>
      </trkpt>
      <trkpt lat="49.43499" lon="3.60856">
        <ele>120.1</ele>
        <time>2015-11-09T14:56:34.486Z</time>
      </trkpt>
      <trkpt lat="49.435" lon="3.60855">
        <ele>120.1</ele>
        <time>2015-11-09T14:56:35.364Z</time>
      </trkpt>
      <trkpt lat="49.43506" lon="3.60847">
        <ele>120.3</ele>
        <time>2015-11-09T14:56:41.383Z</time>
      </trkpt>
      <trkpt lat="49.43507" lon="3.60845">
        <ele>120.3</ele>
        <time>2015-11-09T14:56:42.410Z</time>
      </trkpt>
      <trkpt lat="49.43513" lon="3.60836">
        <ele>120.6</ele>
        <time>2015-11-09T14:56:49.433Z</time>
      </trkpt>
      <trkpt lat="49.43514" lon="3.60835">
        <ele>120.7</ele>
        <time>2015-11-09T14:56:50.416Z</time>
      </trkpt>
      <trkpt lat="49.43521" lon="3.60828">
        <ele>121</ele>
        <time>2015-11-09T14:56:57.400Z</time>
      </trkpt>
      <trkpt lat="49.43521" lon="3.60827">
        <ele>120.8</ele>
        <time>2015-11-09T14:56:58.384Z</time>
      </trkpt>
      <trkpt lat="49.43527" lon="3.60817">
        <ele>120.5</ele>
        <time>2015-11-09T14:57:06.437Z</time>
      </trkpt>
      <trkpt lat="49.43528" lon="3.60816">
        <ele>120.5</ele>
        <time>2015-11-09T14:57:07.426Z</time>
      </trkpt>
      <trkpt lat="49.43535" lon="3.6081">
        <ele>120.4</ele>
        <time>2015-11-09T14:57:15.451Z</time>
      </trkpt>
      <trkpt lat="49.43536" lon="3.60809">
        <ele>120.4</ele>
        <time>2015-11-09T14:57:16.444Z</time>
      </trkpt>
      <trkpt lat="49.43542" lon="3.608">
        <ele>120.1</ele>
        <time>2015-11-09T14:57:23.388Z</time>
      </trkpt>
      <trkpt lat="49.43542" lon="3.60798">
        <ele>120</ele>
        <time>2015-11-09T14:57:24.413Z</time>
      </trkpt>
      <trkpt lat="49.43547" lon="3.60787">
        <ele>120.2</ele>
        <time>2015-11-09T14:57:31.425Z</time>
      </trkpt>
      <trkpt lat="49.43548" lon="3.60786">
        <ele>120.3</ele>
        <time>2015-11-09T14:57:32.452Z</time>
      </trkpt>
      <trkpt lat="49.43553" lon="3.60775">
        <ele>121.1</ele>
        <time>2015-11-09T14:57:40.422Z</time>
      </trkpt>
      <trkpt lat="49.43554" lon="3.60774">
        <ele>121.2</ele>
        <time>2015-11-09T14:57:41.415Z</time>
      </trkpt>
      <trkpt lat="49.43559" lon="3.60764">
        <ele>122.3</ele>
        <time>2015-11-09T14:57:48.428Z</time>
      </trkpt>
      <trkpt lat="49.4356" lon="3.60763">
        <ele>122.4</ele>
        <time>2015-11-09T14:57:49.422Z</time>
      </trkpt>
      <trkpt lat="49.43566" lon="3.60754">
        <ele>123.1</ele>
        <time>2015-11-09T14:57:56.443Z</time>
      </trkpt>
      <trkpt lat="49.43567" lon="3.60753">
        <ele>123</ele>
        <time>2015-11-09T14:57:57.432Z</time>
      </trkpt>
      <trkpt lat="49.43572" lon="3.60741">
        <ele>124.1</ele>
        <time>2015-11-09T14:58:05.421Z</time>
      </trkpt>
      <trkpt lat="49.43573" lon="3.6074">
        <ele>124.3</ele>
        <time>2015-11-09T14:58:06.410Z</time>
      </trkpt>
      <trkpt lat="49.43579" lon="3.6073">
        <ele>124.9</ele>
        <time>2015-11-09T14:58:13.427Z</time>
      </trkpt>
      <trkpt lat="49.4358" lon="3.60729">
        <ele>125</ele>
        <time>2015-11-09T14:58:14.418Z</time>
      </trkpt>
      <trkpt lat="49.43586" lon="3.6072">
        <ele>125.5</ele>
        <time>2015-11-09T14:58:21.402Z</time>
      </trkpt>
      <trkpt lat="49.43587" lon="3.60719">
        <ele>125.6</ele>
        <time>2015-11-09T14:58:22.404Z</time>
      </trkpt>
      <trkpt lat="49.43593" lon="3.60711">
        <ele>126.2</ele>
        <time>2015-11-09T14:58:29.380Z</time>
      </trkpt>
      <trkpt lat="49.43594" lon="3.6071">
        <ele>126.3</ele>
        <time>2015-11-09T14:58:30.413Z</time>
      </trkpt>
      <trkpt lat="49.43601" lon="3.60702">
        <ele>126.9</ele>
        <time>2015-11-09T14:58:37.429Z</time>
      </trkpt>
      <trkpt lat="49.43602" lon="3.60701">
        <ele>126.9</ele>
        <time>2015-11-09T14:58:38.431Z</time>
      </trkpt>
      <trkpt lat="49.43608" lon="3.60692">
        <ele>127.4</ele>
        <time>2015-11-09T14:58:45.451Z</time>
      </trkpt>
      <trkpt lat="49.43609" lon="3.60692">
        <ele>127.5</ele>
        <time>2015-11-09T14:58:46.441Z</time>
      </trkpt>
      <trkpt lat="49.43615" lon="3.60684">
        <ele>127.9</ele>
        <time>2015-11-09T14:58:53.494Z</time>
      </trkpt>
      <trkpt lat="49.43616" lon="3.60683">
        <ele>128</ele>
        <time>2015-11-09T14:58:54.460Z</time>
      </trkpt>
      <trkpt lat="49.43623" lon="3.60676">
        <ele>128.1</ele>
        <time>2015-11-09T14:59:01.443Z</time>
      </trkpt>
      <trkpt lat="49.43624" lon="3.60674">
        <ele>128</ele>
        <time>2015-11-09T14:59:02.429Z</time>
      </trkpt>
      <trkpt lat="49.43629" lon="3.60664">
        <ele>127.2</ele>
        <time>2015-11-09T14:59:10.461Z</time>
      </trkpt>
      <trkpt lat="49.4363" lon="3.60663">
        <ele>127.1</ele>
        <time>2015-11-09T14:59:11.447Z</time>
      </trkpt>
      <trkpt lat="49.43636" lon="3.60653">
        <ele>126.8</ele>
        <time>2015-11-09T14:59:19.458Z</time>
      </trkpt>
      <trkpt lat="49.43637" lon="3.60652">
        <ele>126.9</ele>
        <time>2015-11-09T14:59:20.427Z</time>
      </trkpt>
      <trkpt lat="49.43643" lon="3.60644">
        <ele>126.9</ele>
        <time>2015-11-09T14:59:27.495Z</time>
      </trkpt>
      <trkpt lat="49.43644" lon="3.60643">
        <ele>126.9</ele>
        <time>2015-11-09T14:59:28.450Z</time>
      </trkpt>
      <trkpt lat="49.43651" lon="3.60636">
        <ele>126.7</ele>
        <time>2015-11-09T14:59:35.427Z</time>
      </trkpt>
      <trkpt lat="49.43652" lon="3.60635">
        <ele>126.6</ele>
        <time>2015-11-09T14:59:36.420Z</time>
      </trkpt>
      <trkpt lat="49.4366" lon="3.6063">
        <ele>126.5</ele>
        <time>2015-11-09T14:59:42.450Z</time>
      </trkpt>
      <trkpt lat="49.43661" lon="3.60629">
        <ele>126.6</ele>
        <time>2015-11-09T14:59:43.437Z</time>
      </trkpt>
      <trkpt lat="49.43668" lon="3.60624">
        <ele>127.1</ele>
        <time>2015-11-09T14:59:51.464Z</time>
      </trkpt>
      <trkpt lat="49.43669" lon="3.60623">
        <ele>127.1</ele>
        <time>2015-11-09T14:59:52.446Z</time>
      </trkpt>
      <trkpt lat="49.43677" lon="3.60617">
        <ele>127.5</ele>
        <time>2015-11-09T14:59:59.429Z</time>
      </trkpt>
      <trkpt lat="49.43678" lon="3.60616">
        <ele>127.7</ele>
        <time>2015-11-09T15:00:00.411Z</time>
      </trkpt>
      <trkpt lat="49.43684" lon="3.60609">
        <ele>127.2</ele>
        <time>2015-11-09T15:00:06.428Z</time>
      </trkpt>
      <trkpt lat="49.43685" lon="3.60608">
        <ele>127.1</ele>
        <time>2015-11-09T15:00:07.423Z</time>
      </trkpt>
      <trkpt lat="49.43692" lon="3.60599">
        <ele>128.1</ele>
        <time>2015-11-09T15:00:14.407Z</time>
      </trkpt>
      <trkpt lat="49.43693" lon="3.60599">
        <ele>128.2</ele>
        <time>2015-11-09T15:00:15.394Z</time>
      </trkpt>
      <trkpt lat="49.43701" lon="3.60594">
        <ele>130</ele>
        <time>2015-11-09T15:00:20.384Z</time>
      </trkpt>
      <trkpt lat="49.43702" lon="3.60593">
        <ele>130.2</ele>
        <time>2015-11-09T15:00:21.364Z</time>
      </trkpt>
      <trkpt lat="49.4371" lon="3.60589">
        <ele>130.7</ele>
        <time>2015-11-09T15:00:30.441Z</time>
      </trkpt>
      <trkpt lat="49.43711" lon="3.60588">
        <ele>130.6</ele>
        <time>2015-11-09T15:00:31.412Z</time>
      </trkpt>
      <trkpt lat="49.43718" lon="3.60586">
        <ele>130.6</ele>
        <time>2015-11-09T15:00:38.377Z</time>
      </trkpt>
      <trkpt lat="49.43721" lon="3.60587">
        <ele>130.5</ele>
        <time>2015-11-09T15:00:39.380Z</time>
      </trkpt>
      <trkpt lat="49.43724" lon="3.60589">
        <ele>131.1</ele>
        <time>2015-11-09T15:00:47.375Z</time>
      </trkpt>
      <trkpt lat="49.43724" lon="3.60588">
        <ele>131.4</ele>
        <time>2015-11-09T15:00:48.410Z</time>
      </trkpt>
      <trkpt lat="49.43724" lon="3.60588">
        <ele>131.4</ele>
        <time>2015-11-09T15:00:48.425Z</time>
      </trkpt>
      <trkpt lat="49.43724" lon="3.60587">
        <ele>131.4</ele>
        <time>2015-11-09T15:00:49.434Z</time>
      </trkpt>
      <trkpt lat="49.43724" lon="3.60587">
        <ele>131.5</ele>
        <time>2015-11-09T15:01:20.380Z</time>
      </trkpt>
      <trkpt lat="49.43727" lon="3.6057">
        <ele>129.2</ele>
        <time>2015-11-09T15:01:21.373Z</time>
      </trkpt>
      <trkpt lat="49.43727" lon="3.6057">
        <ele>129.2</ele>
        <time>2015-11-09T15:01:21.389Z</time>
      </trkpt>
      <trkpt lat="49.43727" lon="3.6057">
        <ele>128.9</ele>
        <time>2015-11-09T15:01:22.384Z</time>
      </trkpt>
      <trkpt lat="49.43727" lon="3.6057">
        <ele>128.9</ele>
        <time>2015-11-09T15:01:22.407Z</time>
      </trkpt>
      <trkpt lat="49.43727" lon="3.60571">
        <ele>128.8</ele>
        <time>2015-11-09T15:01:23.393Z</time>
      </trkpt>
      <trkpt lat="49.43728" lon="3.60571">
        <ele>128.8</ele>
        <time>2015-11-09T15:01:39.459Z</time>
      </trkpt>
      <trkpt lat="49.43731" lon="3.60584">
        <ele>125.4</ele>
        <time>2015-11-09T15:01:40.441Z</time>
      </trkpt>
      <trkpt lat="49.4373" lon="3.60585">
        <ele>125.3</ele>
        <time>2015-11-09T15:01:41.477Z</time>
      </trkpt>
      <trkpt lat="49.4373" lon="3.60585">
        <ele>125.3</ele>
        <time>2015-11-09T15:01:42.455Z</time>
      </trkpt>
      <trkpt lat="49.4373" lon="3.60585">
        <ele>125.3</ele>
        <time>2015-11-09T15:01:42.489Z</time>
      </trkpt>
      <trkpt lat="49.4373" lon="3.60585">
        <ele>125.2</ele>
        <time>2015-11-09T15:01:43.362Z</time>
      </trkpt>
      <trkpt lat="49.43732" lon="3.60597">
        <ele>125.2</ele>
        <time>2015-11-09T15:01:58.467Z</time>
      </trkpt>
      <trkpt lat="49.43732" lon="3.60597">
        <ele>125.3</ele>
        <time>2015-11-09T15:01:59.360Z</time>
      </trkpt>
      <trkpt lat="49.43732" lon="3.60597">
        <ele>125.3</ele>
        <time>2015-11-09T15:01:59.377Z</time>
      </trkpt>
      <trkpt lat="49.43732" lon="3.60598">
        <ele>125.5</ele>
        <time>2015-11-09T15:02:00.463Z</time>
      </trkpt>
      <trkpt lat="49.43731" lon="3.60598">
        <ele>125.5</ele>
        <time>2015-11-09T15:02:01.399Z</time>
      </trkpt>
      <trkpt lat="49.43731" lon="3.60598">
        <ele>125.6</ele>
        <time>2015-11-09T15:02:02.386Z</time>
      </trkpt>
      <trkpt lat="49.43731" lon="3.60598">
        <ele>125.6</ele>
        <time>2015-11-09T15:02:02.411Z</time>
      </trkpt>
      <trkpt lat="49.43731" lon="3.60599">
        <ele>125.5</ele>
        <time>2015-11-09T15:02:03.392Z</time>
      </trkpt>
      <trkpt lat="49.43733" lon="3.60604">
        <ele>125.5</ele>
        <time>2015-11-09T15:02:14.451Z</time>
      </trkpt>
      <trkpt lat="49.43734" lon="3.60605">
        <ele>125.5</ele>
        <time>2015-11-09T15:02:15.442Z</time>
      </trkpt>
      <trkpt lat="49.43734" lon="3.60605">
        <ele>125.5</ele>
        <time>2015-11-09T15:02:15.463Z</time>
      </trkpt>
      <trkpt lat="49.43734" lon="3.60605">
        <ele>126.1</ele>
        <time>2015-11-09T15:02:16.456Z</time>
      </trkpt>
      <trkpt lat="49.43735" lon="3.60618">
        <ele>126.1</ele>
        <time>2015-11-09T15:03:09.451Z</time>
      </trkpt>
      <trkpt lat="49.43735" lon="3.60619">
        <ele>126.3</ele>
        <time>2015-11-09T15:03:10.454Z</time>
      </trkpt>
      <trkpt lat="49.43737" lon="3.60632">
        <ele>125.7</ele>
        <time>2015-11-09T15:03:21.409Z</time>
      </trkpt>
      <trkpt lat="49.43737" lon="3.60634">
        <ele>125.7</ele>
        <time>2015-11-09T15:03:22.398Z</time>
      </trkpt>
      <trkpt lat="49.43741" lon="3.60645">
        <ele>125.4</ele>
        <time>2015-11-09T15:03:32.407Z</time>
      </trkpt>
      <trkpt lat="49.43742" lon="3.60645">
        <ele>125.4</ele>
        <time>2015-11-09T15:03:33.380Z</time>
      </trkpt>
      <trkpt lat="49.43746" lon="3.60656">
        <ele>125.6</ele>
        <time>2015-11-09T15:03:43.388Z</time>
      </trkpt>
      <trkpt lat="49.43746" lon="3.60656">
        <ele>125.8</ele>
        <time>2015-11-09T15:03:44.377Z</time>
      </trkpt>
      <trkpt lat="49.43746" lon="3.60656">
        <ele>125.8</ele>
        <time>2015-11-09T15:03:49.447Z</time>
      </trkpt>
      <trkpt lat="49.43746" lon="3.60657">
        <ele>125.8</ele>
        <time>2015-11-09T15:03:50.442Z</time>
      </trkpt>
      <trkpt lat="49.43747" lon="3.60658">
        <ele>125.6</ele>
        <time>2015-11-09T15:03:52.379Z</time>
      </trkpt>
      <trkpt lat="49.43747" lon="3.60658">
        <ele>125.4</ele>
        <time>2015-11-09T15:03:53.379Z</time>
      </trkpt>
      <trkpt lat="49.43747" lon="3.60658">
        <ele>125.4</ele>
        <time>2015-11-09T15:03:53.399Z</time>
      </trkpt>
      <trkpt lat="49.43747" lon="3.60658">
        <ele>125.4</ele>
        <time>2015-11-09T15:03:54.418Z</time>
      </trkpt>
      <trkpt lat="49.43747" lon="3.60658">
        <ele>125.4</ele>
        <time>2015-11-09T15:03:56.453Z</time>
      </trkpt>
      <trkpt lat="49.43748" lon="3.60658">
        <ele>125.3</ele>
        <time>2015-11-09T15:03:57.432Z</time>
      </trkpt>
      <trkpt lat="49.43748" lon="3.60658">
        <ele>125.3</ele>
        <time>2015-11-09T15:05:30.446Z</time>
      </trkpt>
      <trkpt lat="49.43748" lon="3.60659">
        <ele>125.9</ele>
        <time>2015-11-09T15:05:31.411Z</time>
      </trkpt>
      <trkpt lat="49.43748" lon="3.60659">
        <ele>126.1</ele>
        <time>2015-11-09T15:05:38.394Z</time>
      </trkpt>
      <trkpt lat="49.43748" lon="3.60659">
        <ele>126</ele>
        <time>2015-11-09T15:05:39.373Z</time>
      </trkpt>
      <trkpt lat="49.43748" lon="3.60659">
        <ele>126</ele>
        <time>2015-11-09T15:06:30.473Z</time>
      </trkpt>
      <trkpt lat="49.43749" lon="3.60662">
        <ele>126.7</ele>
        <time>2015-11-09T15:06:31.363Z</time>
      </trkpt>
      <trkpt lat="49.43752" lon="3.60674">
        <ele>126.4</ele>
        <time>2015-11-09T15:06:42.432Z</time>
      </trkpt>
      <trkpt lat="49.43752" lon="3.60675">
        <ele>126.4</ele>
        <time>2015-11-09T15:06:43.417Z</time>
      </trkpt>
      <trkpt lat="49.43754" lon="3.60687">
        <ele>126.5</ele>
        <time>2015-11-09T15:06:51.425Z</time>
      </trkpt>
      <trkpt lat="49.43754" lon="3.60689">
        <ele>126.5</ele>
        <time>2015-11-09T15:06:52.398Z</time>
      </trkpt>
      <trkpt lat="49.43758" lon="3.60701">
        <ele>126.4</ele>
        <time>2015-11-09T15:07:01.437Z</time>
      </trkpt>
      <trkpt lat="49.43759" lon="3.60702">
        <ele>126.4</ele>
        <time>2015-11-09T15:07:02.508Z</time>
      </trkpt>
      <trkpt lat="49.43761" lon="3.60715">
        <ele>126.3</ele>
        <time>2015-11-09T15:07:10.413Z</time>
      </trkpt>
      <trkpt lat="49.43762" lon="3.60717">
        <ele>126.3</ele>
        <time>2015-11-09T15:07:11.402Z</time>
      </trkpt>
      <trkpt lat="49.43764" lon="3.6073">
        <ele>126.7</ele>
        <time>2015-11-09T15:07:19.386Z</time>
      </trkpt>
      <trkpt lat="49.43765" lon="3.60731">
        <ele>126.7</ele>
        <time>2015-11-09T15:07:20.377Z</time>
      </trkpt>
      <trkpt lat="49.43768" lon="3.60744">
        <ele>127.2</ele>
        <time>2015-11-09T15:07:28.371Z</time>
      </trkpt>
      <trkpt lat="49.43769" lon="3.60745">
        <ele>127.3</ele>
        <time>2015-11-09T15:07:29.364Z</time>
      </trkpt>
      <trkpt lat="49.43771" lon="3.60757">
        <ele>127.1</ele>
        <time>2015-11-09T15:07:36.498Z</time>
      </trkpt>
      <trkpt lat="49.43771" lon="3.60759">
        <ele>127</ele>
        <time>2015-11-09T15:07:37.384Z</time>
      </trkpt>
      <trkpt lat="49.43773" lon="3.60771">
        <ele>127.6</ele>
        <time>2015-11-09T15:07:44.459Z</time>
      </trkpt>
      <trkpt lat="49.43774" lon="3.60772">
        <ele>127.8</ele>
        <time>2015-11-09T15:07:45.442Z</time>
      </trkpt>
      <trkpt lat="49.43777" lon="3.60783">
        <ele>128.6</ele>
        <time>2015-11-09T15:07:52.473Z</time>
      </trkpt>
      <trkpt lat="49.43777" lon="3.60785">
        <ele>128.8</ele>
        <time>2015-11-09T15:07:53.358Z</time>
      </trkpt>
      <trkpt lat="49.43781" lon="3.60797">
        <ele>129.3</ele>
        <time>2015-11-09T15:08:01.446Z</time>
      </trkpt>
      <trkpt lat="49.43782" lon="3.60799">
        <ele>129.3</ele>
        <time>2015-11-09T15:08:02.431Z</time>
      </trkpt>
      <trkpt lat="49.43786" lon="3.6081">
        <ele>129.8</ele>
        <time>2015-11-09T15:08:09.409Z</time>
      </trkpt>
      <trkpt lat="49.43786" lon="3.60812">
        <ele>129.9</ele>
        <time>2015-11-09T15:08:10.405Z</time>
      </trkpt>
      <trkpt lat="49.4379" lon="3.60823">
        <ele>130.2</ele>
        <time>2015-11-09T15:08:17.398Z</time>
      </trkpt>
      <trkpt lat="49.43791" lon="3.60825">
        <ele>130.3</ele>
        <time>2015-11-09T15:08:18.410Z</time>
      </trkpt>
      <trkpt lat="49.43795" lon="3.60836">
        <ele>130.9</ele>
        <time>2015-11-09T15:08:25.440Z</time>
      </trkpt>
      <trkpt lat="49.43795" lon="3.60837">
        <ele>130.8</ele>
        <time>2015-11-09T15:08:26.427Z</time>
      </trkpt>
      <trkpt lat="49.438" lon="3.60846">
        <ele>131.1</ele>
        <time>2015-11-09T15:08:33.482Z</time>
      </trkpt>
      <trkpt lat="49.43801" lon="3.60848">
        <ele>131.1</ele>
        <time>2015-11-09T15:08:34.355Z</time>
      </trkpt>
      <trkpt lat="49.43808" lon="3.60855">
        <ele>131.5</ele>
        <time>2015-11-09T15:08:41.490Z</time>
      </trkpt>
      <trkpt lat="49.43809" lon="3.60856">
        <ele>131.7</ele>
        <time>2015-11-09T15:08:42.465Z</time>
      </trkpt>
      <trkpt lat="49.43816" lon="3.60862">
        <ele>132.3</ele>
        <time>2015-11-09T15:08:49.448Z</time>
      </trkpt>
      <trkpt lat="49.43817" lon="3.60863">
        <ele>132.4</ele>
        <time>2015-11-09T15:08:50.433Z</time>
      </trkpt>
      <trkpt lat="49.43825" lon="3.60867">
        <ele>133</ele>
        <time>2015-11-09T15:08:57.469Z</time>
      </trkpt>
      <trkpt lat="49.43826" lon="3.60868">
        <ele>133</ele>
        <time>2015-11-09T15:08:58.449Z</time>
      </trkpt>
      <trkpt lat="49.43833" lon="3.60873">
        <ele>133.5</ele>
        <time>2015-11-09T15:09:06.489Z</time>
      </trkpt>
      <trkpt lat="49.43834" lon="3.60874">
        <ele>133.5</ele>
        <time>2015-11-09T15:09:07.361Z</time>
      </trkpt>
      <trkpt lat="49.43842" lon="3.60879">
        <ele>134.3</ele>
        <time>2015-11-09T15:09:14.601Z</time>
      </trkpt>
      <trkpt lat="49.43842" lon="3.6088">
        <ele>134.3</ele>
        <time>2015-11-09T15:09:15.403Z</time>
      </trkpt>
      <trkpt lat="49.43849" lon="3.60886">
        <ele>134.4</ele>
        <time>2015-11-09T15:09:22.393Z</time>
      </trkpt>
      <trkpt lat="49.4385" lon="3.60887">
        <ele>134.5</ele>
        <time>2015-11-09T15:09:23.363Z</time>
      </trkpt>
      <trkpt lat="49.43857" lon="3.60895">
        <ele>134.7</ele>
        <time>2015-11-09T15:09:30.503Z</time>
      </trkpt>
      <trkpt lat="49.43858" lon="3.60896">
        <ele>134.8</ele>
        <time>2015-11-09T15:09:31.364Z</time>
      </trkpt>
      <trkpt lat="49.43866" lon="3.60903">
        <ele>135.1</ele>
        <time>2015-11-09T15:09:40.421Z</time>
      </trkpt>
      <trkpt lat="49.43867" lon="3.60904">
        <ele>135.1</ele>
        <time>2015-11-09T15:09:41.406Z</time>
      </trkpt>
      <trkpt lat="49.43874" lon="3.60909">
        <ele>135.4</ele>
        <time>2015-11-09T15:09:48.482Z</time>
      </trkpt>
      <trkpt lat="49.43875" lon="3.60909">
        <ele>135.4</ele>
        <time>2015-11-09T15:09:49.449Z</time>
      </trkpt>
      <trkpt lat="49.43882" lon="3.60916">
        <ele>135.9</ele>
        <time>2015-11-09T15:09:55.451Z</time>
      </trkpt>
      <trkpt lat="49.43883" lon="3.60917">
        <ele>135.9</ele>
        <time>2015-11-09T15:09:56.410Z</time>
      </trkpt>
      <trkpt lat="49.43891" lon="3.60921">
        <ele>135.4</ele>
        <time>2015-11-09T15:10:01.456Z</time>
      </trkpt>
      <trkpt lat="49.43891" lon="3.60922">
        <ele>135.5</ele>
        <time>2015-11-09T15:10:02.449Z</time>
      </trkpt>
      <trkpt lat="49.43898" lon="3.6093">
        <ele>136</ele>
        <time>2015-11-09T15:10:08.446Z</time>
      </trkpt>
      <trkpt lat="49.43899" lon="3.6093">
        <ele>136</ele>
        <time>2015-11-09T15:10:09.456Z</time>
      </trkpt>
      <trkpt lat="49.43905" lon="3.60939">
        <ele>136.3</ele>
        <time>2015-11-09T15:10:15.464Z</time>
      </trkpt>
      <trkpt lat="49.43907" lon="3.6094">
        <ele>136.3</ele>
        <time>2015-11-09T15:10:16.414Z</time>
      </trkpt>
      <trkpt lat="49.43913" lon="3.60947">
        <ele>136.5</ele>
        <time>2015-11-09T15:10:22.483Z</time>
      </trkpt>
      <trkpt lat="49.43914" lon="3.60948">
        <ele>136.5</ele>
        <time>2015-11-09T15:10:23.375Z</time>
      </trkpt>
      <trkpt lat="49.43922" lon="3.6095">
        <ele>136.3</ele>
        <time>2015-11-09T15:10:31.432Z</time>
      </trkpt>
      <trkpt lat="49.43923" lon="3.6095">
        <ele>136.4</ele>
        <time>2015-11-09T15:10:32.434Z</time>
      </trkpt>
      <trkpt lat="49.43931" lon="3.60955">
        <ele>138</ele>
        <time>2015-11-09T15:10:39.450Z</time>
      </trkpt>
      <trkpt lat="49.43932" lon="3.60955">
        <ele>137.9</ele>
        <time>2015-11-09T15:10:40.434Z</time>
      </trkpt>
      <trkpt lat="49.43939" lon="3.60962">
        <ele>138.1</ele>
        <time>2015-11-09T15:10:48.425Z</time>
      </trkpt>
      <trkpt lat="49.4394" lon="3.60963">
        <ele>138.2</ele>
        <time>2015-11-09T15:10:49.424Z</time>
      </trkpt>
      <trkpt lat="49.43947" lon="3.60969">
        <ele>139.7</ele>
        <time>2015-11-09T15:10:58.411Z</time>
      </trkpt>
      <trkpt lat="49.43948" lon="3.6097">
        <ele>139.6</ele>
        <time>2015-11-09T15:10:59.394Z</time>
      </trkpt>
      <trkpt lat="49.43951" lon="3.60973">
        <ele>139.8</ele>
        <time>2015-11-09T15:11:03.467Z</time>
      </trkpt>
      <trkpt lat="49.43951" lon="3.60972">
        <ele>139.6</ele>
        <time>2015-11-09T15:11:04.370Z</time>
      </trkpt>
      <trkpt lat="49.43951" lon="3.60971">
        <ele>139.3</ele>
        <time>2015-11-09T15:11:47.407Z</time>
      </trkpt>
      <trkpt lat="49.43954" lon="3.60968">
        <ele>139</ele>
        <time>2015-11-09T15:11:48.412Z</time>
      </trkpt>
      <trkpt lat="49.4395" lon="3.60965">
        <ele>137.8</ele>
        <time>2015-11-09T15:11:59.497Z</time>
      </trkpt>
      <trkpt lat="49.4395" lon="3.60964">
        <ele>137.7</ele>
        <time>2015-11-09T15:12:00.458Z</time>
      </trkpt>
      <trkpt lat="49.43949" lon="3.60964">
        <ele>137.6</ele>
        <time>2015-11-09T15:12:24.427Z</time>
      </trkpt>
      <trkpt lat="49.4395" lon="3.60963">
        <ele>137.6</ele>
        <time>2015-11-09T15:12:25.427Z</time>
      </trkpt>
      <trkpt lat="49.4395" lon="3.60963">
        <ele>137.6</ele>
        <time>2015-11-09T15:12:25.452Z</time>
      </trkpt>
      <trkpt lat="49.4395" lon="3.60963">
        <ele>137.6</ele>
        <time>2015-11-09T15:12:26.434Z</time>
      </trkpt>
      <trkpt lat="49.4395" lon="3.60963">
        <ele>137.7</ele>
        <time>2015-11-09T15:12:28.478Z</time>
      </trkpt>
      <trkpt lat="49.4395" lon="3.60963">
        <ele>137.6</ele>
        <time>2015-11-09T15:12:29.360Z</time>
      </trkpt>
      <trkpt lat="49.4395" lon="3.60962">
        <ele>137.6</ele>
        <time>2015-11-09T15:12:30.414Z</time>
      </trkpt>
      <trkpt lat="49.4395" lon="3.60963">
        <ele>137.7</ele>
        <time>2015-11-09T15:12:31.416Z</time>
      </trkpt>
      <trkpt lat="49.4395" lon="3.60963">
        <ele>137.7</ele>
        <time>2015-11-09T15:12:31.449Z</time>
      </trkpt>
      <trkpt lat="49.4395" lon="3.60962">
        <ele>137.7</ele>
        <time>2015-11-09T15:12:32.429Z</time>
      </trkpt>
      <trkpt lat="49.4395" lon="3.60962">
        <ele>137.7</ele>
        <time>2015-11-09T15:12:32.454Z</time>
      </trkpt>
      <trkpt lat="49.43951" lon="3.60962">
        <ele>137.7</ele>
        <time>2015-11-09T15:12:33.441Z</time>
      </trkpt>
      <trkpt lat="49.4395" lon="3.60963">
        <ele>137.8</ele>
        <time>2015-11-09T15:12:39.420Z</time>
      </trkpt>
      <trkpt lat="49.43951" lon="3.60964">
        <ele>137.8</ele>
        <time>2015-11-09T15:12:40.395Z</time>
      </trkpt>
      <trkpt lat="49.43957" lon="3.60972">
        <ele>137.7</ele>
        <time>2015-11-09T15:12:54.441Z</time>
      </trkpt>
      <trkpt lat="49.43958" lon="3.60972">
        <ele>137.7</ele>
        <time>2015-11-09T15:12:55.427Z</time>
      </trkpt>
      <trkpt lat="49.43958" lon="3.60972">
        <ele>137.7</ele>
        <time>2015-11-09T15:12:56.459Z</time>
      </trkpt>
      <trkpt lat="49.43958" lon="3.60972">
        <ele>137.7</ele>
        <time>2015-11-09T15:12:57.471Z</time>
      </trkpt>
      <trkpt lat="49.43958" lon="3.60972">
        <ele>137.6</ele>
        <time>2015-11-09T15:12:58.378Z</time>
      </trkpt>
      <trkpt lat="49.43959" lon="3.60972">
        <ele>137.5</ele>
        <time>2015-11-09T15:12:59.381Z</time>
      </trkpt>
      <trkpt lat="49.43966" lon="3.60977">
        <ele>137.5</ele>
        <time>2015-11-09T15:13:11.394Z</time>
      </trkpt>
      <trkpt lat="49.43967" lon="3.60977">
        <ele>137.5</ele>
        <time>2015-11-09T15:13:12.423Z</time>
      </trkpt>
      <trkpt lat="49.43971" lon="3.6098">
        <ele>138.1</ele>
        <time>2015-11-09T15:13:18.433Z</time>
      </trkpt>
      <trkpt lat="49.43971" lon="3.6098">
        <ele>138.3</ele>
        <time>2015-11-09T15:13:19.419Z</time>
      </trkpt>
      <trkpt lat="49.43971" lon="3.6098">
        <ele>138.2</ele>
        <time>2015-11-09T15:13:23.472Z</time>
      </trkpt>
      <trkpt lat="49.43972" lon="3.60981">
        <ele>138.9</ele>
        <time>2015-11-09T15:13:24.460Z</time>
      </trkpt>
      <trkpt lat="49.43972" lon="3.60982">
        <ele>138.9</ele>
        <time>2015-11-09T15:13:25.386Z</time>
      </trkpt>
      <trkpt lat="49.43972" lon="3.60982">
        <ele>139</ele>
        <time>2015-11-09T15:13:26.371Z</time>
      </trkpt>
      <trkpt lat="49.43972" lon="3.60982">
        <ele>139</ele>
        <time>2015-11-09T15:13:26.397Z</time>
      </trkpt>
      <trkpt lat="49.43973" lon="3.60982">
        <ele>139</ele>
        <time>2015-11-09T15:13:27.398Z</time>
      </trkpt>
      <trkpt lat="49.43973" lon="3.60982">
        <ele>139</ele>
        <time>2015-11-09T15:13:28.431Z</time>
      </trkpt>
      <trkpt lat="49.43973" lon="3.60981">
        <ele>139</ele>
        <time>2015-11-09T15:13:29.413Z</time>
      </trkpt>
      <trkpt lat="49.43973" lon="3.60981">
        <ele>139</ele>
        <time>2015-11-09T15:13:29.432Z</time>
      </trkpt>
      <trkpt lat="49.43973" lon="3.60981">
        <ele>138.8</ele>
        <time>2015-11-09T15:13:30.433Z</time>
      </trkpt>
      <trkpt lat="49.43973" lon="3.60981">
        <ele>138.8</ele>
        <time>2015-11-09T15:13:32.460Z</time>
      </trkpt>
      <trkpt lat="49.43972" lon="3.60981">
        <ele>138.7</ele>
        <time>2015-11-09T15:13:33.452Z</time>
      </trkpt>
      <trkpt lat="49.43972" lon="3.60981">
        <ele>138.6</ele>
        <time>2015-11-09T15:13:49.538Z</time>
      </trkpt>
      <trkpt lat="49.43973" lon="3.60978">
        <ele>139.2</ele>
        <time>2015-11-09T15:13:50.440Z</time>
      </trkpt>
      <trkpt lat="49.43976" lon="3.60969">
        <ele>139.8</ele>
        <time>2015-11-09T15:14:01.380Z</time>
      </trkpt>
      <trkpt lat="49.43976" lon="3.60969">
        <ele>139.8</ele>
        <time>2015-11-09T15:14:02.365Z</time>
      </trkpt>
      <trkpt lat="49.43976" lon="3.60969">
        <ele>139.8</ele>
        <time>2015-11-09T15:14:03.395Z</time>
      </trkpt>
      <trkpt lat="49.43977" lon="3.60968">
        <ele>139.8</ele>
        <time>2015-11-09T15:14:04.384Z</time>
      </trkpt>
      <trkpt lat="49.43978" lon="3.60962">
        <ele>140.3</ele>
        <time>2015-11-09T15:14:53.382Z</time>
      </trkpt>
      <trkpt lat="49.43978" lon="3.60961">
        <ele>140.3</ele>
        <time>2015-11-09T15:14:54.407Z</time>
      </trkpt>
      <trkpt lat="49.43978" lon="3.60961">
        <ele>140.3</ele>
        <time>2015-11-09T15:14:58.493Z</time>
      </trkpt>
      <trkpt lat="49.43978" lon="3.60962">
        <ele>140.6</ele>
        <time>2015-11-09T15:14:59.450Z</time>
      </trkpt>
      <trkpt lat="49.43977" lon="3.60963">
        <ele>141.2</ele>
        <time>2015-11-09T15:15:17.471Z</time>
      </trkpt>
      <trkpt lat="49.43977" lon="3.60963">
        <ele>141.3</ele>
        <time>2015-11-09T15:15:18.465Z</time>
      </trkpt>
      <trkpt lat="49.43977" lon="3.60963">
        <ele>141.3</ele>
        <time>2015-11-09T15:15:18.507Z</time>
      </trkpt>
      <trkpt lat="49.43977" lon="3.60963">
        <ele>141.3</ele>
        <time>2015-11-09T15:15:19.371Z</time>
      </trkpt>
      <trkpt lat="49.43979" lon="3.6096">
        <ele>140.8</ele>
        <time>2015-11-09T15:16:02.450Z</time>
      </trkpt>
      <trkpt lat="49.43978" lon="3.60959">
        <ele>140.8</ele>
        <time>2015-11-09T15:16:03.442Z</time>
      </trkpt>
      <trkpt lat="49.43978" lon="3.60959">
        <ele>140.8</ele>
        <time>2015-11-09T15:16:03.463Z</time>
      </trkpt>
      <trkpt lat="49.43979" lon="3.6096">
        <ele>140.8</ele>
        <time>2015-11-09T15:16:04.478Z</time>
      </trkpt>
      <trkpt lat="49.43979" lon="3.6096">
        <ele>140.9</ele>
        <time>2015-11-09T15:16:05.506Z</time>
      </trkpt>
      <trkpt lat="49.43979" lon="3.6096">
        <ele>141.1</ele>
        <time>2015-11-09T15:16:06.479Z</time>
      </trkpt>
      <trkpt lat="49.43979" lon="3.6096">
        <ele>141.1</ele>
        <time>2015-11-09T15:16:06.499Z</time>
      </trkpt>
      <trkpt lat="49.4398" lon="3.6096">
        <ele>141</ele>
        <time>2015-11-09T15:16:07.365Z</time>
      </trkpt>
      <trkpt lat="49.4398" lon="3.6096">
        <ele>141</ele>
        <time>2015-11-09T15:16:08.390Z</time>
      </trkpt>
      <trkpt lat="49.4398" lon="3.6096">
        <ele>140.9</ele>
        <time>2015-11-09T15:16:09.379Z</time>
      </trkpt>
      <trkpt lat="49.4398" lon="3.6096">
        <ele>140.8</ele>
        <time>2015-11-09T15:16:50.447Z</time>
      </trkpt>
      <trkpt lat="49.43978" lon="3.60961">
        <ele>140.9</ele>
        <time>2015-11-09T15:16:51.435Z</time>
      </trkpt>
      <trkpt lat="49.43974" lon="3.60955">
        <ele>139.7</ele>
        <time>2015-11-09T15:17:31.405Z</time>
      </trkpt>
      <trkpt lat="49.43974" lon="3.60955">
        <ele>139.8</ele>
        <time>2015-11-09T15:17:32.361Z</time>
      </trkpt>
      <trkpt lat="49.43974" lon="3.60955">
        <ele>139.8</ele>
        <time>2015-11-09T15:17:43.386Z</time>
      </trkpt>
      <trkpt lat="49.43975" lon="3.60953">
        <ele>140.6</ele>
        <time>2015-11-09T15:17:44.372Z</time>
      </trkpt>
      <trkpt lat="49.43974" lon="3.60953">
        <ele>140.7</ele>
        <time>2015-11-09T15:17:46.417Z</time>
      </trkpt>
      <trkpt lat="49.43974" lon="3.60952">
        <ele>140.8</ele>
        <time>2015-11-09T15:17:47.409Z</time>
      </trkpt>
      <trkpt lat="49.43974" lon="3.60952">
        <ele>140.9</ele>
        <time>2015-11-09T15:18:02.402Z</time>
      </trkpt>
      <trkpt lat="49.43975" lon="3.60952">
        <ele>141.6</ele>
        <time>2015-11-09T15:18:03.391Z</time>
      </trkpt>
      <trkpt lat="49.43973" lon="3.60951">
        <ele>141.6</ele>
        <time>2015-11-09T15:18:29.438Z</time>
      </trkpt>
      <trkpt lat="49.43973" lon="3.60951">
        <ele>141.5</ele>
        <time>2015-11-09T15:18:30.423Z</time>
      </trkpt>
      <trkpt lat="49.43973" lon="3.60951">
        <ele>141.6</ele>
        <time>2015-11-09T15:18:36.128Z</time>
      </trkpt>
    </trkseg>
  </trk>
</gpx>